<?xml version="1.0" encoding="UTF-8" standalone="no" ?>
<gpx xmlns="http://www.topografix.com/GPX/1/1" xmlns:xsi="http://www.w3.org/2001/XMLSchema-instance" xsi:schemaLocation="http://www.topografix.com/GPX/1/1 http://www.topografix.com/GPX/1/1/gpx.xsd" version="1.1" creator="VisuGPX - https://www.visugpx.com">
  <metadata>
    <name>Pic de la Touatère en boucle depuis Tournaaboup (Barèges 65)</name>
    <desc><![CDATA[Très très belle journée après une grosse chute de neige. Montée à gauche du lac dans les pins enneigés (nettement plus beau que la monté habituelle par la pente Ouest) et descente de rêve dans 50 cm de poudreuse directement importée du Canada.]]></desc>
  </metadata>
  <trk>
    <name><![CDATA[Pic de la Touatère en boucle depuis Tournaaboup (Barèges 65)_1]]></name>
    <trkseg>
      <trkpt lat="42.9038" lon="0.10316">
        <ele>1454.3</ele>
        <time>2015-01-17T09:05:55Z</time>
      </trkpt>
      <trkpt lat="42.90389" lon="0.10315">
        <ele>1452.6655912245</ele>
        <time>2015-01-17T09:11:37Z</time>
      </trkpt>
      <trkpt lat="42.90385" lon="0.10314">
        <ele>1452.6655912245</ele>
        <time>2015-01-17T09:14:12Z</time>
      </trkpt>
      <trkpt lat="42.90387" lon="0.1031">
        <ele>1452.6655912245</ele>
        <time>2015-01-17T09:14:17Z</time>
      </trkpt>
      <trkpt lat="42.90388" lon="0.10306">
        <ele>1460.0279036979</ele>
        <time>2015-01-17T09:14:22Z</time>
      </trkpt>
      <trkpt lat="42.90389" lon="0.10301">
        <ele>1460.0279036979</ele>
        <time>2015-01-17T09:14:26Z</time>
      </trkpt>
      <trkpt lat="42.90389" lon="0.10298">
        <ele>1460.0279036979</ele>
        <time>2015-01-17T09:14:32Z</time>
      </trkpt>
      <trkpt lat="42.90387" lon="0.10296">
        <ele>1460.0279036979</ele>
        <time>2015-01-17T09:16:06Z</time>
      </trkpt>
      <trkpt lat="42.90386" lon="0.10301">
        <ele>1466.7155559421</ele>
        <time>2015-01-17T09:16:12Z</time>
      </trkpt>
      <trkpt lat="42.90387" lon="0.10303">
        <ele>1466.7155559421</ele>
        <time>2015-01-17T09:16:16Z</time>
      </trkpt>
      <trkpt lat="42.90387" lon="0.10305">
        <ele>1466.7155559421</ele>
        <time>2015-01-17T09:16:21Z</time>
      </trkpt>
      <trkpt lat="42.90385" lon="0.10317">
        <ele>1473.8335909374</ele>
        <time>2015-01-17T09:17:02Z</time>
      </trkpt>
      <trkpt lat="42.90378" lon="0.10327">
        <ele>1481.5279297912</ele>
        <time>2015-01-17T09:23:28Z</time>
      </trkpt>
      <trkpt lat="42.90376" lon="0.10328">
        <ele>1481.5279297912</ele>
        <time>2015-01-17T09:23:32Z</time>
      </trkpt>
      <trkpt lat="42.90373" lon="0.10329">
        <ele>1481.5279297912</ele>
        <time>2015-01-17T09:23:36Z</time>
      </trkpt>
      <trkpt lat="42.90366" lon="0.10329">
        <ele>1488.4333676995</ele>
        <time>2015-01-17T09:23:41Z</time>
      </trkpt>
      <trkpt lat="42.90364" lon="0.10326">
        <ele>1488.4333676995</ele>
        <time>2015-01-17T09:23:47Z</time>
      </trkpt>
      <trkpt lat="42.9036" lon="0.10326">
        <ele>1488.4333676995</ele>
        <time>2015-01-17T09:23:51Z</time>
      </trkpt>
      <trkpt lat="42.90357" lon="0.10327">
        <ele>1494.4195975692</ele>
        <time>2015-01-17T09:23:55Z</time>
      </trkpt>
      <trkpt lat="42.90351" lon="0.10327">
        <ele>1494.4195975692</ele>
        <time>2015-01-17T09:24:01Z</time>
      </trkpt>
      <trkpt lat="42.90345" lon="0.10329">
        <ele>1499.4122330345</ele>
        <time>2015-01-17T09:24:07Z</time>
      </trkpt>
      <trkpt lat="42.90342" lon="0.10331">
        <ele>1499.4122330345</ele>
        <time>2015-01-17T09:24:12Z</time>
      </trkpt>
      <trkpt lat="42.90341" lon="0.10331">
        <ele>1499.4122330345</ele>
        <time>2015-01-17T09:24:17Z</time>
      </trkpt>
      <trkpt lat="42.90349" lon="0.10324">
        <ele>1503.3851072129</ele>
        <time>2015-01-17T09:24:42Z</time>
      </trkpt>
      <trkpt lat="42.90352" lon="0.10323">
        <ele>1503.3851072129</ele>
        <time>2015-01-17T09:24:47Z</time>
      </trkpt>
      <trkpt lat="42.90343" lon="0.10329">
        <ele>1506.3090896394</ele>
        <time>2015-01-17T09:25:17Z</time>
      </trkpt>
      <trkpt lat="42.90343" lon="0.10329">
        <ele>1506.3090896394</ele>
        <time>2015-01-17T09:25:22Z</time>
      </trkpt>
      <trkpt lat="42.90334" lon="0.10327">
        <ele>1508.1971648464</ele>
        <time>2015-01-17T09:26:02Z</time>
      </trkpt>
      <trkpt lat="42.90338" lon="0.10332">
        <ele>1508.1971648464</ele>
        <time>2015-01-17T09:27:42Z</time>
      </trkpt>
      <trkpt lat="42.90333" lon="0.10335">
        <ele>1509.3415006049</ele>
        <time>2015-01-17T09:27:47Z</time>
      </trkpt>
      <trkpt lat="42.90325" lon="0.10337">
        <ele>1509.3415006049</ele>
        <time>2015-01-17T09:27:52Z</time>
      </trkpt>
      <trkpt lat="42.9032" lon="0.10336">
        <ele>1509.5878573073</ele>
        <time>2015-01-17T09:27:57Z</time>
      </trkpt>
      <trkpt lat="42.90315" lon="0.10335">
        <ele>1509.5878573073</ele>
        <time>2015-01-17T09:28:02Z</time>
      </trkpt>
      <trkpt lat="42.9031" lon="0.10333">
        <ele>1509.1550585338</ele>
        <time>2015-01-17T09:28:08Z</time>
      </trkpt>
      <trkpt lat="42.90303" lon="0.10332">
        <ele>1509.1550585338</ele>
        <time>2015-01-17T09:28:12Z</time>
      </trkpt>
      <trkpt lat="42.90302" lon="0.10332">
        <ele>1509.1550585338</ele>
        <time>2015-01-17T09:28:16Z</time>
      </trkpt>
      <trkpt lat="42.90294" lon="0.10336">
        <ele>1508.186857502</ele>
        <time>2015-01-17T09:28:21Z</time>
      </trkpt>
      <trkpt lat="42.90289" lon="0.10336">
        <ele>1508.186857502</ele>
        <time>2015-01-17T09:28:26Z</time>
      </trkpt>
      <trkpt lat="42.90285" lon="0.10338">
        <ele>1506.7629894606</ele>
        <time>2015-01-17T09:28:32Z</time>
      </trkpt>
      <trkpt lat="42.90282" lon="0.10338">
        <ele>1506.7629894606</ele>
        <time>2015-01-17T09:28:36Z</time>
      </trkpt>
      <trkpt lat="42.90277" lon="0.10338">
        <ele>1506.7629894606</ele>
        <time>2015-01-17T09:28:41Z</time>
      </trkpt>
      <trkpt lat="42.90273" lon="0.10339">
        <ele>1505.1278847081</ele>
        <time>2015-01-17T09:28:47Z</time>
      </trkpt>
      <trkpt lat="42.9027" lon="0.10337">
        <ele>1505.1278847081</ele>
        <time>2015-01-17T09:28:52Z</time>
      </trkpt>
      <trkpt lat="42.90266" lon="0.10337">
        <ele>1505.1278847081</ele>
        <time>2015-01-17T09:28:57Z</time>
      </trkpt>
      <trkpt lat="42.90261" lon="0.10336">
        <ele>1503.357624671</ele>
        <time>2015-01-17T09:29:01Z</time>
      </trkpt>
      <trkpt lat="42.90258" lon="0.10335">
        <ele>1503.357624671</ele>
        <time>2015-01-17T09:29:05Z</time>
      </trkpt>
      <trkpt lat="42.90251" lon="0.10335">
        <ele>1501.5388887135</ele>
        <time>2015-01-17T09:29:12Z</time>
      </trkpt>
      <trkpt lat="42.90247" lon="0.10334">
        <ele>1501.5388887135</ele>
        <time>2015-01-17T09:29:16Z</time>
      </trkpt>
      <trkpt lat="42.90239" lon="0.10332">
        <ele>1499.8144352863</ele>
        <time>2015-01-17T09:29:23Z</time>
      </trkpt>
      <trkpt lat="42.90236" lon="0.10331">
        <ele>1499.8144352863</ele>
        <time>2015-01-17T09:29:26Z</time>
      </trkpt>
      <trkpt lat="42.90236" lon="0.10333">
        <ele>1499.8144352863</ele>
        <time>2015-01-17T09:29:32Z</time>
      </trkpt>
      <trkpt lat="42.90233" lon="0.10335">
        <ele>1499.8144352863</ele>
        <time>2015-01-17T09:29:37Z</time>
      </trkpt>
      <trkpt lat="42.90235" lon="0.10334">
        <ele>1499.8144352863</ele>
        <time>2015-01-17T09:29:41Z</time>
      </trkpt>
      <trkpt lat="42.90235" lon="0.10333">
        <ele>1498.1434838623</ele>
        <time>2015-01-17T09:29:46Z</time>
      </trkpt>
      <trkpt lat="42.90226" lon="0.10333">
        <ele>1496.7404975506</ele>
        <time>2015-01-17T09:31:15Z</time>
      </trkpt>
      <trkpt lat="42.90226" lon="0.10334">
        <ele>1496.7404975506</ele>
        <time>2015-01-17T09:31:20Z</time>
      </trkpt>
      <trkpt lat="42.9022" lon="0.10337">
        <ele>1496.7404975506</ele>
        <time>2015-01-17T09:31:31Z</time>
      </trkpt>
      <trkpt lat="42.90215" lon="0.10338">
        <ele>1495.3053236823</ele>
        <time>2015-01-17T09:31:37Z</time>
      </trkpt>
      <trkpt lat="42.90211" lon="0.10339">
        <ele>1495.3053236823</ele>
        <time>2015-01-17T09:31:41Z</time>
      </trkpt>
      <trkpt lat="42.90207" lon="0.10342">
        <ele>1495.3053236823</ele>
        <time>2015-01-17T09:31:46Z</time>
      </trkpt>
      <trkpt lat="42.90202" lon="0.10345">
        <ele>1493.8955009192</ele>
        <time>2015-01-17T09:31:52Z</time>
      </trkpt>
      <trkpt lat="42.902" lon="0.10346">
        <ele>1493.8955009192</ele>
        <time>2015-01-17T09:31:56Z</time>
      </trkpt>
      <trkpt lat="42.90197" lon="0.10349">
        <ele>1493.8955009192</ele>
        <time>2015-01-17T09:32:01Z</time>
      </trkpt>
      <trkpt lat="42.90191" lon="0.10351">
        <ele>1492.5719039767</ele>
        <time>2015-01-17T09:32:07Z</time>
      </trkpt>
      <trkpt lat="42.90188" lon="0.10353">
        <ele>1492.5719039767</ele>
        <time>2015-01-17T09:32:12Z</time>
      </trkpt>
      <trkpt lat="42.90181" lon="0.10356">
        <ele>1491.2411285646</ele>
        <time>2015-01-17T09:32:17Z</time>
      </trkpt>
      <trkpt lat="42.90178" lon="0.10356">
        <ele>1491.2411285646</ele>
        <time>2015-01-17T09:32:21Z</time>
      </trkpt>
      <trkpt lat="42.90174" lon="0.10357">
        <ele>1491.2411285646</ele>
        <time>2015-01-17T09:32:27Z</time>
      </trkpt>
      <trkpt lat="42.90169" lon="0.10358">
        <ele>1490.0033682299</ele>
        <time>2015-01-17T09:32:34Z</time>
      </trkpt>
      <trkpt lat="42.90166" lon="0.10358">
        <ele>1490.0033682299</ele>
        <time>2015-01-17T09:32:36Z</time>
      </trkpt>
      <trkpt lat="42.90162" lon="0.1036">
        <ele>1490.0033682299</ele>
        <time>2015-01-17T09:32:41Z</time>
      </trkpt>
      <trkpt lat="42.90157" lon="0.10363">
        <ele>1488.9184808371</ele>
        <time>2015-01-17T09:32:47Z</time>
      </trkpt>
      <trkpt lat="42.90153" lon="0.10363">
        <ele>1488.9184808371</ele>
        <time>2015-01-17T09:32:54Z</time>
      </trkpt>
      <trkpt lat="42.90147" lon="0.10367">
        <ele>1487.8157658809</ele>
        <time>2015-01-17T09:32:56Z</time>
      </trkpt>
      <trkpt lat="42.90144" lon="0.1037">
        <ele>1487.8157658809</ele>
        <time>2015-01-17T09:33:01Z</time>
      </trkpt>
      <trkpt lat="42.90139" lon="0.10374">
        <ele>1486.7220829062</ele>
        <time>2015-01-17T09:33:07Z</time>
      </trkpt>
      <trkpt lat="42.90135" lon="0.10376">
        <ele>1486.7220829062</ele>
        <time>2015-01-17T09:33:12Z</time>
      </trkpt>
      <trkpt lat="42.9013" lon="0.10378">
        <ele>1485.7595911211</ele>
        <time>2015-01-17T09:33:17Z</time>
      </trkpt>
      <trkpt lat="42.90127" lon="0.10381">
        <ele>1485.7595911211</ele>
        <time>2015-01-17T09:33:21Z</time>
      </trkpt>
      <trkpt lat="42.90123" lon="0.10383">
        <ele>1485.7595911211</ele>
        <time>2015-01-17T09:33:26Z</time>
      </trkpt>
      <trkpt lat="42.90119" lon="0.10386">
        <ele>1485.0278187494</ele>
        <time>2015-01-17T09:33:32Z</time>
      </trkpt>
      <trkpt lat="42.90115" lon="0.10388">
        <ele>1485.0278187494</ele>
        <time>2015-01-17T09:33:37Z</time>
      </trkpt>
      <trkpt lat="42.90109" lon="0.10388">
        <ele>1484.4541769312</ele>
        <time>2015-01-17T09:33:41Z</time>
      </trkpt>
      <trkpt lat="42.90106" lon="0.10389">
        <ele>1484.4541769312</ele>
        <time>2015-01-17T09:33:46Z</time>
      </trkpt>
      <trkpt lat="42.90099" lon="0.10392">
        <ele>1483.9313528108</ele>
        <time>2015-01-17T09:33:52Z</time>
      </trkpt>
      <trkpt lat="42.90096" lon="0.10392">
        <ele>1483.9313528108</ele>
        <time>2015-01-17T09:33:57Z</time>
      </trkpt>
      <trkpt lat="42.90092" lon="0.10393">
        <ele>1483.9313528108</ele>
        <time>2015-01-17T09:34:00Z</time>
      </trkpt>
      <trkpt lat="42.90086" lon="0.10395">
        <ele>1483.5139527659</ele>
        <time>2015-01-17T09:34:07Z</time>
      </trkpt>
      <trkpt lat="42.90081" lon="0.10396">
        <ele>1483.5139527659</ele>
        <time>2015-01-17T09:34:12Z</time>
      </trkpt>
      <trkpt lat="42.90077" lon="0.10398">
        <ele>1483.5139527659</ele>
        <time>2015-01-17T09:34:16Z</time>
      </trkpt>
      <trkpt lat="42.90072" lon="0.10401">
        <ele>1483.1145137685</ele>
        <time>2015-01-17T09:34:21Z</time>
      </trkpt>
      <trkpt lat="42.90069" lon="0.10402">
        <ele>1483.1145137685</ele>
        <time>2015-01-17T09:34:27Z</time>
      </trkpt>
      <trkpt lat="42.90062" lon="0.10401">
        <ele>1482.6939048284</ele>
        <time>2015-01-17T09:34:32Z</time>
      </trkpt>
      <trkpt lat="42.90058" lon="0.10406">
        <ele>1482.6939048284</ele>
        <time>2015-01-17T09:34:37Z</time>
      </trkpt>
      <trkpt lat="42.90056" lon="0.10406">
        <ele>1482.6939048284</ele>
        <time>2015-01-17T09:34:41Z</time>
      </trkpt>
      <trkpt lat="42.9005" lon="0.10406">
        <ele>1482.343630102</ele>
        <time>2015-01-17T09:34:47Z</time>
      </trkpt>
      <trkpt lat="42.90047" lon="0.10407">
        <ele>1482.343630102</ele>
        <time>2015-01-17T09:34:52Z</time>
      </trkpt>
      <trkpt lat="42.90043" lon="0.10407">
        <ele>1482.343630102</ele>
        <time>2015-01-17T09:34:57Z</time>
      </trkpt>
      <trkpt lat="42.9004" lon="0.10409">
        <ele>1482.022660737</ele>
        <time>2015-01-17T09:35:01Z</time>
      </trkpt>
      <trkpt lat="42.90034" lon="0.10411">
        <ele>1482.022660737</ele>
        <time>2015-01-17T09:35:06Z</time>
      </trkpt>
      <trkpt lat="42.90028" lon="0.10413">
        <ele>1481.7643361571</ele>
        <time>2015-01-17T09:35:12Z</time>
      </trkpt>
      <trkpt lat="42.90024" lon="0.10414">
        <ele>1481.7643361571</ele>
        <time>2015-01-17T09:35:16Z</time>
      </trkpt>
      <trkpt lat="42.90019" lon="0.10415">
        <ele>1481.6293883462</ele>
        <time>2015-01-17T09:35:21Z</time>
      </trkpt>
      <trkpt lat="42.90015" lon="0.10416">
        <ele>1481.6293883462</ele>
        <time>2015-01-17T09:35:26Z</time>
      </trkpt>
      <trkpt lat="42.9001" lon="0.10417">
        <ele>1481.6293883462</ele>
        <time>2015-01-17T09:35:32Z</time>
      </trkpt>
      <trkpt lat="42.90005" lon="0.10415">
        <ele>1481.6896859848</ele>
        <time>2015-01-17T09:35:37Z</time>
      </trkpt>
      <trkpt lat="42.90001" lon="0.10417">
        <ele>1481.6896859848</ele>
        <time>2015-01-17T09:35:41Z</time>
      </trkpt>
      <trkpt lat="42.89994" lon="0.10421">
        <ele>1481.8657870429</ele>
        <time>2015-01-17T09:35:47Z</time>
      </trkpt>
      <trkpt lat="42.89989" lon="0.10425">
        <ele>1481.8657870429</ele>
        <time>2015-01-17T09:35:52Z</time>
      </trkpt>
      <trkpt lat="42.89983" lon="0.10424">
        <ele>1482.1405922722</ele>
        <time>2015-01-17T09:35:56Z</time>
      </trkpt>
      <trkpt lat="42.89977" lon="0.10423">
        <ele>1482.1405922722</ele>
        <time>2015-01-17T09:36:01Z</time>
      </trkpt>
      <trkpt lat="42.89972" lon="0.10425">
        <ele>1482.5119354553</ele>
        <time>2015-01-17T09:36:07Z</time>
      </trkpt>
      <trkpt lat="42.89966" lon="0.10427">
        <ele>1482.5119354553</ele>
        <time>2015-01-17T09:36:12Z</time>
      </trkpt>
      <trkpt lat="42.89961" lon="0.1043">
        <ele>1482.9620108544</ele>
        <time>2015-01-17T09:36:17Z</time>
      </trkpt>
      <trkpt lat="42.89957" lon="0.10431">
        <ele>1482.9620108544</ele>
        <time>2015-01-17T09:36:21Z</time>
      </trkpt>
      <trkpt lat="42.89952" lon="0.10433">
        <ele>1483.458349447</ele>
        <time>2015-01-17T09:36:26Z</time>
      </trkpt>
      <trkpt lat="42.89945" lon="0.10434">
        <ele>1483.458349447</ele>
        <time>2015-01-17T09:36:31Z</time>
      </trkpt>
      <trkpt lat="42.89939" lon="0.10435">
        <ele>1484.0449915418</ele>
        <time>2015-01-17T09:36:37Z</time>
      </trkpt>
      <trkpt lat="42.89935" lon="0.10435">
        <ele>1484.0449915418</ele>
        <time>2015-01-17T09:36:41Z</time>
      </trkpt>
      <trkpt lat="42.89928" lon="0.10434">
        <ele>1484.7172120022</ele>
        <time>2015-01-17T09:36:47Z</time>
      </trkpt>
      <trkpt lat="42.89923" lon="0.10435">
        <ele>1484.7172120022</ele>
        <time>2015-01-17T09:36:52Z</time>
      </trkpt>
      <trkpt lat="42.89919" lon="0.10437">
        <ele>1485.4548281934</ele>
        <time>2015-01-17T09:36:57Z</time>
      </trkpt>
      <trkpt lat="42.89915" lon="0.10437">
        <ele>1485.4548281934</ele>
        <time>2015-01-17T09:37:01Z</time>
      </trkpt>
      <trkpt lat="42.89909" lon="0.10439">
        <ele>1486.1932807052</ele>
        <time>2015-01-17T09:37:07Z</time>
      </trkpt>
      <trkpt lat="42.89904" lon="0.10441">
        <ele>1486.1932807052</ele>
        <time>2015-01-17T09:37:12Z</time>
      </trkpt>
      <trkpt lat="42.899" lon="0.10441">
        <ele>1486.9933660298</ele>
        <time>2015-01-17T09:37:17Z</time>
      </trkpt>
      <trkpt lat="42.89896" lon="0.10441">
        <ele>1486.9933660298</ele>
        <time>2015-01-17T09:37:21Z</time>
      </trkpt>
      <trkpt lat="42.8989" lon="0.10442">
        <ele>1487.8052634021</ele>
        <time>2015-01-17T09:37:27Z</time>
      </trkpt>
      <trkpt lat="42.89888" lon="0.10442">
        <ele>1487.8052634021</ele>
        <time>2015-01-17T09:37:32Z</time>
      </trkpt>
      <trkpt lat="42.89882" lon="0.10442">
        <ele>1487.8052634021</ele>
        <time>2015-01-17T09:37:37Z</time>
      </trkpt>
      <trkpt lat="42.8988" lon="0.10442">
        <ele>1488.7488367209</ele>
        <time>2015-01-17T09:37:41Z</time>
      </trkpt>
      <trkpt lat="42.89874" lon="0.10443">
        <ele>1488.7488367209</ele>
        <time>2015-01-17T09:37:46Z</time>
      </trkpt>
      <trkpt lat="42.8987" lon="0.10443">
        <ele>1489.7530029321</ele>
        <time>2015-01-17T09:37:52Z</time>
      </trkpt>
      <trkpt lat="42.89866" lon="0.10444">
        <ele>1489.7530029321</ele>
        <time>2015-01-17T09:37:57Z</time>
      </trkpt>
      <trkpt lat="42.89863" lon="0.10448">
        <ele>1489.7530029321</ele>
        <time>2015-01-17T09:38:01Z</time>
      </trkpt>
      <trkpt lat="42.89859" lon="0.10453">
        <ele>1490.8273425883</ele>
        <time>2015-01-17T09:38:07Z</time>
      </trkpt>
      <trkpt lat="42.89858" lon="0.10454">
        <ele>1490.8273425883</ele>
        <time>2015-01-17T09:38:12Z</time>
      </trkpt>
      <trkpt lat="42.89851" lon="0.10451">
        <ele>1491.9352976223</ele>
        <time>2015-01-17T09:38:17Z</time>
      </trkpt>
      <trkpt lat="42.89847" lon="0.10451">
        <ele>1491.9352976223</ele>
        <time>2015-01-17T09:38:21Z</time>
      </trkpt>
      <trkpt lat="42.89842" lon="0.10449">
        <ele>1491.9352976223</ele>
        <time>2015-01-17T09:38:27Z</time>
      </trkpt>
      <trkpt lat="42.8984" lon="0.10449">
        <ele>1493.1182018746</ele>
        <time>2015-01-17T09:38:33Z</time>
      </trkpt>
      <trkpt lat="42.89832" lon="0.1045">
        <ele>1493.1182018746</ele>
        <time>2015-01-17T09:38:41Z</time>
      </trkpt>
      <trkpt lat="42.89827" lon="0.10457">
        <ele>1494.57833094</ele>
        <time>2015-01-17T09:38:47Z</time>
      </trkpt>
      <trkpt lat="42.89825" lon="0.1046">
        <ele>1494.57833094</ele>
        <time>2015-01-17T09:38:51Z</time>
      </trkpt>
      <trkpt lat="42.89817" lon="0.10466">
        <ele>1496.0372909174</ele>
        <time>2015-01-17T09:38:57Z</time>
      </trkpt>
      <trkpt lat="42.89815" lon="0.10468">
        <ele>1496.0372909174</ele>
        <time>2015-01-17T09:39:01Z</time>
      </trkpt>
      <trkpt lat="42.89812" lon="0.10473">
        <ele>1496.0372909174</ele>
        <time>2015-01-17T09:39:06Z</time>
      </trkpt>
      <trkpt lat="42.89805" lon="0.10478">
        <ele>1497.5380110145</ele>
        <time>2015-01-17T09:39:13Z</time>
      </trkpt>
      <trkpt lat="42.89802" lon="0.1048">
        <ele>1497.5380110145</ele>
        <time>2015-01-17T09:39:16Z</time>
      </trkpt>
      <trkpt lat="42.89797" lon="0.10484">
        <ele>1498.9711788969</ele>
        <time>2015-01-17T09:39:21Z</time>
      </trkpt>
      <trkpt lat="42.89792" lon="0.10487">
        <ele>1498.9711788969</ele>
        <time>2015-01-17T09:39:27Z</time>
      </trkpt>
      <trkpt lat="42.8979" lon="0.10488">
        <ele>1498.9711788969</ele>
        <time>2015-01-17T09:39:31Z</time>
      </trkpt>
      <trkpt lat="42.8979" lon="0.10486">
        <ele>1498.9711788969</ele>
        <time>2015-01-17T09:39:37Z</time>
      </trkpt>
      <trkpt lat="42.89787" lon="0.10488">
        <ele>1500.4592368557</ele>
        <time>2015-01-17T09:39:41Z</time>
      </trkpt>
      <trkpt lat="42.89783" lon="0.10488">
        <ele>1500.4592368557</ele>
        <time>2015-01-17T09:39:46Z</time>
      </trkpt>
      <trkpt lat="42.89779" lon="0.10488">
        <ele>1500.4592368557</ele>
        <time>2015-01-17T09:39:52Z</time>
      </trkpt>
      <trkpt lat="42.89774" lon="0.10489">
        <ele>1502.0255274481</ele>
        <time>2015-01-17T09:39:57Z</time>
      </trkpt>
      <trkpt lat="42.89771" lon="0.10489">
        <ele>1502.0255274481</ele>
        <time>2015-01-17T09:40:01Z</time>
      </trkpt>
      <trkpt lat="42.89766" lon="0.10492">
        <ele>1502.0255274481</ele>
        <time>2015-01-17T09:40:07Z</time>
      </trkpt>
      <trkpt lat="42.89761" lon="0.10496">
        <ele>1503.6027922333</ele>
        <time>2015-01-17T09:40:12Z</time>
      </trkpt>
      <trkpt lat="42.89756" lon="0.10496">
        <ele>1503.6027922333</ele>
        <time>2015-01-17T09:40:17Z</time>
      </trkpt>
      <trkpt lat="42.89753" lon="0.10499">
        <ele>1503.6027922333</ele>
        <time>2015-01-17T09:40:21Z</time>
      </trkpt>
      <trkpt lat="42.89748" lon="0.10496">
        <ele>1505.1882496213</ele>
        <time>2015-01-17T09:40:27Z</time>
      </trkpt>
      <trkpt lat="42.89744" lon="0.10498">
        <ele>1505.1882496213</ele>
        <time>2015-01-17T09:40:32Z</time>
      </trkpt>
      <trkpt lat="42.8974" lon="0.10499">
        <ele>1505.1882496213</ele>
        <time>2015-01-17T09:40:37Z</time>
      </trkpt>
      <trkpt lat="42.89735" lon="0.105">
        <ele>1506.8087166981</ele>
        <time>2015-01-17T09:40:41Z</time>
      </trkpt>
      <trkpt lat="42.89731" lon="0.10499">
        <ele>1506.8087166981</ele>
        <time>2015-01-17T09:40:47Z</time>
      </trkpt>
      <trkpt lat="42.89726" lon="0.10499">
        <ele>1508.4301500459</ele>
        <time>2015-01-17T09:40:52Z</time>
      </trkpt>
      <trkpt lat="42.89723" lon="0.10499">
        <ele>1508.4301500459</ele>
        <time>2015-01-17T09:40:57Z</time>
      </trkpt>
      <trkpt lat="42.89721" lon="0.105">
        <ele>1508.4301500459</ele>
        <time>2015-01-17T09:41:00Z</time>
      </trkpt>
      <trkpt lat="42.89717" lon="0.105">
        <ele>1510.0505552736</ele>
        <time>2015-01-17T09:41:07Z</time>
      </trkpt>
      <trkpt lat="42.89713" lon="0.10501">
        <ele>1510.0505552736</ele>
        <time>2015-01-17T09:41:11Z</time>
      </trkpt>
      <trkpt lat="42.89708" lon="0.10502">
        <ele>1510.0505552736</ele>
        <time>2015-01-17T09:41:17Z</time>
      </trkpt>
      <trkpt lat="42.89705" lon="0.10502">
        <ele>1511.6973007541</ele>
        <time>2015-01-17T09:41:21Z</time>
      </trkpt>
      <trkpt lat="42.89702" lon="0.10504">
        <ele>1511.6973007541</ele>
        <time>2015-01-17T09:41:26Z</time>
      </trkpt>
      <trkpt lat="42.89696" lon="0.10502">
        <ele>1513.2498477235</ele>
        <time>2015-01-17T09:41:32Z</time>
      </trkpt>
      <trkpt lat="42.89693" lon="0.10498">
        <ele>1513.2498477235</ele>
        <time>2015-01-17T09:41:36Z</time>
      </trkpt>
      <trkpt lat="42.89692" lon="0.10498">
        <ele>1513.2498477235</ele>
        <time>2015-01-17T09:41:40Z</time>
      </trkpt>
      <trkpt lat="42.89689" lon="0.10495">
        <ele>1514.772056006</ele>
        <time>2015-01-17T09:41:47Z</time>
      </trkpt>
      <trkpt lat="42.89687" lon="0.10494">
        <ele>1514.772056006</ele>
        <time>2015-01-17T09:41:52Z</time>
      </trkpt>
      <trkpt lat="42.89684" lon="0.10492">
        <ele>1514.772056006</ele>
        <time>2015-01-17T09:41:57Z</time>
      </trkpt>
      <trkpt lat="42.89685" lon="0.10489">
        <ele>1514.772056006</ele>
        <time>2015-01-17T09:42:01Z</time>
      </trkpt>
      <trkpt lat="42.89687" lon="0.10487">
        <ele>1516.2937353816</ele>
        <time>2015-01-17T09:42:06Z</time>
      </trkpt>
      <trkpt lat="42.89688" lon="0.10482">
        <ele>1516.2937353816</ele>
        <time>2015-01-17T09:42:11Z</time>
      </trkpt>
      <trkpt lat="42.89682" lon="0.10482">
        <ele>1517.7408343603</ele>
        <time>2015-01-17T09:42:17Z</time>
      </trkpt>
      <trkpt lat="42.8968" lon="0.10482">
        <ele>1517.7408343603</ele>
        <time>2015-01-17T09:42:21Z</time>
      </trkpt>
      <trkpt lat="42.89674" lon="0.10483">
        <ele>1517.7408343603</ele>
        <time>2015-01-17T09:42:27Z</time>
      </trkpt>
      <trkpt lat="42.89671" lon="0.10486">
        <ele>1519.277085211</ele>
        <time>2015-01-17T09:42:31Z</time>
      </trkpt>
      <trkpt lat="42.89665" lon="0.10486">
        <ele>1519.277085211</ele>
        <time>2015-01-17T09:42:37Z</time>
      </trkpt>
      <trkpt lat="42.89662" lon="0.10486">
        <ele>1520.9230531048</ele>
        <time>2015-01-17T09:42:41Z</time>
      </trkpt>
      <trkpt lat="42.89657" lon="0.10486">
        <ele>1520.9230531048</ele>
        <time>2015-01-17T09:42:47Z</time>
      </trkpt>
      <trkpt lat="42.89653" lon="0.10485">
        <ele>1522.6396547918</ele>
        <time>2015-01-17T09:42:52Z</time>
      </trkpt>
      <trkpt lat="42.8965" lon="0.10483">
        <ele>1522.6396547918</ele>
        <time>2015-01-17T09:42:57Z</time>
      </trkpt>
      <trkpt lat="42.89646" lon="0.10481">
        <ele>1522.6396547918</ele>
        <time>2015-01-17T09:43:01Z</time>
      </trkpt>
      <trkpt lat="42.8964" lon="0.10479">
        <ele>1524.5929896495</ele>
        <time>2015-01-17T09:43:07Z</time>
      </trkpt>
      <trkpt lat="42.89635" lon="0.10479">
        <ele>1524.5929896495</ele>
        <time>2015-01-17T09:43:12Z</time>
      </trkpt>
      <trkpt lat="42.8963" lon="0.10479">
        <ele>1526.4882656075</ele>
        <time>2015-01-17T09:43:17Z</time>
      </trkpt>
      <trkpt lat="42.89627" lon="0.10479">
        <ele>1526.4882656075</ele>
        <time>2015-01-17T09:43:21Z</time>
      </trkpt>
      <trkpt lat="42.89622" lon="0.10479">
        <ele>1526.4882656075</ele>
        <time>2015-01-17T09:43:26Z</time>
      </trkpt>
      <trkpt lat="42.89616" lon="0.10481">
        <ele>1528.3418962023</ele>
        <time>2015-01-17T09:43:33Z</time>
      </trkpt>
      <trkpt lat="42.89611" lon="0.10482">
        <ele>1528.3418962023</ele>
        <time>2015-01-17T09:43:37Z</time>
      </trkpt>
      <trkpt lat="42.89607" lon="0.10481">
        <ele>1530.0393163427</ele>
        <time>2015-01-17T09:43:41Z</time>
      </trkpt>
      <trkpt lat="42.89604" lon="0.10479">
        <ele>1530.0393163427</ele>
        <time>2015-01-17T09:43:46Z</time>
      </trkpt>
      <trkpt lat="42.89599" lon="0.10477">
        <ele>1530.0393163427</ele>
        <time>2015-01-17T09:43:52Z</time>
      </trkpt>
      <trkpt lat="42.89596" lon="0.10473">
        <ele>1531.8211848844</ele>
        <time>2015-01-17T09:43:57Z</time>
      </trkpt>
      <trkpt lat="42.89592" lon="0.10471">
        <ele>1531.8211848844</ele>
        <time>2015-01-17T09:44:01Z</time>
      </trkpt>
      <trkpt lat="42.89589" lon="0.10467">
        <ele>1533.5206254212</ele>
        <time>2015-01-17T09:44:06Z</time>
      </trkpt>
      <trkpt lat="42.89584" lon="0.10469">
        <ele>1533.5206254212</ele>
        <time>2015-01-17T09:44:12Z</time>
      </trkpt>
      <trkpt lat="42.8958" lon="0.10467">
        <ele>1535.1132092144</ele>
        <time>2015-01-17T09:44:17Z</time>
      </trkpt>
      <trkpt lat="42.89578" lon="0.10465">
        <ele>1535.1132092144</ele>
        <time>2015-01-17T09:44:21Z</time>
      </trkpt>
      <trkpt lat="42.89572" lon="0.10464">
        <ele>1535.1132092144</ele>
        <time>2015-01-17T09:44:27Z</time>
      </trkpt>
      <trkpt lat="42.89569" lon="0.10464">
        <ele>1536.6343192774</ele>
        <time>2015-01-17T09:44:32Z</time>
      </trkpt>
      <trkpt lat="42.89565" lon="0.10463">
        <ele>1536.6343192774</ele>
        <time>2015-01-17T09:44:37Z</time>
      </trkpt>
      <trkpt lat="42.8956" lon="0.10461">
        <ele>1538.0592944157</ele>
        <time>2015-01-17T09:44:41Z</time>
      </trkpt>
      <trkpt lat="42.89555" lon="0.10458">
        <ele>1538.0592944157</ele>
        <time>2015-01-17T09:44:46Z</time>
      </trkpt>
      <trkpt lat="42.8955" lon="0.1046">
        <ele>1539.2935162879</ele>
        <time>2015-01-17T09:44:51Z</time>
      </trkpt>
      <trkpt lat="42.89548" lon="0.10468">
        <ele>1539.2935162879</ele>
        <time>2015-01-17T09:44:57Z</time>
      </trkpt>
      <trkpt lat="42.89546" lon="0.10473">
        <ele>1540.3796588443</ele>
        <time>2015-01-17T09:45:01Z</time>
      </trkpt>
      <trkpt lat="42.89545" lon="0.1048">
        <ele>1540.3796588443</ele>
        <time>2015-01-17T09:45:06Z</time>
      </trkpt>
      <trkpt lat="42.89542" lon="0.10482">
        <ele>1540.3796588443</ele>
        <time>2015-01-17T09:45:12Z</time>
      </trkpt>
      <trkpt lat="42.8954" lon="0.10485">
        <ele>1541.3721363345</ele>
        <time>2015-01-17T09:45:17Z</time>
      </trkpt>
      <trkpt lat="42.89539" lon="0.10487">
        <ele>1541.3721363345</ele>
        <time>2015-01-17T09:45:21Z</time>
      </trkpt>
      <trkpt lat="42.89537" lon="0.10489">
        <ele>1541.3721363345</ele>
        <time>2015-01-17T09:45:26Z</time>
      </trkpt>
      <trkpt lat="42.89535" lon="0.10492">
        <ele>1541.3721363345</ele>
        <time>2015-01-17T09:45:31Z</time>
      </trkpt>
      <trkpt lat="42.89531" lon="0.10504">
        <ele>1542.1630732965</ele>
        <time>2015-01-17T09:45:36Z</time>
      </trkpt>
      <trkpt lat="42.89529" lon="0.1051">
        <ele>1542.1630732965</ele>
        <time>2015-01-17T09:45:41Z</time>
      </trkpt>
      <trkpt lat="42.89524" lon="0.1051">
        <ele>1542.8405671136</ele>
        <time>2015-01-17T09:45:48Z</time>
      </trkpt>
      <trkpt lat="42.89522" lon="0.10512">
        <ele>1542.8405671136</ele>
        <time>2015-01-17T09:45:51Z</time>
      </trkpt>
      <trkpt lat="42.89517" lon="0.10515">
        <ele>1542.8405671136</ele>
        <time>2015-01-17T09:45:56Z</time>
      </trkpt>
      <trkpt lat="42.89514" lon="0.10518">
        <ele>1543.3568307161</ele>
        <time>2015-01-17T09:46:00Z</time>
      </trkpt>
      <trkpt lat="42.89512" lon="0.10523">
        <ele>1543.3568307161</ele>
        <time>2015-01-17T09:46:06Z</time>
      </trkpt>
      <trkpt lat="42.8951" lon="0.10527">
        <ele>1543.3568307161</ele>
        <time>2015-01-17T09:46:13Z</time>
      </trkpt>
      <trkpt lat="42.89508" lon="0.10532">
        <ele>1543.7690141256</ele>
        <time>2015-01-17T09:46:16Z</time>
      </trkpt>
      <trkpt lat="42.89505" lon="0.10536">
        <ele>1543.7690141256</ele>
        <time>2015-01-17T09:46:22Z</time>
      </trkpt>
      <trkpt lat="42.89503" lon="0.10539">
        <ele>1543.7690141256</ele>
        <time>2015-01-17T09:46:26Z</time>
      </trkpt>
      <trkpt lat="42.89499" lon="0.10541">
        <ele>1544.2601925212</ele>
        <time>2015-01-17T09:46:32Z</time>
      </trkpt>
      <trkpt lat="42.89495" lon="0.10547">
        <ele>1544.2601925212</ele>
        <time>2015-01-17T09:46:37Z</time>
      </trkpt>
      <trkpt lat="42.89494" lon="0.10548">
        <ele>1544.2601925212</ele>
        <time>2015-01-17T09:46:41Z</time>
      </trkpt>
      <trkpt lat="42.89485" lon="0.10556">
        <ele>1545.2305709586</ele>
        <time>2015-01-17T09:47:06Z</time>
      </trkpt>
      <trkpt lat="42.89481" lon="0.10558">
        <ele>1545.2305709586</ele>
        <time>2015-01-17T09:47:12Z</time>
      </trkpt>
      <trkpt lat="42.89477" lon="0.10563">
        <ele>1546.1265620779</ele>
        <time>2015-01-17T09:47:17Z</time>
      </trkpt>
      <trkpt lat="42.89475" lon="0.10566">
        <ele>1546.1265620779</ele>
        <time>2015-01-17T09:47:21Z</time>
      </trkpt>
      <trkpt lat="42.89473" lon="0.10572">
        <ele>1546.1265620779</ele>
        <time>2015-01-17T09:47:26Z</time>
      </trkpt>
      <trkpt lat="42.89473" lon="0.10576">
        <ele>1547.0556275125</ele>
        <time>2015-01-17T09:47:32Z</time>
      </trkpt>
      <trkpt lat="42.89473" lon="0.10577">
        <ele>1547.0556275125</ele>
        <time>2015-01-17T09:47:37Z</time>
      </trkpt>
      <trkpt lat="42.89469" lon="0.10576">
        <ele>1547.0556275125</ele>
        <time>2015-01-17T09:47:46Z</time>
      </trkpt>
      <trkpt lat="42.89465" lon="0.10577">
        <ele>1547.9730039387</ele>
        <time>2015-01-17T09:47:52Z</time>
      </trkpt>
      <trkpt lat="42.89462" lon="0.10579">
        <ele>1547.9730039387</ele>
        <time>2015-01-17T09:47:56Z</time>
      </trkpt>
      <trkpt lat="42.89459" lon="0.10581">
        <ele>1547.9730039387</ele>
        <time>2015-01-17T09:48:01Z</time>
      </trkpt>
      <trkpt lat="42.89457" lon="0.10584">
        <ele>1548.8516673355</ele>
        <time>2015-01-17T09:48:06Z</time>
      </trkpt>
      <trkpt lat="42.89455" lon="0.10586">
        <ele>1548.8516673355</ele>
        <time>2015-01-17T09:48:12Z</time>
      </trkpt>
      <trkpt lat="42.89451" lon="0.10587">
        <ele>1548.8516673355</ele>
        <time>2015-01-17T09:48:17Z</time>
      </trkpt>
      <trkpt lat="42.89449" lon="0.10589">
        <ele>1549.7388031997</ele>
        <time>2015-01-17T09:48:21Z</time>
      </trkpt>
      <trkpt lat="42.89446" lon="0.1059">
        <ele>1549.7388031997</ele>
        <time>2015-01-17T09:48:25Z</time>
      </trkpt>
      <trkpt lat="42.89444" lon="0.10593">
        <ele>1549.7388031997</ele>
        <time>2015-01-17T09:48:32Z</time>
      </trkpt>
      <trkpt lat="42.89441" lon="0.10594">
        <ele>1549.7388031997</ele>
        <time>2015-01-17T09:48:37Z</time>
      </trkpt>
      <trkpt lat="42.89439" lon="0.10597">
        <ele>1550.8223375564</ele>
        <time>2015-01-17T09:48:41Z</time>
      </trkpt>
      <trkpt lat="42.89436" lon="0.106">
        <ele>1550.8223375564</ele>
        <time>2015-01-17T09:48:46Z</time>
      </trkpt>
      <trkpt lat="42.89433" lon="0.10604">
        <ele>1550.8223375564</ele>
        <time>2015-01-17T09:48:53Z</time>
      </trkpt>
      <trkpt lat="42.89431" lon="0.10605">
        <ele>1552.0882923109</ele>
        <time>2015-01-17T09:48:57Z</time>
      </trkpt>
      <trkpt lat="42.89429" lon="0.10606">
        <ele>1552.0882923109</ele>
        <time>2015-01-17T09:49:01Z</time>
      </trkpt>
      <trkpt lat="42.89429" lon="0.1061">
        <ele>1552.0882923109</ele>
        <time>2015-01-17T09:49:06Z</time>
      </trkpt>
      <trkpt lat="42.89427" lon="0.1061">
        <ele>1552.0882923109</ele>
        <time>2015-01-17T09:49:12Z</time>
      </trkpt>
      <trkpt lat="42.89426" lon="0.10614">
        <ele>1553.537610605</ele>
        <time>2015-01-17T09:49:17Z</time>
      </trkpt>
      <trkpt lat="42.89423" lon="0.10618">
        <ele>1553.537610605</ele>
        <time>2015-01-17T09:49:21Z</time>
      </trkpt>
      <trkpt lat="42.8942" lon="0.10621">
        <ele>1553.537610605</ele>
        <time>2015-01-17T09:49:26Z</time>
      </trkpt>
      <trkpt lat="42.89418" lon="0.10625">
        <ele>1555.0696709742</ele>
        <time>2015-01-17T09:49:30Z</time>
      </trkpt>
      <trkpt lat="42.89416" lon="0.1063">
        <ele>1555.0696709742</ele>
        <time>2015-01-17T09:49:36Z</time>
      </trkpt>
      <trkpt lat="42.89414" lon="0.10633">
        <ele>1555.0696709742</ele>
        <time>2015-01-17T09:49:41Z</time>
      </trkpt>
      <trkpt lat="42.89413" lon="0.10634">
        <ele>1555.0696709742</ele>
        <time>2015-01-17T09:49:46Z</time>
      </trkpt>
      <trkpt lat="42.8941" lon="0.10638">
        <ele>1556.7929381553</ele>
        <time>2015-01-17T09:49:52Z</time>
      </trkpt>
      <trkpt lat="42.89408" lon="0.10642">
        <ele>1556.7929381553</ele>
        <time>2015-01-17T09:49:57Z</time>
      </trkpt>
      <trkpt lat="42.89406" lon="0.10646">
        <ele>1556.7929381553</ele>
        <time>2015-01-17T09:50:01Z</time>
      </trkpt>
      <trkpt lat="42.89406" lon="0.10649">
        <ele>1558.5044757367</ele>
        <time>2015-01-17T09:50:06Z</time>
      </trkpt>
      <trkpt lat="42.89406" lon="0.10649">
        <ele>1558.5044757367</ele>
        <time>2015-01-17T09:50:11Z</time>
      </trkpt>
      <trkpt lat="42.89402" lon="0.10645">
        <ele>1558.5044757367</ele>
        <time>2015-01-17T09:50:52Z</time>
      </trkpt>
      <trkpt lat="42.89401" lon="0.10644">
        <ele>1558.5044757367</ele>
        <time>2015-01-17T09:50:57Z</time>
      </trkpt>
      <trkpt lat="42.89398" lon="0.10641">
        <ele>1560.3336048572</ele>
        <time>2015-01-17T09:51:06Z</time>
      </trkpt>
      <trkpt lat="42.89398" lon="0.1064">
        <ele>1560.3336048572</ele>
        <time>2015-01-17T09:51:12Z</time>
      </trkpt>
      <trkpt lat="42.89393" lon="0.10648">
        <ele>1560.3336048572</ele>
        <time>2015-01-17T09:56:21Z</time>
      </trkpt>
      <trkpt lat="42.89393" lon="0.10648">
        <ele>1560.3336048572</ele>
        <time>2015-01-17T09:56:26Z</time>
      </trkpt>
      <trkpt lat="42.89392" lon="0.10648">
        <ele>1563.0487406781</ele>
        <time>2015-01-17T09:56:32Z</time>
      </trkpt>
      <trkpt lat="42.89387" lon="0.10641">
        <ele>1563.0487406781</ele>
        <time>2015-01-17T09:57:43Z</time>
      </trkpt>
      <trkpt lat="42.89384" lon="0.10642">
        <ele>1565.729713392</ele>
        <time>2015-01-17T09:57:46Z</time>
      </trkpt>
      <trkpt lat="42.8938" lon="0.10642">
        <ele>1565.729713392</ele>
        <time>2015-01-17T09:57:52Z</time>
      </trkpt>
      <trkpt lat="42.89376" lon="0.10645">
        <ele>1568.1587267959</ele>
        <time>2015-01-17T09:57:57Z</time>
      </trkpt>
      <trkpt lat="42.89373" lon="0.10647">
        <ele>1568.1587267959</ele>
        <time>2015-01-17T09:58:02Z</time>
      </trkpt>
      <trkpt lat="42.89372" lon="0.10648">
        <ele>1568.1587267959</ele>
        <time>2015-01-17T09:58:07Z</time>
      </trkpt>
      <trkpt lat="42.89368" lon="0.10648">
        <ele>1568.1587267959</ele>
        <time>2015-01-17T09:58:12Z</time>
      </trkpt>
      <trkpt lat="42.89365" lon="0.10649">
        <ele>1570.4087267569</ele>
        <time>2015-01-17T09:58:16Z</time>
      </trkpt>
      <trkpt lat="42.89361" lon="0.10649">
        <ele>1570.4087267569</ele>
        <time>2015-01-17T09:58:22Z</time>
      </trkpt>
      <trkpt lat="42.89359" lon="0.10647">
        <ele>1570.4087267569</ele>
        <time>2015-01-17T09:58:26Z</time>
      </trkpt>
      <trkpt lat="42.89355" lon="0.10647">
        <ele>1572.5766604877</ele>
        <time>2015-01-17T09:58:32Z</time>
      </trkpt>
      <trkpt lat="42.89353" lon="0.10646">
        <ele>1572.5766604877</ele>
        <time>2015-01-17T09:58:36Z</time>
      </trkpt>
      <trkpt lat="42.8935" lon="0.10645">
        <ele>1572.5766604877</ele>
        <time>2015-01-17T09:58:42Z</time>
      </trkpt>
      <trkpt lat="42.89348" lon="0.10646">
        <ele>1572.5766604877</ele>
        <time>2015-01-17T09:58:46Z</time>
      </trkpt>
      <trkpt lat="42.89347" lon="0.10643">
        <ele>1574.6084322598</ele>
        <time>2015-01-17T09:58:51Z</time>
      </trkpt>
      <trkpt lat="42.89338" lon="0.10647">
        <ele>1576.5696920887</ele>
        <time>2015-01-17T09:59:17Z</time>
      </trkpt>
      <trkpt lat="42.89336" lon="0.10648">
        <ele>1576.5696920887</ele>
        <time>2015-01-17T09:59:22Z</time>
      </trkpt>
      <trkpt lat="42.89335" lon="0.10648">
        <ele>1576.5696920887</ele>
        <time>2015-01-17T09:59:26Z</time>
      </trkpt>
      <trkpt lat="42.89331" lon="0.1065">
        <ele>1576.5696920887</ele>
        <time>2015-01-17T09:59:32Z</time>
      </trkpt>
      <trkpt lat="42.89327" lon="0.10651">
        <ele>1578.4638369334</ele>
        <time>2015-01-17T09:59:37Z</time>
      </trkpt>
      <trkpt lat="42.89324" lon="0.10652">
        <ele>1578.4638369334</ele>
        <time>2015-01-17T09:59:42Z</time>
      </trkpt>
      <trkpt lat="42.8932" lon="0.10653">
        <ele>1578.4638369334</ele>
        <time>2015-01-17T09:59:46Z</time>
      </trkpt>
      <trkpt lat="42.89316" lon="0.10657">
        <ele>1580.2365903525</ele>
        <time>2015-01-17T09:59:51Z</time>
      </trkpt>
      <trkpt lat="42.89314" lon="0.10659">
        <ele>1580.2365903525</ele>
        <time>2015-01-17T09:59:57Z</time>
      </trkpt>
      <trkpt lat="42.89311" lon="0.10659">
        <ele>1580.2365903525</ele>
        <time>2015-01-17T10:00:02Z</time>
      </trkpt>
      <trkpt lat="42.89308" lon="0.10659">
        <ele>1580.2365903525</ele>
        <time>2015-01-17T10:00:05Z</time>
      </trkpt>
      <trkpt lat="42.89306" lon="0.10659">
        <ele>1582.0398697049</ele>
        <time>2015-01-17T10:00:12Z</time>
      </trkpt>
      <trkpt lat="42.89303" lon="0.10661">
        <ele>1582.0398697049</ele>
        <time>2015-01-17T10:00:17Z</time>
      </trkpt>
      <trkpt lat="42.893" lon="0.10662">
        <ele>1582.0398697049</ele>
        <time>2015-01-17T10:00:22Z</time>
      </trkpt>
      <trkpt lat="42.89297" lon="0.10662">
        <ele>1583.7837466765</ele>
        <time>2015-01-17T10:00:26Z</time>
      </trkpt>
      <trkpt lat="42.89294" lon="0.10663">
        <ele>1583.7837466765</ele>
        <time>2015-01-17T10:00:31Z</time>
      </trkpt>
      <trkpt lat="42.8929" lon="0.10663">
        <ele>1583.7837466765</ele>
        <time>2015-01-17T10:00:36Z</time>
      </trkpt>
      <trkpt lat="42.89288" lon="0.10663">
        <ele>1585.4139563149</ele>
        <time>2015-01-17T10:00:42Z</time>
      </trkpt>
      <trkpt lat="42.89287" lon="0.10664">
        <ele>1585.4139563149</ele>
        <time>2015-01-17T10:00:46Z</time>
      </trkpt>
      <trkpt lat="42.89281" lon="0.10658">
        <ele>1585.4139563149</ele>
        <time>2015-01-17T10:00:57Z</time>
      </trkpt>
      <trkpt lat="42.89278" lon="0.10659">
        <ele>1586.9959004991</ele>
        <time>2015-01-17T10:01:02Z</time>
      </trkpt>
      <trkpt lat="42.89275" lon="0.10663">
        <ele>1586.9959004991</ele>
        <time>2015-01-17T10:01:06Z</time>
      </trkpt>
      <trkpt lat="42.89273" lon="0.10669">
        <ele>1586.9959004991</ele>
        <time>2015-01-17T10:01:12Z</time>
      </trkpt>
      <trkpt lat="42.89271" lon="0.10673">
        <ele>1588.5615258471</ele>
        <time>2015-01-17T10:01:17Z</time>
      </trkpt>
      <trkpt lat="42.89269" lon="0.10673">
        <ele>1588.5615258471</ele>
        <time>2015-01-17T10:01:21Z</time>
      </trkpt>
      <trkpt lat="42.89267" lon="0.10675">
        <ele>1588.5615258471</ele>
        <time>2015-01-17T10:01:26Z</time>
      </trkpt>
      <trkpt lat="42.89264" lon="0.10677">
        <ele>1588.5615258471</ele>
        <time>2015-01-17T10:01:32Z</time>
      </trkpt>
      <trkpt lat="42.89263" lon="0.10678">
        <ele>1590.2269961998</ele>
        <time>2015-01-17T10:01:37Z</time>
      </trkpt>
      <trkpt lat="42.89259" lon="0.1068">
        <ele>1590.2269961998</ele>
        <time>2015-01-17T10:01:42Z</time>
      </trkpt>
      <trkpt lat="42.89257" lon="0.1068">
        <ele>1590.2269961998</ele>
        <time>2015-01-17T10:01:46Z</time>
      </trkpt>
      <trkpt lat="42.89254" lon="0.10682">
        <ele>1591.8546877877</ele>
        <time>2015-01-17T10:01:52Z</time>
      </trkpt>
      <trkpt lat="42.8925" lon="0.10684">
        <ele>1591.8546877877</ele>
        <time>2015-01-17T10:01:57Z</time>
      </trkpt>
      <trkpt lat="42.89248" lon="0.10685">
        <ele>1591.8546877877</ele>
        <time>2015-01-17T10:02:01Z</time>
      </trkpt>
      <trkpt lat="42.89245" lon="0.10687">
        <ele>1593.4325413245</ele>
        <time>2015-01-17T10:02:06Z</time>
      </trkpt>
      <trkpt lat="42.89241" lon="0.1069">
        <ele>1593.4325413245</ele>
        <time>2015-01-17T10:02:12Z</time>
      </trkpt>
      <trkpt lat="42.89238" lon="0.10691">
        <ele>1593.4325413245</ele>
        <time>2015-01-17T10:02:17Z</time>
      </trkpt>
      <trkpt lat="42.89235" lon="0.1069">
        <ele>1595.108093764</ele>
        <time>2015-01-17T10:02:22Z</time>
      </trkpt>
      <trkpt lat="42.89231" lon="0.1069">
        <ele>1595.108093764</ele>
        <time>2015-01-17T10:02:26Z</time>
      </trkpt>
      <trkpt lat="42.89227" lon="0.10693">
        <ele>1595.108093764</ele>
        <time>2015-01-17T10:02:32Z</time>
      </trkpt>
      <trkpt lat="42.89223" lon="0.10696">
        <ele>1596.8016261588</ele>
        <time>2015-01-17T10:02:36Z</time>
      </trkpt>
      <trkpt lat="42.89221" lon="0.10695">
        <ele>1596.8016261588</ele>
        <time>2015-01-17T10:02:42Z</time>
      </trkpt>
      <trkpt lat="42.8922" lon="0.10694">
        <ele>1596.8016261588</ele>
        <time>2015-01-17T10:02:46Z</time>
      </trkpt>
      <trkpt lat="42.89216" lon="0.10695">
        <ele>1596.8016261588</ele>
        <time>2015-01-17T10:02:52Z</time>
      </trkpt>
      <trkpt lat="42.89212" lon="0.10692">
        <ele>1598.5257350492</ele>
        <time>2015-01-17T10:02:57Z</time>
      </trkpt>
      <trkpt lat="42.89209" lon="0.10695">
        <ele>1598.5257350492</ele>
        <time>2015-01-17T10:03:02Z</time>
      </trkpt>
      <trkpt lat="42.89206" lon="0.10694">
        <ele>1598.5257350492</ele>
        <time>2015-01-17T10:03:06Z</time>
      </trkpt>
      <trkpt lat="42.89205" lon="0.10694">
        <ele>1598.5257350492</ele>
        <time>2015-01-17T10:03:12Z</time>
      </trkpt>
      <trkpt lat="42.89202" lon="0.10695">
        <ele>1600.9261453598</ele>
        <time>2015-01-17T10:03:42Z</time>
      </trkpt>
      <trkpt lat="42.89202" lon="0.10697">
        <ele>1600.9261453598</ele>
        <time>2015-01-17T10:03:46Z</time>
      </trkpt>
      <trkpt lat="42.89196" lon="0.10705">
        <ele>1603.8210622836</ele>
        <time>2015-01-17T10:04:26Z</time>
      </trkpt>
      <trkpt lat="42.89196" lon="0.10705">
        <ele>1603.8210622836</ele>
        <time>2015-01-17T10:04:31Z</time>
      </trkpt>
      <trkpt lat="42.89194" lon="0.10712">
        <ele>1603.8210622836</ele>
        <time>2015-01-17T10:05:17Z</time>
      </trkpt>
      <trkpt lat="42.89191" lon="0.10715">
        <ele>1606.5507225391</ele>
        <time>2015-01-17T10:05:22Z</time>
      </trkpt>
      <trkpt lat="42.89188" lon="0.10718">
        <ele>1606.5507225391</ele>
        <time>2015-01-17T10:05:26Z</time>
      </trkpt>
      <trkpt lat="42.89185" lon="0.1072">
        <ele>1606.5507225391</ele>
        <time>2015-01-17T10:05:32Z</time>
      </trkpt>
      <trkpt lat="42.89183" lon="0.10721">
        <ele>1609.0663864066</ele>
        <time>2015-01-17T10:05:37Z</time>
      </trkpt>
      <trkpt lat="42.89181" lon="0.1072">
        <ele>1609.0663864066</ele>
        <time>2015-01-17T10:05:41Z</time>
      </trkpt>
      <trkpt lat="42.8918" lon="0.10721">
        <ele>1609.0663864066</ele>
        <time>2015-01-17T10:05:46Z</time>
      </trkpt>
      <trkpt lat="42.89175" lon="0.10721">
        <ele>1609.0663864066</ele>
        <time>2015-01-17T10:05:52Z</time>
      </trkpt>
      <trkpt lat="42.89171" lon="0.10722">
        <ele>1611.4532464481</ele>
        <time>2015-01-17T10:05:57Z</time>
      </trkpt>
      <trkpt lat="42.89167" lon="0.1072">
        <ele>1611.4532464481</ele>
        <time>2015-01-17T10:06:03Z</time>
      </trkpt>
      <trkpt lat="42.89166" lon="0.10719">
        <ele>1611.4532464481</ele>
        <time>2015-01-17T10:06:06Z</time>
      </trkpt>
      <trkpt lat="42.89163" lon="0.10717">
        <ele>1613.6033061992</ele>
        <time>2015-01-17T10:06:12Z</time>
      </trkpt>
      <trkpt lat="42.89159" lon="0.10715">
        <ele>1613.6033061992</ele>
        <time>2015-01-17T10:06:17Z</time>
      </trkpt>
      <trkpt lat="42.89156" lon="0.10717">
        <ele>1613.6033061992</ele>
        <time>2015-01-17T10:06:22Z</time>
      </trkpt>
      <trkpt lat="42.89154" lon="0.10717">
        <ele>1615.6045700551</ele>
        <time>2015-01-17T10:06:26Z</time>
      </trkpt>
      <trkpt lat="42.89151" lon="0.10717">
        <ele>1615.6045700551</ele>
        <time>2015-01-17T10:06:32Z</time>
      </trkpt>
      <trkpt lat="42.89146" lon="0.10719">
        <ele>1615.6045700551</ele>
        <time>2015-01-17T10:06:37Z</time>
      </trkpt>
      <trkpt lat="42.89142" lon="0.10722">
        <ele>1617.4958187295</ele>
        <time>2015-01-17T10:06:42Z</time>
      </trkpt>
      <trkpt lat="42.89139" lon="0.10722">
        <ele>1617.4958187295</ele>
        <time>2015-01-17T10:06:47Z</time>
      </trkpt>
      <trkpt lat="42.89134" lon="0.10724">
        <ele>1617.4958187295</ele>
        <time>2015-01-17T10:06:52Z</time>
      </trkpt>
      <trkpt lat="42.8913" lon="0.10726">
        <ele>1619.2989381117</ele>
        <time>2015-01-17T10:06:57Z</time>
      </trkpt>
      <trkpt lat="42.89127" lon="0.10728">
        <ele>1619.2989381117</ele>
        <time>2015-01-17T10:07:02Z</time>
      </trkpt>
      <trkpt lat="42.89123" lon="0.10729">
        <ele>1619.2989381117</ele>
        <time>2015-01-17T10:07:06Z</time>
      </trkpt>
      <trkpt lat="42.8912" lon="0.10729">
        <ele>1620.9480399981</ele>
        <time>2015-01-17T10:07:13Z</time>
      </trkpt>
      <trkpt lat="42.89114" lon="0.10731">
        <ele>1620.9480399981</ele>
        <time>2015-01-17T10:07:16Z</time>
      </trkpt>
      <trkpt lat="42.89108" lon="0.1073">
        <ele>1622.4402042123</ele>
        <time>2015-01-17T10:07:22Z</time>
      </trkpt>
      <trkpt lat="42.89106" lon="0.10727">
        <ele>1622.4402042123</ele>
        <time>2015-01-17T10:07:26Z</time>
      </trkpt>
      <trkpt lat="42.89103" lon="0.10727">
        <ele>1622.4402042123</ele>
        <time>2015-01-17T10:07:31Z</time>
      </trkpt>
      <trkpt lat="42.89097" lon="0.10728">
        <ele>1623.8885028385</ele>
        <time>2015-01-17T10:07:37Z</time>
      </trkpt>
      <trkpt lat="42.89095" lon="0.10727">
        <ele>1623.8885028385</ele>
        <time>2015-01-17T10:07:41Z</time>
      </trkpt>
      <trkpt lat="42.8909" lon="0.10726">
        <ele>1623.8885028385</ele>
        <time>2015-01-17T10:07:45Z</time>
      </trkpt>
      <trkpt lat="42.89087" lon="0.10721">
        <ele>1625.2393413943</ele>
        <time>2015-01-17T10:07:51Z</time>
      </trkpt>
      <trkpt lat="42.89084" lon="0.10721">
        <ele>1625.2393413943</ele>
        <time>2015-01-17T10:07:57Z</time>
      </trkpt>
      <trkpt lat="42.89081" lon="0.10724">
        <ele>1625.2393413943</ele>
        <time>2015-01-17T10:08:02Z</time>
      </trkpt>
      <trkpt lat="42.89077" lon="0.10733">
        <ele>1626.6739542938</ele>
        <time>2015-01-17T10:08:06Z</time>
      </trkpt>
      <trkpt lat="42.89073" lon="0.10738">
        <ele>1626.6739542938</ele>
        <time>2015-01-17T10:08:12Z</time>
      </trkpt>
      <trkpt lat="42.8907" lon="0.1074">
        <ele>1628.0574182124</ele>
        <time>2015-01-17T10:08:17Z</time>
      </trkpt>
      <trkpt lat="42.89067" lon="0.10743">
        <ele>1628.0574182124</ele>
        <time>2015-01-17T10:08:22Z</time>
      </trkpt>
      <trkpt lat="42.89064" lon="0.10746">
        <ele>1628.0574182124</ele>
        <time>2015-01-17T10:08:26Z</time>
      </trkpt>
      <trkpt lat="42.89061" lon="0.10747">
        <ele>1629.409003641</ele>
        <time>2015-01-17T10:08:31Z</time>
      </trkpt>
      <trkpt lat="42.89057" lon="0.10749">
        <ele>1629.409003641</ele>
        <time>2015-01-17T10:08:36Z</time>
      </trkpt>
      <trkpt lat="42.89054" lon="0.1075">
        <ele>1629.409003641</ele>
        <time>2015-01-17T10:08:41Z</time>
      </trkpt>
      <trkpt lat="42.89048" lon="0.10752">
        <ele>1630.8331434024</ele>
        <time>2015-01-17T10:08:46Z</time>
      </trkpt>
      <trkpt lat="42.89043" lon="0.10751">
        <ele>1630.8331434024</ele>
        <time>2015-01-17T10:08:52Z</time>
      </trkpt>
      <trkpt lat="42.89039" lon="0.10751">
        <ele>1632.2534723279</ele>
        <time>2015-01-17T10:08:57Z</time>
      </trkpt>
      <trkpt lat="42.89035" lon="0.10753">
        <ele>1632.2534723279</ele>
        <time>2015-01-17T10:09:02Z</time>
      </trkpt>
      <trkpt lat="42.89031" lon="0.10753">
        <ele>1632.2534723279</ele>
        <time>2015-01-17T10:09:06Z</time>
      </trkpt>
      <trkpt lat="42.89026" lon="0.10754">
        <ele>1633.7145479574</ele>
        <time>2015-01-17T10:09:12Z</time>
      </trkpt>
      <trkpt lat="42.89022" lon="0.10756">
        <ele>1633.7145479574</ele>
        <time>2015-01-17T10:09:17Z</time>
      </trkpt>
      <trkpt lat="42.89016" lon="0.10758">
        <ele>1635.1134318484</ele>
        <time>2015-01-17T10:09:22Z</time>
      </trkpt>
      <trkpt lat="42.89012" lon="0.10757">
        <ele>1635.1134318484</ele>
        <time>2015-01-17T10:09:26Z</time>
      </trkpt>
      <trkpt lat="42.89009" lon="0.10756">
        <ele>1635.1134318484</ele>
        <time>2015-01-17T10:09:32Z</time>
      </trkpt>
      <trkpt lat="42.89005" lon="0.10755">
        <ele>1636.6575661703</ele>
        <time>2015-01-17T10:09:37Z</time>
      </trkpt>
      <trkpt lat="42.89001" lon="0.10753">
        <ele>1636.6575661703</ele>
        <time>2015-01-17T10:09:42Z</time>
      </trkpt>
      <trkpt lat="42.88997" lon="0.10753">
        <ele>1636.6575661703</ele>
        <time>2015-01-17T10:09:46Z</time>
      </trkpt>
      <trkpt lat="42.88992" lon="0.10754">
        <ele>1638.308162993</ele>
        <time>2015-01-17T10:09:52Z</time>
      </trkpt>
      <trkpt lat="42.88987" lon="0.10754">
        <ele>1638.308162993</ele>
        <time>2015-01-17T10:09:57Z</time>
      </trkpt>
      <trkpt lat="42.88982" lon="0.10755">
        <ele>1639.9569257397</ele>
        <time>2015-01-17T10:10:01Z</time>
      </trkpt>
      <trkpt lat="42.88977" lon="0.10756">
        <ele>1639.9569257397</ele>
        <time>2015-01-17T10:10:06Z</time>
      </trkpt>
      <trkpt lat="42.88973" lon="0.10758">
        <ele>1641.5755723764</ele>
        <time>2015-01-17T10:10:12Z</time>
      </trkpt>
      <trkpt lat="42.88968" lon="0.10758">
        <ele>1641.5755723764</ele>
        <time>2015-01-17T10:10:16Z</time>
      </trkpt>
      <trkpt lat="42.88965" lon="0.10752">
        <ele>1643.2532698164</ele>
        <time>2015-01-17T10:10:22Z</time>
      </trkpt>
      <trkpt lat="42.88963" lon="0.10751">
        <ele>1643.2532698164</ele>
        <time>2015-01-17T10:10:26Z</time>
      </trkpt>
      <trkpt lat="42.88957" lon="0.10753">
        <ele>1643.2532698164</ele>
        <time>2015-01-17T10:10:33Z</time>
      </trkpt>
      <trkpt lat="42.88955" lon="0.10752">
        <ele>1645.1589320075</ele>
        <time>2015-01-17T10:10:37Z</time>
      </trkpt>
      <trkpt lat="42.88951" lon="0.10752">
        <ele>1645.1589320075</ele>
        <time>2015-01-17T10:10:41Z</time>
      </trkpt>
      <trkpt lat="42.88951" lon="0.10752">
        <ele>1645.1589320075</ele>
        <time>2015-01-17T10:10:46Z</time>
      </trkpt>
      <trkpt lat="42.88949" lon="0.10754">
        <ele>1645.1589320075</ele>
        <time>2015-01-17T10:10:57Z</time>
      </trkpt>
      <trkpt lat="42.88947" lon="0.10749">
        <ele>1647.289893814</ele>
        <time>2015-01-17T10:11:04Z</time>
      </trkpt>
      <trkpt lat="42.88946" lon="0.1075">
        <ele>1647.289893814</ele>
        <time>2015-01-17T10:11:06Z</time>
      </trkpt>
      <trkpt lat="42.88937" lon="0.10754">
        <ele>1649.5565821504</ele>
        <time>2015-01-17T10:11:41Z</time>
      </trkpt>
      <trkpt lat="42.88941" lon="0.10759">
        <ele>1649.5565821504</ele>
        <time>2015-01-17T10:13:10Z</time>
      </trkpt>
      <trkpt lat="42.88941" lon="0.10755">
        <ele>1649.5565821504</ele>
        <time>2015-01-17T10:13:15Z</time>
      </trkpt>
      <trkpt lat="42.88932" lon="0.10759">
        <ele>1652.0197368228</ele>
        <time>2015-01-17T10:13:50Z</time>
      </trkpt>
      <trkpt lat="42.88927" lon="0.10759">
        <ele>1652.0197368228</ele>
        <time>2015-01-17T10:13:55Z</time>
      </trkpt>
      <trkpt lat="42.88923" lon="0.10761">
        <ele>1654.1586334906</ele>
        <time>2015-01-17T10:14:00Z</time>
      </trkpt>
      <trkpt lat="42.88919" lon="0.10765">
        <ele>1654.1586334906</ele>
        <time>2015-01-17T10:14:05Z</time>
      </trkpt>
      <trkpt lat="42.88914" lon="0.10768">
        <ele>1656.0249376832</ele>
        <time>2015-01-17T10:14:10Z</time>
      </trkpt>
      <trkpt lat="42.88908" lon="0.10775">
        <ele>1656.0249376832</ele>
        <time>2015-01-17T10:14:15Z</time>
      </trkpt>
      <trkpt lat="42.88902" lon="0.1078">
        <ele>1657.6384695322</ele>
        <time>2015-01-17T10:14:20Z</time>
      </trkpt>
      <trkpt lat="42.88898" lon="0.10784">
        <ele>1657.6384695322</ele>
        <time>2015-01-17T10:14:25Z</time>
      </trkpt>
      <trkpt lat="42.88895" lon="0.10786">
        <ele>1657.6384695322</ele>
        <time>2015-01-17T10:14:30Z</time>
      </trkpt>
      <trkpt lat="42.88891" lon="0.10789">
        <ele>1658.9894878333</ele>
        <time>2015-01-17T10:14:36Z</time>
      </trkpt>
      <trkpt lat="42.88889" lon="0.1079">
        <ele>1658.9894878333</ele>
        <time>2015-01-17T10:14:41Z</time>
      </trkpt>
      <trkpt lat="42.88885" lon="0.10791">
        <ele>1658.9894878333</ele>
        <time>2015-01-17T10:14:46Z</time>
      </trkpt>
      <trkpt lat="42.88883" lon="0.10793">
        <ele>1660.0841206794</ele>
        <time>2015-01-17T10:14:52Z</time>
      </trkpt>
      <trkpt lat="42.8888" lon="0.10792">
        <ele>1660.0841206794</ele>
        <time>2015-01-17T10:14:57Z</time>
      </trkpt>
      <trkpt lat="42.88877" lon="0.10793">
        <ele>1660.0841206794</ele>
        <time>2015-01-17T10:15:02Z</time>
      </trkpt>
      <trkpt lat="42.88873" lon="0.10791">
        <ele>1660.9864119763</ele>
        <time>2015-01-17T10:15:06Z</time>
      </trkpt>
      <trkpt lat="42.88869" lon="0.10793">
        <ele>1660.9864119763</ele>
        <time>2015-01-17T10:15:10Z</time>
      </trkpt>
      <trkpt lat="42.88864" lon="0.10795">
        <ele>1660.9864119763</ele>
        <time>2015-01-17T10:15:17Z</time>
      </trkpt>
      <trkpt lat="42.8886" lon="0.10798">
        <ele>1661.7130025838</ele>
        <time>2015-01-17T10:15:22Z</time>
      </trkpt>
      <trkpt lat="42.88854" lon="0.10801">
        <ele>1661.7130025838</ele>
        <time>2015-01-17T10:15:26Z</time>
      </trkpt>
      <trkpt lat="42.8885" lon="0.10802">
        <ele>1662.294203873</ele>
        <time>2015-01-17T10:15:32Z</time>
      </trkpt>
      <trkpt lat="42.88846" lon="0.10803">
        <ele>1662.294203873</ele>
        <time>2015-01-17T10:15:36Z</time>
      </trkpt>
      <trkpt lat="42.88843" lon="0.10805">
        <ele>1662.294203873</ele>
        <time>2015-01-17T10:15:41Z</time>
      </trkpt>
      <trkpt lat="42.88838" lon="0.10808">
        <ele>1662.7440779764</ele>
        <time>2015-01-17T10:15:46Z</time>
      </trkpt>
      <trkpt lat="42.88834" lon="0.1081">
        <ele>1662.7440779764</ele>
        <time>2015-01-17T10:15:51Z</time>
      </trkpt>
      <trkpt lat="42.88831" lon="0.10813">
        <ele>1662.7440779764</ele>
        <time>2015-01-17T10:15:57Z</time>
      </trkpt>
      <trkpt lat="42.8883" lon="0.10815">
        <ele>1663.0039385682</ele>
        <time>2015-01-17T10:16:01Z</time>
      </trkpt>
      <trkpt lat="42.88826" lon="0.10817">
        <ele>1663.0039385682</ele>
        <time>2015-01-17T10:16:06Z</time>
      </trkpt>
      <trkpt lat="42.88822" lon="0.10818">
        <ele>1663.0039385682</ele>
        <time>2015-01-17T10:16:11Z</time>
      </trkpt>
      <trkpt lat="42.88819" lon="0.10815">
        <ele>1663.149606996</ele>
        <time>2015-01-17T10:16:17Z</time>
      </trkpt>
      <trkpt lat="42.88814" lon="0.10818">
        <ele>1663.149606996</ele>
        <time>2015-01-17T10:16:22Z</time>
      </trkpt>
      <trkpt lat="42.88811" lon="0.10821">
        <ele>1663.149606996</ele>
        <time>2015-01-17T10:16:26Z</time>
      </trkpt>
      <trkpt lat="42.88808" lon="0.10821">
        <ele>1663.2227858396</ele>
        <time>2015-01-17T10:16:31Z</time>
      </trkpt>
      <trkpt lat="42.88804" lon="0.10824">
        <ele>1663.2227858396</ele>
        <time>2015-01-17T10:16:37Z</time>
      </trkpt>
      <trkpt lat="42.88799" lon="0.10824">
        <ele>1663.2227858396</ele>
        <time>2015-01-17T10:16:41Z</time>
      </trkpt>
      <trkpt lat="42.88797" lon="0.10826">
        <ele>1663.2478498898</ele>
        <time>2015-01-17T10:16:46Z</time>
      </trkpt>
      <trkpt lat="42.88793" lon="0.10827">
        <ele>1663.2478498898</ele>
        <time>2015-01-17T10:16:51Z</time>
      </trkpt>
      <trkpt lat="42.8879" lon="0.10827">
        <ele>1663.2478498898</ele>
        <time>2015-01-17T10:16:57Z</time>
      </trkpt>
      <trkpt lat="42.88784" lon="0.1083">
        <ele>1663.1898076659</ele>
        <time>2015-01-17T10:17:02Z</time>
      </trkpt>
      <trkpt lat="42.8878" lon="0.10833">
        <ele>1663.1898076659</ele>
        <time>2015-01-17T10:17:06Z</time>
      </trkpt>
      <trkpt lat="42.88777" lon="0.10833">
        <ele>1663.1898076659</ele>
        <time>2015-01-17T10:17:12Z</time>
      </trkpt>
      <trkpt lat="42.88773" lon="0.10835">
        <ele>1663.1460963803</ele>
        <time>2015-01-17T10:17:17Z</time>
      </trkpt>
      <trkpt lat="42.88768" lon="0.10837">
        <ele>1663.1460963803</ele>
        <time>2015-01-17T10:17:21Z</time>
      </trkpt>
      <trkpt lat="42.88764" lon="0.10837">
        <ele>1663.0483488152</ele>
        <time>2015-01-17T10:17:26Z</time>
      </trkpt>
      <trkpt lat="42.8876" lon="0.10837">
        <ele>1663.0483488152</ele>
        <time>2015-01-17T10:17:31Z</time>
      </trkpt>
      <trkpt lat="42.88756" lon="0.10836">
        <ele>1663.0483488152</ele>
        <time>2015-01-17T10:17:36Z</time>
      </trkpt>
      <trkpt lat="42.8875" lon="0.10837">
        <ele>1662.9485687326</ele>
        <time>2015-01-17T10:17:42Z</time>
      </trkpt>
      <trkpt lat="42.88746" lon="0.10837">
        <ele>1662.9485687326</ele>
        <time>2015-01-17T10:17:46Z</time>
      </trkpt>
      <trkpt lat="42.88743" lon="0.10838">
        <ele>1662.9485687326</ele>
        <time>2015-01-17T10:17:51Z</time>
      </trkpt>
      <trkpt lat="42.88739" lon="0.10839">
        <ele>1662.8516126787</ele>
        <time>2015-01-17T10:17:56Z</time>
      </trkpt>
      <trkpt lat="42.88735" lon="0.10837">
        <ele>1662.8516126787</ele>
        <time>2015-01-17T10:18:01Z</time>
      </trkpt>
      <trkpt lat="42.88733" lon="0.10837">
        <ele>1662.8516126787</ele>
        <time>2015-01-17T10:18:06Z</time>
      </trkpt>
      <trkpt lat="42.8873" lon="0.10836">
        <ele>1662.8516126787</ele>
        <time>2015-01-17T10:18:12Z</time>
      </trkpt>
      <trkpt lat="42.88728" lon="0.10834">
        <ele>1662.8339223839</ele>
        <time>2015-01-17T10:18:17Z</time>
      </trkpt>
      <trkpt lat="42.88726" lon="0.10832">
        <ele>1662.8339223839</ele>
        <time>2015-01-17T10:18:22Z</time>
      </trkpt>
      <trkpt lat="42.88721" lon="0.10835">
        <ele>1662.8339223839</ele>
        <time>2015-01-17T10:18:26Z</time>
      </trkpt>
      <trkpt lat="42.88717" lon="0.10837">
        <ele>1662.8218792373</ele>
        <time>2015-01-17T10:18:31Z</time>
      </trkpt>
      <trkpt lat="42.88713" lon="0.10838">
        <ele>1662.8218792373</ele>
        <time>2015-01-17T10:18:37Z</time>
      </trkpt>
      <trkpt lat="42.88711" lon="0.10839">
        <ele>1662.8218792373</ele>
        <time>2015-01-17T10:18:42Z</time>
      </trkpt>
      <trkpt lat="42.88709" lon="0.1084">
        <ele>1662.8218792373</ele>
        <time>2015-01-17T10:18:46Z</time>
      </trkpt>
      <trkpt lat="42.88704" lon="0.10844">
        <ele>1662.9633078955</ele>
        <time>2015-01-17T10:18:52Z</time>
      </trkpt>
      <trkpt lat="42.88701" lon="0.10845">
        <ele>1662.9633078955</ele>
        <time>2015-01-17T10:18:56Z</time>
      </trkpt>
      <trkpt lat="42.88699" lon="0.10849">
        <ele>1662.9633078955</ele>
        <time>2015-01-17T10:19:02Z</time>
      </trkpt>
      <trkpt lat="42.88699" lon="0.10849">
        <ele>1662.9633078955</ele>
        <time>2015-01-17T10:19:06Z</time>
      </trkpt>
      <trkpt lat="42.88697" lon="0.1085">
        <ele>1662.9633078955</ele>
        <time>2015-01-17T10:19:11Z</time>
      </trkpt>
      <trkpt lat="42.88694" lon="0.10854">
        <ele>1663.3081579072</ele>
        <time>2015-01-17T10:19:17Z</time>
      </trkpt>
      <trkpt lat="42.88693" lon="0.10856">
        <ele>1663.3081579072</ele>
        <time>2015-01-17T10:19:22Z</time>
      </trkpt>
      <trkpt lat="42.88692" lon="0.10862">
        <ele>1663.3081579072</ele>
        <time>2015-01-17T10:19:31Z</time>
      </trkpt>
      <trkpt lat="42.88691" lon="0.10864">
        <ele>1663.3081579072</ele>
        <time>2015-01-17T10:19:37Z</time>
      </trkpt>
      <trkpt lat="42.88689" lon="0.10865">
        <ele>1663.8299632354</ele>
        <time>2015-01-17T10:19:42Z</time>
      </trkpt>
      <trkpt lat="42.88687" lon="0.10866">
        <ele>1663.8299632354</ele>
        <time>2015-01-17T10:19:46Z</time>
      </trkpt>
      <trkpt lat="42.88685" lon="0.10867">
        <ele>1663.8299632354</ele>
        <time>2015-01-17T10:19:52Z</time>
      </trkpt>
      <trkpt lat="42.88682" lon="0.10868">
        <ele>1663.8299632354</ele>
        <time>2015-01-17T10:19:57Z</time>
      </trkpt>
      <trkpt lat="42.88681" lon="0.10869">
        <ele>1663.8299632354</ele>
        <time>2015-01-17T10:20:02Z</time>
      </trkpt>
      <trkpt lat="42.88677" lon="0.10872">
        <ele>1664.5179970315</ele>
        <time>2015-01-17T10:20:07Z</time>
      </trkpt>
      <trkpt lat="42.88674" lon="0.10873">
        <ele>1664.5179970315</ele>
        <time>2015-01-17T10:20:11Z</time>
      </trkpt>
      <trkpt lat="42.88674" lon="0.10874">
        <ele>1664.5179970315</ele>
        <time>2015-01-17T10:20:17Z</time>
      </trkpt>
      <trkpt lat="42.88671" lon="0.10876">
        <ele>1664.5179970315</ele>
        <time>2015-01-17T10:20:21Z</time>
      </trkpt>
      <trkpt lat="42.88668" lon="0.10879">
        <ele>1665.2896808419</ele>
        <time>2015-01-17T10:20:27Z</time>
      </trkpt>
      <trkpt lat="42.88664" lon="0.10879">
        <ele>1665.2896808419</ele>
        <time>2015-01-17T10:20:31Z</time>
      </trkpt>
      <trkpt lat="42.88662" lon="0.10878">
        <ele>1665.2896808419</ele>
        <time>2015-01-17T10:20:37Z</time>
      </trkpt>
      <trkpt lat="42.88659" lon="0.10878">
        <ele>1665.2896808419</ele>
        <time>2015-01-17T10:20:46Z</time>
      </trkpt>
      <trkpt lat="42.88658" lon="0.10881">
        <ele>1666.356376292</ele>
        <time>2015-01-17T10:20:51Z</time>
      </trkpt>
      <trkpt lat="42.88655" lon="0.10882">
        <ele>1666.356376292</ele>
        <time>2015-01-17T10:20:57Z</time>
      </trkpt>
      <trkpt lat="42.88653" lon="0.10885">
        <ele>1666.356376292</ele>
        <time>2015-01-17T10:21:02Z</time>
      </trkpt>
      <trkpt lat="42.8865" lon="0.10888">
        <ele>1667.5382931535</ele>
        <time>2015-01-17T10:21:06Z</time>
      </trkpt>
      <trkpt lat="42.88645" lon="0.10889">
        <ele>1667.5382931535</ele>
        <time>2015-01-17T10:21:11Z</time>
      </trkpt>
      <trkpt lat="42.88641" lon="0.10891">
        <ele>1668.7548897244</ele>
        <time>2015-01-17T10:21:16Z</time>
      </trkpt>
      <trkpt lat="42.88638" lon="0.10892">
        <ele>1668.7548897244</ele>
        <time>2015-01-17T10:21:22Z</time>
      </trkpt>
      <trkpt lat="42.88635" lon="0.10893">
        <ele>1668.7548897244</ele>
        <time>2015-01-17T10:21:26Z</time>
      </trkpt>
      <trkpt lat="42.88633" lon="0.10894">
        <ele>1668.7548897244</ele>
        <time>2015-01-17T10:21:31Z</time>
      </trkpt>
      <trkpt lat="42.88628" lon="0.10895">
        <ele>1670.1475156397</ele>
        <time>2015-01-17T10:21:37Z</time>
      </trkpt>
      <trkpt lat="42.88626" lon="0.10897">
        <ele>1670.1475156397</ele>
        <time>2015-01-17T10:21:42Z</time>
      </trkpt>
      <trkpt lat="42.88622" lon="0.10897">
        <ele>1670.1475156397</ele>
        <time>2015-01-17T10:21:46Z</time>
      </trkpt>
      <trkpt lat="42.88619" lon="0.10898">
        <ele>1671.6015676651</ele>
        <time>2015-01-17T10:21:51Z</time>
      </trkpt>
      <trkpt lat="42.88617" lon="0.10897">
        <ele>1671.6015676651</ele>
        <time>2015-01-17T10:21:57Z</time>
      </trkpt>
      <trkpt lat="42.88613" lon="0.10899">
        <ele>1671.6015676651</ele>
        <time>2015-01-17T10:22:02Z</time>
      </trkpt>
      <trkpt lat="42.8861" lon="0.10902">
        <ele>1673.1114889316</ele>
        <time>2015-01-17T10:22:06Z</time>
      </trkpt>
      <trkpt lat="42.88608" lon="0.10901">
        <ele>1673.1114889316</ele>
        <time>2015-01-17T10:22:11Z</time>
      </trkpt>
      <trkpt lat="42.88604" lon="0.10903">
        <ele>1673.1114889316</ele>
        <time>2015-01-17T10:22:18Z</time>
      </trkpt>
      <trkpt lat="42.88602" lon="0.10903">
        <ele>1673.1114889316</ele>
        <time>2015-01-17T10:22:21Z</time>
      </trkpt>
      <trkpt lat="42.88599" lon="0.10905">
        <ele>1674.758371998</ele>
        <time>2015-01-17T10:22:26Z</time>
      </trkpt>
      <trkpt lat="42.88598" lon="0.10905">
        <ele>1674.758371998</ele>
        <time>2015-01-17T10:22:31Z</time>
      </trkpt>
      <trkpt lat="42.88595" lon="0.10906">
        <ele>1674.758371998</ele>
        <time>2015-01-17T10:22:36Z</time>
      </trkpt>
      <trkpt lat="42.88589" lon="0.10909">
        <ele>1676.4583863575</ele>
        <time>2015-01-17T10:22:42Z</time>
      </trkpt>
      <trkpt lat="42.88587" lon="0.10911">
        <ele>1676.4583863575</ele>
        <time>2015-01-17T10:22:46Z</time>
      </trkpt>
      <trkpt lat="42.88582" lon="0.10914">
        <ele>1676.4583863575</ele>
        <time>2015-01-17T10:22:51Z</time>
      </trkpt>
      <trkpt lat="42.8858" lon="0.10915">
        <ele>1678.1913050354</ele>
        <time>2015-01-17T10:22:57Z</time>
      </trkpt>
      <trkpt lat="42.88576" lon="0.10918">
        <ele>1678.1913050354</ele>
        <time>2015-01-17T10:23:01Z</time>
      </trkpt>
      <trkpt lat="42.88571" lon="0.1092">
        <ele>1679.895020471</ele>
        <time>2015-01-17T10:23:06Z</time>
      </trkpt>
      <trkpt lat="42.88567" lon="0.10922">
        <ele>1679.895020471</ele>
        <time>2015-01-17T10:23:11Z</time>
      </trkpt>
      <trkpt lat="42.88562" lon="0.10927">
        <ele>1681.6417378903</ele>
        <time>2015-01-17T10:23:17Z</time>
      </trkpt>
      <trkpt lat="42.8856" lon="0.10929">
        <ele>1681.6417378903</ele>
        <time>2015-01-17T10:23:22Z</time>
      </trkpt>
      <trkpt lat="42.88557" lon="0.10932">
        <ele>1681.6417378903</ele>
        <time>2015-01-17T10:23:26Z</time>
      </trkpt>
      <trkpt lat="42.88556" lon="0.10933">
        <ele>1681.6417378903</ele>
        <time>2015-01-17T10:23:31Z</time>
      </trkpt>
      <trkpt lat="42.88554" lon="0.10937">
        <ele>1683.5558595089</ele>
        <time>2015-01-17T10:23:37Z</time>
      </trkpt>
      <trkpt lat="42.8855" lon="0.1094">
        <ele>1683.5558595089</ele>
        <time>2015-01-17T10:23:42Z</time>
      </trkpt>
      <trkpt lat="42.88548" lon="0.10943">
        <ele>1683.5558595089</ele>
        <time>2015-01-17T10:23:46Z</time>
      </trkpt>
      <trkpt lat="42.88545" lon="0.10948">
        <ele>1685.4783539056</ele>
        <time>2015-01-17T10:23:50Z</time>
      </trkpt>
      <trkpt lat="42.88542" lon="0.10952">
        <ele>1685.4783539056</ele>
        <time>2015-01-17T10:23:57Z</time>
      </trkpt>
      <trkpt lat="42.88539" lon="0.10954">
        <ele>1685.4783539056</ele>
        <time>2015-01-17T10:24:01Z</time>
      </trkpt>
      <trkpt lat="42.88537" lon="0.10957">
        <ele>1687.4203652791</ele>
        <time>2015-01-17T10:24:06Z</time>
      </trkpt>
      <trkpt lat="42.88534" lon="0.1096">
        <ele>1687.4203652791</ele>
        <time>2015-01-17T10:24:11Z</time>
      </trkpt>
      <trkpt lat="42.88531" lon="0.10967">
        <ele>1689.3201113434</ele>
        <time>2015-01-17T10:24:16Z</time>
      </trkpt>
      <trkpt lat="42.88527" lon="0.10969">
        <ele>1689.3201113434</ele>
        <time>2015-01-17T10:24:22Z</time>
      </trkpt>
      <trkpt lat="42.88524" lon="0.10971">
        <ele>1689.3201113434</ele>
        <time>2015-01-17T10:24:26Z</time>
      </trkpt>
      <trkpt lat="42.88523" lon="0.10973">
        <ele>1691.2789996888</ele>
        <time>2015-01-17T10:24:31Z</time>
      </trkpt>
      <trkpt lat="42.88519" lon="0.10977">
        <ele>1691.2789996888</ele>
        <time>2015-01-17T10:24:37Z</time>
      </trkpt>
      <trkpt lat="42.88516" lon="0.1098">
        <ele>1691.2789996888</ele>
        <time>2015-01-17T10:24:42Z</time>
      </trkpt>
      <trkpt lat="42.88514" lon="0.10984">
        <ele>1693.3620183279</ele>
        <time>2015-01-17T10:24:47Z</time>
      </trkpt>
      <trkpt lat="42.88512" lon="0.10987">
        <ele>1693.3620183279</ele>
        <time>2015-01-17T10:24:50Z</time>
      </trkpt>
      <trkpt lat="42.88507" lon="0.10989">
        <ele>1693.3620183279</ele>
        <time>2015-01-17T10:24:57Z</time>
      </trkpt>
      <trkpt lat="42.88503" lon="0.10994">
        <ele>1695.5137692331</ele>
        <time>2015-01-17T10:25:02Z</time>
      </trkpt>
      <trkpt lat="42.885" lon="0.10998">
        <ele>1695.5137692331</ele>
        <time>2015-01-17T10:25:07Z</time>
      </trkpt>
      <trkpt lat="42.88498" lon="0.11">
        <ele>1695.5137692331</ele>
        <time>2015-01-17T10:25:11Z</time>
      </trkpt>
      <trkpt lat="42.88495" lon="0.11002">
        <ele>1697.7692301898</ele>
        <time>2015-01-17T10:25:18Z</time>
      </trkpt>
      <trkpt lat="42.88492" lon="0.11004">
        <ele>1697.7692301898</ele>
        <time>2015-01-17T10:25:21Z</time>
      </trkpt>
      <trkpt lat="42.88487" lon="0.11008">
        <ele>1697.7692301898</ele>
        <time>2015-01-17T10:25:27Z</time>
      </trkpt>
      <trkpt lat="42.88485" lon="0.11013">
        <ele>1700.0308580105</ele>
        <time>2015-01-17T10:25:31Z</time>
      </trkpt>
      <trkpt lat="42.8848" lon="0.11019">
        <ele>1700.0308580105</ele>
        <time>2015-01-17T10:25:37Z</time>
      </trkpt>
      <trkpt lat="42.88478" lon="0.11022">
        <ele>1702.2083041032</ele>
        <time>2015-01-17T10:25:41Z</time>
      </trkpt>
      <trkpt lat="42.88473" lon="0.11025">
        <ele>1702.2083041032</ele>
        <time>2015-01-17T10:25:47Z</time>
      </trkpt>
      <trkpt lat="42.88469" lon="0.11028">
        <ele>1704.3478458718</ele>
        <time>2015-01-17T10:25:51Z</time>
      </trkpt>
      <trkpt lat="42.88464" lon="0.11031">
        <ele>1704.3478458718</ele>
        <time>2015-01-17T10:25:57Z</time>
      </trkpt>
      <trkpt lat="42.88462" lon="0.11035">
        <ele>1704.3478458718</ele>
        <time>2015-01-17T10:26:02Z</time>
      </trkpt>
      <trkpt lat="42.8846" lon="0.11037">
        <ele>1706.5069370916</ele>
        <time>2015-01-17T10:26:07Z</time>
      </trkpt>
      <trkpt lat="42.88454" lon="0.11043">
        <ele>1706.5069370916</ele>
        <time>2015-01-17T10:26:11Z</time>
      </trkpt>
      <trkpt lat="42.88451" lon="0.11049">
        <ele>1708.5658858134</ele>
        <time>2015-01-17T10:26:17Z</time>
      </trkpt>
      <trkpt lat="42.88449" lon="0.11052">
        <ele>1708.5658858134</ele>
        <time>2015-01-17T10:26:22Z</time>
      </trkpt>
      <trkpt lat="42.88445" lon="0.11057">
        <ele>1708.5658858134</ele>
        <time>2015-01-17T10:26:26Z</time>
      </trkpt>
      <trkpt lat="42.88442" lon="0.1106">
        <ele>1710.5582515855</ele>
        <time>2015-01-17T10:26:31Z</time>
      </trkpt>
      <trkpt lat="42.88437" lon="0.11065">
        <ele>1710.5582515855</ele>
        <time>2015-01-17T10:26:37Z</time>
      </trkpt>
      <trkpt lat="42.88435" lon="0.11069">
        <ele>1712.4721517422</ele>
        <time>2015-01-17T10:26:42Z</time>
      </trkpt>
      <trkpt lat="42.88432" lon="0.11073">
        <ele>1712.4721517422</ele>
        <time>2015-01-17T10:26:47Z</time>
      </trkpt>
      <trkpt lat="42.88431" lon="0.11075">
        <ele>1712.4721517422</ele>
        <time>2015-01-17T10:26:51Z</time>
      </trkpt>
      <trkpt lat="42.88426" lon="0.11087">
        <ele>1714.3401015036</ele>
        <time>2015-01-17T10:26:56Z</time>
      </trkpt>
      <trkpt lat="42.88421" lon="0.11095">
        <ele>1714.3401015036</ele>
        <time>2015-01-17T10:27:02Z</time>
      </trkpt>
      <trkpt lat="42.88418" lon="0.111">
        <ele>1716.1347843711</ele>
        <time>2015-01-17T10:27:07Z</time>
      </trkpt>
      <trkpt lat="42.88416" lon="0.11102">
        <ele>1716.1347843711</ele>
        <time>2015-01-17T10:27:11Z</time>
      </trkpt>
      <trkpt lat="42.88411" lon="0.11108">
        <ele>1717.9320464597</ele>
        <time>2015-01-17T10:27:17Z</time>
      </trkpt>
      <trkpt lat="42.88407" lon="0.1111">
        <ele>1717.9320464597</ele>
        <time>2015-01-17T10:27:22Z</time>
      </trkpt>
      <trkpt lat="42.88402" lon="0.11114">
        <ele>1719.6581158985</ele>
        <time>2015-01-17T10:27:27Z</time>
      </trkpt>
      <trkpt lat="42.88401" lon="0.11117">
        <ele>1719.6581158985</ele>
        <time>2015-01-17T10:27:31Z</time>
      </trkpt>
      <trkpt lat="42.88398" lon="0.11122">
        <ele>1719.6581158985</ele>
        <time>2015-01-17T10:27:37Z</time>
      </trkpt>
      <trkpt lat="42.88396" lon="0.11124">
        <ele>1721.5187223238</ele>
        <time>2015-01-17T10:27:42Z</time>
      </trkpt>
      <trkpt lat="42.88393" lon="0.11129">
        <ele>1721.5187223238</ele>
        <time>2015-01-17T10:27:47Z</time>
      </trkpt>
      <trkpt lat="42.88391" lon="0.11132">
        <ele>1721.5187223238</ele>
        <time>2015-01-17T10:27:50Z</time>
      </trkpt>
      <trkpt lat="42.88387" lon="0.11136">
        <ele>1723.3294862998</ele>
        <time>2015-01-17T10:27:56Z</time>
      </trkpt>
      <trkpt lat="42.88385" lon="0.11141">
        <ele>1723.3294862998</ele>
        <time>2015-01-17T10:28:01Z</time>
      </trkpt>
      <trkpt lat="42.88383" lon="0.11146">
        <ele>1723.3294862998</ele>
        <time>2015-01-17T10:28:07Z</time>
      </trkpt>
      <trkpt lat="42.8838" lon="0.1115">
        <ele>1725.092715054</ele>
        <time>2015-01-17T10:28:11Z</time>
      </trkpt>
      <trkpt lat="42.88378" lon="0.11151">
        <ele>1725.092715054</ele>
        <time>2015-01-17T10:28:16Z</time>
      </trkpt>
      <trkpt lat="42.88372" lon="0.11158">
        <ele>1726.8251584168</ele>
        <time>2015-01-17T10:28:21Z</time>
      </trkpt>
      <trkpt lat="42.88369" lon="0.11159">
        <ele>1726.8251584168</ele>
        <time>2015-01-17T10:28:27Z</time>
      </trkpt>
      <trkpt lat="42.88364" lon="0.11161">
        <ele>1726.8251584168</ele>
        <time>2015-01-17T10:28:31Z</time>
      </trkpt>
      <trkpt lat="42.88361" lon="0.11164">
        <ele>1728.6001327801</ele>
        <time>2015-01-17T10:28:37Z</time>
      </trkpt>
      <trkpt lat="42.88358" lon="0.11167">
        <ele>1728.6001327801</ele>
        <time>2015-01-17T10:28:41Z</time>
      </trkpt>
      <trkpt lat="42.88353" lon="0.1117">
        <ele>1730.3125803681</ele>
        <time>2015-01-17T10:28:47Z</time>
      </trkpt>
      <trkpt lat="42.88351" lon="0.11171">
        <ele>1730.3125803681</ele>
        <time>2015-01-17T10:28:51Z</time>
      </trkpt>
      <trkpt lat="42.88346" lon="0.11177">
        <ele>1731.9374540636</ele>
        <time>2015-01-17T10:28:57Z</time>
      </trkpt>
      <trkpt lat="42.88345" lon="0.11177">
        <ele>1731.9374540636</ele>
        <time>2015-01-17T10:29:02Z</time>
      </trkpt>
      <trkpt lat="42.88343" lon="0.1118">
        <ele>1731.9374540636</ele>
        <time>2015-01-17T10:29:06Z</time>
      </trkpt>
      <trkpt lat="42.88339" lon="0.11184">
        <ele>1731.9374540636</ele>
        <time>2015-01-17T10:29:11Z</time>
      </trkpt>
      <trkpt lat="42.88337" lon="0.11188">
        <ele>1733.5959633918</ele>
        <time>2015-01-17T10:29:16Z</time>
      </trkpt>
      <trkpt lat="42.88333" lon="0.11192">
        <ele>1733.5959633918</ele>
        <time>2015-01-17T10:29:22Z</time>
      </trkpt>
      <trkpt lat="42.88329" lon="0.11197">
        <ele>1735.1842099817</ele>
        <time>2015-01-17T10:29:27Z</time>
      </trkpt>
      <trkpt lat="42.88327" lon="0.112">
        <ele>1735.1842099817</ele>
        <time>2015-01-17T10:29:31Z</time>
      </trkpt>
      <trkpt lat="42.88321" lon="0.11202">
        <ele>1735.1842099817</ele>
        <time>2015-01-17T10:29:37Z</time>
      </trkpt>
      <trkpt lat="42.88321" lon="0.11202">
        <ele>1736.8223460184</ele>
        <time>2015-01-17T10:29:41Z</time>
      </trkpt>
      <trkpt lat="42.88321" lon="0.11202">
        <ele>1736.8223460184</ele>
        <time>2015-01-17T10:29:47Z</time>
      </trkpt>
      <trkpt lat="42.88319" lon="0.11209">
        <ele>1736.8223460184</ele>
        <time>2015-01-17T10:31:01Z</time>
      </trkpt>
      <trkpt lat="42.88316" lon="0.11213">
        <ele>1738.6216091799</ele>
        <time>2015-01-17T10:31:07Z</time>
      </trkpt>
      <trkpt lat="42.88313" lon="0.11217">
        <ele>1738.6216091799</ele>
        <time>2015-01-17T10:31:11Z</time>
      </trkpt>
      <trkpt lat="42.8831" lon="0.11221">
        <ele>1738.6216091799</ele>
        <time>2015-01-17T10:31:17Z</time>
      </trkpt>
      <trkpt lat="42.88307" lon="0.11225">
        <ele>1740.1946847209</ele>
        <time>2015-01-17T10:31:22Z</time>
      </trkpt>
      <trkpt lat="42.88305" lon="0.11232">
        <ele>1740.1946847209</ele>
        <time>2015-01-17T10:31:27Z</time>
      </trkpt>
      <trkpt lat="42.88303" lon="0.11237">
        <ele>1741.5292570836</ele>
        <time>2015-01-17T10:31:31Z</time>
      </trkpt>
      <trkpt lat="42.88303" lon="0.1124">
        <ele>1741.5292570836</ele>
        <time>2015-01-17T10:31:37Z</time>
      </trkpt>
      <trkpt lat="42.88303" lon="0.1124">
        <ele>1741.5292570836</ele>
        <time>2015-01-17T10:31:42Z</time>
      </trkpt>
      <trkpt lat="42.88301" lon="0.11247">
        <ele>1741.5292570836</ele>
        <time>2015-01-17T10:32:07Z</time>
      </trkpt>
      <trkpt lat="42.883" lon="0.11252">
        <ele>1742.7443268934</ele>
        <time>2015-01-17T10:32:10Z</time>
      </trkpt>
      <trkpt lat="42.88299" lon="0.11255">
        <ele>1742.7443268934</ele>
        <time>2015-01-17T10:32:16Z</time>
      </trkpt>
      <trkpt lat="42.88302" lon="0.11264">
        <ele>1743.7487703504</ele>
        <time>2015-01-17T10:32:23Z</time>
      </trkpt>
      <trkpt lat="42.88302" lon="0.1127">
        <ele>1743.7487703504</ele>
        <time>2015-01-17T10:32:31Z</time>
      </trkpt>
      <trkpt lat="42.88302" lon="0.11271">
        <ele>1743.7487703504</ele>
        <time>2015-01-17T10:32:37Z</time>
      </trkpt>
      <trkpt lat="42.88304" lon="0.11282">
        <ele>1744.6893581177</ele>
        <time>2015-01-17T10:32:57Z</time>
      </trkpt>
      <trkpt lat="42.88303" lon="0.11285">
        <ele>1744.6893581177</ele>
        <time>2015-01-17T10:33:01Z</time>
      </trkpt>
      <trkpt lat="42.88301" lon="0.11291">
        <ele>1744.6893581177</ele>
        <time>2015-01-17T10:33:07Z</time>
      </trkpt>
      <trkpt lat="42.88299" lon="0.11294">
        <ele>1745.4861165383</ele>
        <time>2015-01-17T10:33:11Z</time>
      </trkpt>
      <trkpt lat="42.88297" lon="0.11299">
        <ele>1745.4861165383</ele>
        <time>2015-01-17T10:33:17Z</time>
      </trkpt>
      <trkpt lat="42.88296" lon="0.11302">
        <ele>1745.4861165383</ele>
        <time>2015-01-17T10:33:22Z</time>
      </trkpt>
      <trkpt lat="42.88295" lon="0.11305">
        <ele>1746.0653675604</ele>
        <time>2015-01-17T10:33:28Z</time>
      </trkpt>
      <trkpt lat="42.88295" lon="0.1131">
        <ele>1746.0653675604</ele>
        <time>2015-01-17T10:33:31Z</time>
      </trkpt>
      <trkpt lat="42.88294" lon="0.11315">
        <ele>1746.0653675604</ele>
        <time>2015-01-17T10:33:37Z</time>
      </trkpt>
      <trkpt lat="42.88294" lon="0.11321">
        <ele>1746.604453722</ele>
        <time>2015-01-17T10:33:41Z</time>
      </trkpt>
      <trkpt lat="42.88293" lon="0.11328">
        <ele>1746.604453722</ele>
        <time>2015-01-17T10:33:47Z</time>
      </trkpt>
      <trkpt lat="42.88292" lon="0.11331">
        <ele>1746.604453722</ele>
        <time>2015-01-17T10:33:51Z</time>
      </trkpt>
      <trkpt lat="42.88288" lon="0.11335">
        <ele>1747.1525144314</ele>
        <time>2015-01-17T10:33:57Z</time>
      </trkpt>
      <trkpt lat="42.88285" lon="0.11339">
        <ele>1747.1525144314</ele>
        <time>2015-01-17T10:34:02Z</time>
      </trkpt>
      <trkpt lat="42.88283" lon="0.11341">
        <ele>1747.1525144314</ele>
        <time>2015-01-17T10:34:07Z</time>
      </trkpt>
      <trkpt lat="42.88282" lon="0.11347">
        <ele>1747.5965237782</ele>
        <time>2015-01-17T10:34:11Z</time>
      </trkpt>
      <trkpt lat="42.8828" lon="0.11355">
        <ele>1747.5965237782</ele>
        <time>2015-01-17T10:34:17Z</time>
      </trkpt>
      <trkpt lat="42.88279" lon="0.11359">
        <ele>1747.932911567</ele>
        <time>2015-01-17T10:34:21Z</time>
      </trkpt>
      <trkpt lat="42.88278" lon="0.11366">
        <ele>1747.932911567</ele>
        <time>2015-01-17T10:34:27Z</time>
      </trkpt>
      <trkpt lat="42.88277" lon="0.11368">
        <ele>1747.932911567</ele>
        <time>2015-01-17T10:34:31Z</time>
      </trkpt>
      <trkpt lat="42.88277" lon="0.11373">
        <ele>1748.3315800855</ele>
        <time>2015-01-17T10:34:37Z</time>
      </trkpt>
      <trkpt lat="42.88276" lon="0.11376">
        <ele>1748.3315800855</ele>
        <time>2015-01-17T10:34:42Z</time>
      </trkpt>
      <trkpt lat="42.88277" lon="0.11382">
        <ele>1748.3315800855</ele>
        <time>2015-01-17T10:34:47Z</time>
      </trkpt>
      <trkpt lat="42.88277" lon="0.11386">
        <ele>1748.7912208037</ele>
        <time>2015-01-17T10:34:51Z</time>
      </trkpt>
      <trkpt lat="42.88278" lon="0.11391">
        <ele>1748.7912208037</ele>
        <time>2015-01-17T10:34:56Z</time>
      </trkpt>
      <trkpt lat="42.88278" lon="0.11394">
        <ele>1748.7912208037</ele>
        <time>2015-01-17T10:35:02Z</time>
      </trkpt>
      <trkpt lat="42.88277" lon="0.11399">
        <ele>1749.3248213698</ele>
        <time>2015-01-17T10:35:07Z</time>
      </trkpt>
      <trkpt lat="42.88277" lon="0.11404">
        <ele>1749.3248213698</ele>
        <time>2015-01-17T10:35:11Z</time>
      </trkpt>
      <trkpt lat="42.88276" lon="0.11408">
        <ele>1749.3248213698</ele>
        <time>2015-01-17T10:35:16Z</time>
      </trkpt>
      <trkpt lat="42.88274" lon="0.11411">
        <ele>1749.9153394788</ele>
        <time>2015-01-17T10:35:22Z</time>
      </trkpt>
      <trkpt lat="42.88273" lon="0.11415">
        <ele>1749.9153394788</ele>
        <time>2015-01-17T10:35:27Z</time>
      </trkpt>
      <trkpt lat="42.88272" lon="0.11419">
        <ele>1749.9153394788</ele>
        <time>2015-01-17T10:35:31Z</time>
      </trkpt>
      <trkpt lat="42.88271" lon="0.11424">
        <ele>1750.4747181465</ele>
        <time>2015-01-17T10:35:37Z</time>
      </trkpt>
      <trkpt lat="42.88271" lon="0.11427">
        <ele>1750.4747181465</ele>
        <time>2015-01-17T10:35:43Z</time>
      </trkpt>
      <trkpt lat="42.88271" lon="0.11432">
        <ele>1750.4747181465</ele>
        <time>2015-01-17T10:35:46Z</time>
      </trkpt>
      <trkpt lat="42.88271" lon="0.11436">
        <ele>1750.4747181465</ele>
        <time>2015-01-17T10:35:51Z</time>
      </trkpt>
      <trkpt lat="42.88271" lon="0.1144">
        <ele>1751.1087453527</ele>
        <time>2015-01-17T10:35:56Z</time>
      </trkpt>
      <trkpt lat="42.88271" lon="0.11445">
        <ele>1751.1087453527</ele>
        <time>2015-01-17T10:36:01Z</time>
      </trkpt>
      <trkpt lat="42.8827" lon="0.1145">
        <ele>1751.1087453527</ele>
        <time>2015-01-17T10:36:07Z</time>
      </trkpt>
      <trkpt lat="42.8827" lon="0.11451">
        <ele>1751.1087453527</ele>
        <time>2015-01-17T10:36:11Z</time>
      </trkpt>
      <trkpt lat="42.88268" lon="0.11455">
        <ele>1751.8575253045</ele>
        <time>2015-01-17T10:36:18Z</time>
      </trkpt>
      <trkpt lat="42.88268" lon="0.11457">
        <ele>1751.8575253045</ele>
        <time>2015-01-17T10:36:21Z</time>
      </trkpt>
      <trkpt lat="42.88267" lon="0.11461">
        <ele>1751.8575253045</ele>
        <time>2015-01-17T10:36:27Z</time>
      </trkpt>
      <trkpt lat="42.88265" lon="0.11463">
        <ele>1751.8575253045</ele>
        <time>2015-01-17T10:36:31Z</time>
      </trkpt>
      <trkpt lat="42.88264" lon="0.11464">
        <ele>1751.8575253045</ele>
        <time>2015-01-17T10:36:37Z</time>
      </trkpt>
      <trkpt lat="42.88264" lon="0.11471">
        <ele>1752.9019446759</ele>
        <time>2015-01-17T10:37:02Z</time>
      </trkpt>
      <trkpt lat="42.88264" lon="0.11475">
        <ele>1752.9019446759</ele>
        <time>2015-01-17T10:37:07Z</time>
      </trkpt>
      <trkpt lat="42.88262" lon="0.11479">
        <ele>1752.9019446759</ele>
        <time>2015-01-17T10:37:11Z</time>
      </trkpt>
      <trkpt lat="42.88261" lon="0.11484">
        <ele>1753.889910984</ele>
        <time>2015-01-17T10:37:17Z</time>
      </trkpt>
      <trkpt lat="42.8826" lon="0.11489">
        <ele>1753.889910984</ele>
        <time>2015-01-17T10:37:22Z</time>
      </trkpt>
      <trkpt lat="42.8826" lon="0.11493">
        <ele>1753.889910984</ele>
        <time>2015-01-17T10:37:27Z</time>
      </trkpt>
      <trkpt lat="42.88259" lon="0.11495">
        <ele>1753.889910984</ele>
        <time>2015-01-17T10:37:31Z</time>
      </trkpt>
      <trkpt lat="42.88259" lon="0.11499">
        <ele>1754.8411597185</ele>
        <time>2015-01-17T10:37:36Z</time>
      </trkpt>
      <trkpt lat="42.88256" lon="0.11502">
        <ele>1754.8411597185</ele>
        <time>2015-01-17T10:37:42Z</time>
      </trkpt>
      <trkpt lat="42.88256" lon="0.11505">
        <ele>1754.8411597185</ele>
        <time>2015-01-17T10:37:47Z</time>
      </trkpt>
      <trkpt lat="42.88256" lon="0.11511">
        <ele>1755.8028409758</ele>
        <time>2015-01-17T10:37:51Z</time>
      </trkpt>
      <trkpt lat="42.88254" lon="0.11516">
        <ele>1755.8028409758</ele>
        <time>2015-01-17T10:37:57Z</time>
      </trkpt>
      <trkpt lat="42.88251" lon="0.11521">
        <ele>1755.8028409758</ele>
        <time>2015-01-17T10:38:02Z</time>
      </trkpt>
      <trkpt lat="42.88251" lon="0.11525">
        <ele>1756.8185523717</ele>
        <time>2015-01-17T10:38:06Z</time>
      </trkpt>
      <trkpt lat="42.8825" lon="0.11529">
        <ele>1756.8185523717</ele>
        <time>2015-01-17T10:38:11Z</time>
      </trkpt>
      <trkpt lat="42.88251" lon="0.11531">
        <ele>1756.8185523717</ele>
        <time>2015-01-17T10:38:17Z</time>
      </trkpt>
      <trkpt lat="42.88252" lon="0.11539">
        <ele>1757.8996568843</ele>
        <time>2015-01-17T10:38:28Z</time>
      </trkpt>
      <trkpt lat="42.88252" lon="0.11543">
        <ele>1757.8996568843</ele>
        <time>2015-01-17T10:38:31Z</time>
      </trkpt>
      <trkpt lat="42.88252" lon="0.11549">
        <ele>1757.8996568843</ele>
        <time>2015-01-17T10:38:37Z</time>
      </trkpt>
      <trkpt lat="42.88251" lon="0.11552">
        <ele>1758.9843872269</ele>
        <time>2015-01-17T10:38:42Z</time>
      </trkpt>
      <trkpt lat="42.88251" lon="0.11555">
        <ele>1758.9843872269</ele>
        <time>2015-01-17T10:38:46Z</time>
      </trkpt>
      <trkpt lat="42.8825" lon="0.11561">
        <ele>1758.9843872269</ele>
        <time>2015-01-17T10:38:51Z</time>
      </trkpt>
      <trkpt lat="42.88248" lon="0.11564">
        <ele>1760.0875043978</ele>
        <time>2015-01-17T10:38:56Z</time>
      </trkpt>
      <trkpt lat="42.88247" lon="0.11566">
        <ele>1760.0875043978</ele>
        <time>2015-01-17T10:39:02Z</time>
      </trkpt>
      <trkpt lat="42.88247" lon="0.11571">
        <ele>1760.0875043978</ele>
        <time>2015-01-17T10:39:11Z</time>
      </trkpt>
      <trkpt lat="42.88248" lon="0.11576">
        <ele>1761.2658146932</ele>
        <time>2015-01-17T10:39:17Z</time>
      </trkpt>
      <trkpt lat="42.8825" lon="0.1158">
        <ele>1761.2658146932</ele>
        <time>2015-01-17T10:39:22Z</time>
      </trkpt>
      <trkpt lat="42.88253" lon="0.11585">
        <ele>1761.2658146932</ele>
        <time>2015-01-17T10:39:27Z</time>
      </trkpt>
      <trkpt lat="42.88254" lon="0.11588">
        <ele>1762.3987574843</ele>
        <time>2015-01-17T10:39:31Z</time>
      </trkpt>
      <trkpt lat="42.88257" lon="0.11592">
        <ele>1762.3987574843</ele>
        <time>2015-01-17T10:39:37Z</time>
      </trkpt>
      <trkpt lat="42.88257" lon="0.11598">
        <ele>1762.3987574843</ele>
        <time>2015-01-17T10:39:41Z</time>
      </trkpt>
      <trkpt lat="42.88257" lon="0.11602">
        <ele>1763.5476421328</ele>
        <time>2015-01-17T10:39:47Z</time>
      </trkpt>
      <trkpt lat="42.88258" lon="0.11605">
        <ele>1763.5476421328</ele>
        <time>2015-01-17T10:39:51Z</time>
      </trkpt>
      <trkpt lat="42.88258" lon="0.11606">
        <ele>1763.5476421328</ele>
        <time>2015-01-17T10:39:56Z</time>
      </trkpt>
      <trkpt lat="42.88262" lon="0.11616">
        <ele>1764.9421190399</ele>
        <time>2015-01-17T10:40:21Z</time>
      </trkpt>
      <trkpt lat="42.8826" lon="0.11622">
        <ele>1764.9421190399</ele>
        <time>2015-01-17T10:40:27Z</time>
      </trkpt>
      <trkpt lat="42.8826" lon="0.11625">
        <ele>1764.9421190399</ele>
        <time>2015-01-17T10:40:31Z</time>
      </trkpt>
      <trkpt lat="42.88259" lon="0.11629">
        <ele>1766.2754388381</ele>
        <time>2015-01-17T10:40:36Z</time>
      </trkpt>
      <trkpt lat="42.88259" lon="0.11632">
        <ele>1766.2754388381</ele>
        <time>2015-01-17T10:40:42Z</time>
      </trkpt>
      <trkpt lat="42.88257" lon="0.11637">
        <ele>1766.2754388381</ele>
        <time>2015-01-17T10:40:46Z</time>
      </trkpt>
      <trkpt lat="42.88256" lon="0.11642">
        <ele>1767.5373313601</ele>
        <time>2015-01-17T10:40:51Z</time>
      </trkpt>
      <trkpt lat="42.88256" lon="0.11649">
        <ele>1767.5373313601</ele>
        <time>2015-01-17T10:40:56Z</time>
      </trkpt>
      <trkpt lat="42.88256" lon="0.11652">
        <ele>1767.5373313601</ele>
        <time>2015-01-17T10:41:01Z</time>
      </trkpt>
      <trkpt lat="42.88256" lon="0.11656">
        <ele>1768.7905031641</ele>
        <time>2015-01-17T10:41:06Z</time>
      </trkpt>
      <trkpt lat="42.88256" lon="0.11665">
        <ele>1768.7905031641</ele>
        <time>2015-01-17T10:41:11Z</time>
      </trkpt>
      <trkpt lat="42.88254" lon="0.11671">
        <ele>1769.9921707277</ele>
        <time>2015-01-17T10:41:16Z</time>
      </trkpt>
      <trkpt lat="42.88254" lon="0.11675">
        <ele>1769.9921707277</ele>
        <time>2015-01-17T10:41:22Z</time>
      </trkpt>
      <trkpt lat="42.88253" lon="0.11679">
        <ele>1769.9921707277</ele>
        <time>2015-01-17T10:41:26Z</time>
      </trkpt>
      <trkpt lat="42.88253" lon="0.11685">
        <ele>1771.2325105022</ele>
        <time>2015-01-17T10:41:32Z</time>
      </trkpt>
      <trkpt lat="42.88253" lon="0.11689">
        <ele>1771.2325105022</ele>
        <time>2015-01-17T10:41:37Z</time>
      </trkpt>
      <trkpt lat="42.88253" lon="0.11694">
        <ele>1771.2325105022</ele>
        <time>2015-01-17T10:41:42Z</time>
      </trkpt>
      <trkpt lat="42.88253" lon="0.11696">
        <ele>1771.2325105022</ele>
        <time>2015-01-17T10:41:47Z</time>
      </trkpt>
      <trkpt lat="42.88253" lon="0.11699">
        <ele>1772.6381749826</ele>
        <time>2015-01-17T10:41:51Z</time>
      </trkpt>
      <trkpt lat="42.88254" lon="0.11699">
        <ele>1772.6381749826</ele>
        <time>2015-01-17T10:41:57Z</time>
      </trkpt>
      <trkpt lat="42.88256" lon="0.11708">
        <ele>1772.6381749826</ele>
        <time>2015-01-17T10:42:22Z</time>
      </trkpt>
      <trkpt lat="42.88256" lon="0.11711">
        <ele>1774.5133728292</ele>
        <time>2015-01-17T10:42:36Z</time>
      </trkpt>
      <trkpt lat="42.88257" lon="0.11717">
        <ele>1774.5133728292</ele>
        <time>2015-01-17T10:42:47Z</time>
      </trkpt>
      <trkpt lat="42.88258" lon="0.11721">
        <ele>1774.5133728292</ele>
        <time>2015-01-17T10:42:51Z</time>
      </trkpt>
      <trkpt lat="42.88257" lon="0.11725">
        <ele>1776.3171985215</ele>
        <time>2015-01-17T10:42:56Z</time>
      </trkpt>
      <trkpt lat="42.88256" lon="0.11728">
        <ele>1776.3171985215</ele>
        <time>2015-01-17T10:43:02Z</time>
      </trkpt>
      <trkpt lat="42.88256" lon="0.11731">
        <ele>1776.3171985215</ele>
        <time>2015-01-17T10:43:06Z</time>
      </trkpt>
      <trkpt lat="42.88255" lon="0.11735">
        <ele>1776.3171985215</ele>
        <time>2015-01-17T10:43:11Z</time>
      </trkpt>
      <trkpt lat="42.88254" lon="0.11736">
        <ele>1776.3171985215</ele>
        <time>2015-01-17T10:43:16Z</time>
      </trkpt>
      <trkpt lat="42.88253" lon="0.11741">
        <ele>1778.2404041673</ele>
        <time>2015-01-17T10:43:22Z</time>
      </trkpt>
      <trkpt lat="42.88252" lon="0.11745">
        <ele>1778.2404041673</ele>
        <time>2015-01-17T10:43:27Z</time>
      </trkpt>
      <trkpt lat="42.88252" lon="0.11745">
        <ele>1778.2404041673</ele>
        <time>2015-01-17T10:43:31Z</time>
      </trkpt>
      <trkpt lat="42.88248" lon="0.11749">
        <ele>1778.2404041673</ele>
        <time>2015-01-17T10:43:42Z</time>
      </trkpt>
      <trkpt lat="42.88247" lon="0.11753">
        <ele>1780.3008679463</ele>
        <time>2015-01-17T10:43:46Z</time>
      </trkpt>
      <trkpt lat="42.88245" lon="0.11756">
        <ele>1780.3008679463</ele>
        <time>2015-01-17T10:43:51Z</time>
      </trkpt>
      <trkpt lat="42.88244" lon="0.11759">
        <ele>1780.3008679463</ele>
        <time>2015-01-17T10:43:56Z</time>
      </trkpt>
      <trkpt lat="42.88242" lon="0.11761">
        <ele>1780.3008679463</ele>
        <time>2015-01-17T10:44:02Z</time>
      </trkpt>
      <trkpt lat="42.88242" lon="0.1176">
        <ele>1780.3008679463</ele>
        <time>2015-01-17T10:44:07Z</time>
      </trkpt>
      <trkpt lat="42.88239" lon="0.11764">
        <ele>1782.5291838876</ele>
        <time>2015-01-17T10:44:17Z</time>
      </trkpt>
      <trkpt lat="42.88237" lon="0.11766">
        <ele>1782.5291838876</ele>
        <time>2015-01-17T10:44:22Z</time>
      </trkpt>
      <trkpt lat="42.88236" lon="0.1177">
        <ele>1782.5291838876</ele>
        <time>2015-01-17T10:44:26Z</time>
      </trkpt>
      <trkpt lat="42.88236" lon="0.11773">
        <ele>1782.5291838876</ele>
        <time>2015-01-17T10:44:31Z</time>
      </trkpt>
      <trkpt lat="42.88236" lon="0.11777">
        <ele>1784.7947160042</ele>
        <time>2015-01-17T10:44:37Z</time>
      </trkpt>
      <trkpt lat="42.88235" lon="0.11778">
        <ele>1784.7947160042</ele>
        <time>2015-01-17T10:44:42Z</time>
      </trkpt>
      <trkpt lat="42.88235" lon="0.11782">
        <ele>1784.7947160042</ele>
        <time>2015-01-17T10:44:47Z</time>
      </trkpt>
      <trkpt lat="42.88234" lon="0.11785">
        <ele>1784.7947160042</ele>
        <time>2015-01-17T10:44:51Z</time>
      </trkpt>
      <trkpt lat="42.88232" lon="0.1179">
        <ele>1787.1780944393</ele>
        <time>2015-01-17T10:44:57Z</time>
      </trkpt>
      <trkpt lat="42.88232" lon="0.11792">
        <ele>1787.1780944393</ele>
        <time>2015-01-17T10:45:02Z</time>
      </trkpt>
      <trkpt lat="42.88232" lon="0.11793">
        <ele>1787.1780944393</ele>
        <time>2015-01-17T10:45:07Z</time>
      </trkpt>
      <trkpt lat="42.8823" lon="0.11801">
        <ele>1787.1780944393</ele>
        <time>2015-01-17T10:45:37Z</time>
      </trkpt>
      <trkpt lat="42.8823" lon="0.11805">
        <ele>1789.8113670483</ele>
        <time>2015-01-17T10:45:42Z</time>
      </trkpt>
      <trkpt lat="42.8823" lon="0.11808">
        <ele>1789.8113670483</ele>
        <time>2015-01-17T10:45:47Z</time>
      </trkpt>
      <trkpt lat="42.88231" lon="0.11811">
        <ele>1789.8113670483</ele>
        <time>2015-01-17T10:45:51Z</time>
      </trkpt>
      <trkpt lat="42.88231" lon="0.11814">
        <ele>1789.8113670483</ele>
        <time>2015-01-17T10:45:56Z</time>
      </trkpt>
      <trkpt lat="42.8823" lon="0.11817">
        <ele>1789.8113670483</ele>
        <time>2015-01-17T10:46:02Z</time>
      </trkpt>
      <trkpt lat="42.88228" lon="0.11826">
        <ele>1792.4703492126</ele>
        <time>2015-01-17T10:46:16Z</time>
      </trkpt>
      <trkpt lat="42.88227" lon="0.11831">
        <ele>1792.4703492126</ele>
        <time>2015-01-17T10:46:21Z</time>
      </trkpt>
      <trkpt lat="42.88226" lon="0.11835">
        <ele>1792.4703492126</ele>
        <time>2015-01-17T10:46:27Z</time>
      </trkpt>
      <trkpt lat="42.88226" lon="0.11835">
        <ele>1792.4703492126</ele>
        <time>2015-01-17T10:46:31Z</time>
      </trkpt>
      <trkpt lat="42.88225" lon="0.11838">
        <ele>1795.8407873366</ele>
        <time>2015-01-17T10:47:26Z</time>
      </trkpt>
      <trkpt lat="42.88226" lon="0.11851">
        <ele>1799.864381136</ele>
        <time>2015-01-17T10:48:16Z</time>
      </trkpt>
      <trkpt lat="42.88226" lon="0.11852">
        <ele>1799.864381136</ele>
        <time>2015-01-17T10:48:20Z</time>
      </trkpt>
      <trkpt lat="42.8822" lon="0.11857">
        <ele>1799.864381136</ele>
        <time>2015-01-17T10:49:10Z</time>
      </trkpt>
      <trkpt lat="42.88221" lon="0.11857">
        <ele>1799.864381136</ele>
        <time>2015-01-17T10:49:15Z</time>
      </trkpt>
      <trkpt lat="42.88221" lon="0.11854">
        <ele>1806.1426338489</ele>
        <time>2015-01-17T10:51:30Z</time>
      </trkpt>
      <trkpt lat="42.88221" lon="0.11854">
        <ele>1806.1426338489</ele>
        <time>2015-01-17T10:51:36Z</time>
      </trkpt>
      <trkpt lat="42.88221" lon="0.11847">
        <ele>1806.1426338489</ele>
        <time>2015-01-17T10:51:42Z</time>
      </trkpt>
      <trkpt lat="42.88221" lon="0.11843">
        <ele>1806.1426338489</ele>
        <time>2015-01-17T10:51:47Z</time>
      </trkpt>
      <trkpt lat="42.88221" lon="0.11843">
        <ele>1806.1426338489</ele>
        <time>2015-01-17T10:51:51Z</time>
      </trkpt>
      <trkpt lat="42.8822" lon="0.11837">
        <ele>1812.4062842659</ele>
        <time>2015-01-17T10:51:56Z</time>
      </trkpt>
      <trkpt lat="42.8822" lon="0.11833">
        <ele>1812.4062842659</ele>
        <time>2015-01-17T10:52:01Z</time>
      </trkpt>
      <trkpt lat="42.88221" lon="0.11829">
        <ele>1812.4062842659</ele>
        <time>2015-01-17T10:52:07Z</time>
      </trkpt>
      <trkpt lat="42.88221" lon="0.11825">
        <ele>1818.3110892981</ele>
        <time>2015-01-17T10:52:12Z</time>
      </trkpt>
      <trkpt lat="42.88223" lon="0.11819">
        <ele>1818.3110892981</ele>
        <time>2015-01-17T10:52:16Z</time>
      </trkpt>
      <trkpt lat="42.88222" lon="0.11817">
        <ele>1818.3110892981</ele>
        <time>2015-01-17T10:52:21Z</time>
      </trkpt>
      <trkpt lat="42.88222" lon="0.11815">
        <ele>1818.3110892981</ele>
        <time>2015-01-17T10:52:27Z</time>
      </trkpt>
      <trkpt lat="42.88221" lon="0.1181">
        <ele>1823.769828335</ele>
        <time>2015-01-17T10:52:31Z</time>
      </trkpt>
      <trkpt lat="42.8822" lon="0.11809">
        <ele>1823.769828335</ele>
        <time>2015-01-17T10:52:35Z</time>
      </trkpt>
      <trkpt lat="42.88216" lon="0.11812">
        <ele>1823.769828335</ele>
        <time>2015-01-17T10:52:41Z</time>
      </trkpt>
      <trkpt lat="42.88215" lon="0.11811">
        <ele>1823.769828335</ele>
        <time>2015-01-17T10:52:46Z</time>
      </trkpt>
      <trkpt lat="42.88213" lon="0.11806">
        <ele>1828.5734149982</ele>
        <time>2015-01-17T10:52:56Z</time>
      </trkpt>
      <trkpt lat="42.88213" lon="0.11803">
        <ele>1828.5734149982</ele>
        <time>2015-01-17T10:53:02Z</time>
      </trkpt>
      <trkpt lat="42.88212" lon="0.118">
        <ele>1828.5734149982</ele>
        <time>2015-01-17T10:53:06Z</time>
      </trkpt>
      <trkpt lat="42.8821" lon="0.11794">
        <ele>1832.7895556924</ele>
        <time>2015-01-17T10:53:12Z</time>
      </trkpt>
      <trkpt lat="42.88211" lon="0.1179">
        <ele>1832.7895556924</ele>
        <time>2015-01-17T10:53:16Z</time>
      </trkpt>
      <trkpt lat="42.88209" lon="0.11784">
        <ele>1832.7895556924</ele>
        <time>2015-01-17T10:53:22Z</time>
      </trkpt>
      <trkpt lat="42.88209" lon="0.11782">
        <ele>1832.7895556924</ele>
        <time>2015-01-17T10:53:27Z</time>
      </trkpt>
      <trkpt lat="42.88205" lon="0.11775">
        <ele>1836.5116619697</ele>
        <time>2015-01-17T10:53:42Z</time>
      </trkpt>
      <trkpt lat="42.88204" lon="0.1177">
        <ele>1836.5116619697</ele>
        <time>2015-01-17T10:53:47Z</time>
      </trkpt>
      <trkpt lat="42.88202" lon="0.11766">
        <ele>1836.5116619697</ele>
        <time>2015-01-17T10:53:52Z</time>
      </trkpt>
      <trkpt lat="42.88201" lon="0.11761">
        <ele>1839.7990627561</ele>
        <time>2015-01-17T10:53:56Z</time>
      </trkpt>
      <trkpt lat="42.88201" lon="0.1176">
        <ele>1839.7990627561</ele>
        <time>2015-01-17T10:54:01Z</time>
      </trkpt>
      <trkpt lat="42.882" lon="0.11759">
        <ele>1839.7990627561</ele>
        <time>2015-01-17T10:54:07Z</time>
      </trkpt>
      <trkpt lat="42.882" lon="0.11752">
        <ele>1839.7990627561</ele>
        <time>2015-01-17T10:54:16Z</time>
      </trkpt>
      <trkpt lat="42.88195" lon="0.11742">
        <ele>1842.7802210668</ele>
        <time>2015-01-17T10:55:22Z</time>
      </trkpt>
      <trkpt lat="42.88198" lon="0.11736">
        <ele>1842.7802210668</ele>
        <time>2015-01-17T10:56:02Z</time>
      </trkpt>
      <trkpt lat="42.88196" lon="0.11734">
        <ele>1842.7802210668</ele>
        <time>2015-01-17T10:56:07Z</time>
      </trkpt>
      <trkpt lat="42.88193" lon="0.11728">
        <ele>1845.5175923791</ele>
        <time>2015-01-17T10:56:16Z</time>
      </trkpt>
      <trkpt lat="42.88193" lon="0.11724">
        <ele>1845.5175923791</ele>
        <time>2015-01-17T10:56:22Z</time>
      </trkpt>
      <trkpt lat="42.88193" lon="0.1172">
        <ele>1845.5175923791</ele>
        <time>2015-01-17T10:56:27Z</time>
      </trkpt>
      <trkpt lat="42.88192" lon="0.11719">
        <ele>1845.5175923791</ele>
        <time>2015-01-17T10:56:32Z</time>
      </trkpt>
      <trkpt lat="42.88189" lon="0.11716">
        <ele>1847.868180869</ele>
        <time>2015-01-17T10:56:36Z</time>
      </trkpt>
      <trkpt lat="42.88189" lon="0.11716">
        <ele>1847.868180869</ele>
        <time>2015-01-17T10:56:41Z</time>
      </trkpt>
      <trkpt lat="42.88185" lon="0.11715">
        <ele>1847.868180869</ele>
        <time>2015-01-17T10:56:47Z</time>
      </trkpt>
      <trkpt lat="42.88183" lon="0.11713">
        <ele>1847.868180869</ele>
        <time>2015-01-17T10:56:52Z</time>
      </trkpt>
      <trkpt lat="42.88183" lon="0.11712">
        <ele>1847.868180869</ele>
        <time>2015-01-17T10:56:56Z</time>
      </trkpt>
      <trkpt lat="42.88184" lon="0.11712">
        <ele>1847.868180869</ele>
        <time>2015-01-17T10:57:01Z</time>
      </trkpt>
      <trkpt lat="42.88183" lon="0.11707">
        <ele>1849.9313572493</ele>
        <time>2015-01-17T10:57:06Z</time>
      </trkpt>
      <trkpt lat="42.88181" lon="0.11706">
        <ele>1849.9313572493</ele>
        <time>2015-01-17T10:57:12Z</time>
      </trkpt>
      <trkpt lat="42.88176" lon="0.11698">
        <ele>1851.6560751514</ele>
        <time>2015-01-17T10:57:27Z</time>
      </trkpt>
      <trkpt lat="42.88174" lon="0.11696">
        <ele>1851.6560751514</ele>
        <time>2015-01-17T10:57:32Z</time>
      </trkpt>
      <trkpt lat="42.88173" lon="0.11695">
        <ele>1851.6560751514</ele>
        <time>2015-01-17T10:57:36Z</time>
      </trkpt>
      <trkpt lat="42.8817" lon="0.11694">
        <ele>1851.6560751514</ele>
        <time>2015-01-17T10:57:42Z</time>
      </trkpt>
      <trkpt lat="42.8817" lon="0.11693">
        <ele>1851.6560751514</ele>
        <time>2015-01-17T10:57:47Z</time>
      </trkpt>
      <trkpt lat="42.88169" lon="0.11699">
        <ele>1853.4284950864</ele>
        <time>2015-01-17T10:58:22Z</time>
      </trkpt>
      <trkpt lat="42.8816" lon="0.117">
        <ele>1854.8282350564</ele>
        <time>2015-01-17T10:58:36Z</time>
      </trkpt>
      <trkpt lat="42.88156" lon="0.11698">
        <ele>1854.8282350564</ele>
        <time>2015-01-17T10:58:42Z</time>
      </trkpt>
      <trkpt lat="42.88153" lon="0.11698">
        <ele>1854.8282350564</ele>
        <time>2015-01-17T10:58:47Z</time>
      </trkpt>
      <trkpt lat="42.88152" lon="0.11698">
        <ele>1854.8282350564</ele>
        <time>2015-01-17T10:58:51Z</time>
      </trkpt>
      <trkpt lat="42.88152" lon="0.11697">
        <ele>1854.8282350564</ele>
        <time>2015-01-17T10:58:56Z</time>
      </trkpt>
      <trkpt lat="42.88151" lon="0.117">
        <ele>1856.562227622</ele>
        <time>2015-01-17T10:59:47Z</time>
      </trkpt>
      <trkpt lat="42.88151" lon="0.11701">
        <ele>1856.562227622</ele>
        <time>2015-01-17T10:59:52Z</time>
      </trkpt>
      <trkpt lat="42.8815" lon="0.11705">
        <ele>1856.562227622</ele>
        <time>2015-01-17T11:00:26Z</time>
      </trkpt>
      <trkpt lat="42.8815" lon="0.11704">
        <ele>1856.562227622</ele>
        <time>2015-01-17T11:00:31Z</time>
      </trkpt>
      <trkpt lat="42.88141" lon="0.11705">
        <ele>1859.0684991463</ele>
        <time>2015-01-17T11:01:42Z</time>
      </trkpt>
      <trkpt lat="42.88141" lon="0.11709">
        <ele>1859.0684991463</ele>
        <time>2015-01-17T11:01:47Z</time>
      </trkpt>
      <trkpt lat="42.88141" lon="0.11712">
        <ele>1859.0684991463</ele>
        <time>2015-01-17T11:01:52Z</time>
      </trkpt>
      <trkpt lat="42.88141" lon="0.11705">
        <ele>1861.3529703523</ele>
        <time>2015-01-17T11:02:11Z</time>
      </trkpt>
      <trkpt lat="42.88141" lon="0.11705">
        <ele>1861.3529703523</ele>
        <time>2015-01-17T11:02:16Z</time>
      </trkpt>
      <trkpt lat="42.88134" lon="0.11699">
        <ele>1861.3529703523</ele>
        <time>2015-01-17T11:02:27Z</time>
      </trkpt>
      <trkpt lat="42.88131" lon="0.11698">
        <ele>1863.4320364865</ele>
        <time>2015-01-17T11:02:32Z</time>
      </trkpt>
      <trkpt lat="42.88129" lon="0.11696">
        <ele>1863.4320364865</ele>
        <time>2015-01-17T11:02:36Z</time>
      </trkpt>
      <trkpt lat="42.88128" lon="0.11696">
        <ele>1863.4320364865</ele>
        <time>2015-01-17T11:02:41Z</time>
      </trkpt>
      <trkpt lat="42.88126" lon="0.11693">
        <ele>1863.4320364865</ele>
        <time>2015-01-17T11:03:01Z</time>
      </trkpt>
      <trkpt lat="42.88126" lon="0.11693">
        <ele>1863.4320364865</ele>
        <time>2015-01-17T11:03:07Z</time>
      </trkpt>
      <trkpt lat="42.88122" lon="0.11699">
        <ele>1865.4656716938</ele>
        <time>2015-01-17T11:03:17Z</time>
      </trkpt>
      <trkpt lat="42.88122" lon="0.117">
        <ele>1865.4656716938</ele>
        <time>2015-01-17T11:03:22Z</time>
      </trkpt>
      <trkpt lat="42.88114" lon="0.11708">
        <ele>1867.3717349619</ele>
        <time>2015-01-17T11:03:57Z</time>
      </trkpt>
      <trkpt lat="42.88113" lon="0.11711">
        <ele>1867.3717349619</ele>
        <time>2015-01-17T11:04:01Z</time>
      </trkpt>
      <trkpt lat="42.88113" lon="0.11715">
        <ele>1867.3717349619</ele>
        <time>2015-01-17T11:04:06Z</time>
      </trkpt>
      <trkpt lat="42.88114" lon="0.11719">
        <ele>1867.3717349619</ele>
        <time>2015-01-17T11:04:11Z</time>
      </trkpt>
      <trkpt lat="42.88116" lon="0.11721">
        <ele>1869.2330766826</ele>
        <time>2015-01-17T11:04:17Z</time>
      </trkpt>
      <trkpt lat="42.88111" lon="0.11717">
        <ele>1869.2330766826</ele>
        <time>2015-01-17T11:04:37Z</time>
      </trkpt>
      <trkpt lat="42.88109" lon="0.11717">
        <ele>1869.2330766826</ele>
        <time>2015-01-17T11:04:40Z</time>
      </trkpt>
      <trkpt lat="42.88105" lon="0.11717">
        <ele>1870.9969537149</ele>
        <time>2015-01-17T11:04:47Z</time>
      </trkpt>
      <trkpt lat="42.88102" lon="0.11716">
        <ele>1870.9969537149</ele>
        <time>2015-01-17T11:04:52Z</time>
      </trkpt>
      <trkpt lat="42.881" lon="0.11715">
        <ele>1870.9969537149</ele>
        <time>2015-01-17T11:04:57Z</time>
      </trkpt>
      <trkpt lat="42.88097" lon="0.11713">
        <ele>1870.9969537149</ele>
        <time>2015-01-17T11:05:00Z</time>
      </trkpt>
      <trkpt lat="42.88094" lon="0.11711">
        <ele>1872.6436500531</ele>
        <time>2015-01-17T11:05:06Z</time>
      </trkpt>
      <trkpt lat="42.88094" lon="0.11711">
        <ele>1872.6436500531</ele>
        <time>2015-01-17T11:05:12Z</time>
      </trkpt>
      <trkpt lat="42.88094" lon="0.11716">
        <ele>1872.6436500531</ele>
        <time>2015-01-17T11:05:47Z</time>
      </trkpt>
      <trkpt lat="42.88094" lon="0.11716">
        <ele>1872.6436500531</ele>
        <time>2015-01-17T11:05:52Z</time>
      </trkpt>
      <trkpt lat="42.88093" lon="0.11716">
        <ele>1872.6436500531</ele>
        <time>2015-01-17T11:06:32Z</time>
      </trkpt>
      <trkpt lat="42.8809" lon="0.11714">
        <ele>1872.6436500531</ele>
        <time>2015-01-17T11:06:37Z</time>
      </trkpt>
      <trkpt lat="42.8809" lon="0.11713">
        <ele>1872.6436500531</ele>
        <time>2015-01-17T11:06:41Z</time>
      </trkpt>
      <trkpt lat="42.88085" lon="0.11721">
        <ele>1875.8990214507</ele>
        <time>2015-01-17T11:07:11Z</time>
      </trkpt>
      <trkpt lat="42.88087" lon="0.11722">
        <ele>1875.8990214507</ele>
        <time>2015-01-17T11:07:17Z</time>
      </trkpt>
      <trkpt lat="42.88089" lon="0.11724">
        <ele>1875.8990214507</ele>
        <time>2015-01-17T11:07:26Z</time>
      </trkpt>
      <trkpt lat="42.8809" lon="0.11726">
        <ele>1875.8990214507</ele>
        <time>2015-01-17T11:07:32Z</time>
      </trkpt>
      <trkpt lat="42.88082" lon="0.11715">
        <ele>1879.8933750949</ele>
        <time>2015-01-17T11:09:06Z</time>
      </trkpt>
      <trkpt lat="42.88078" lon="0.11714">
        <ele>1879.8933750949</ele>
        <time>2015-01-17T11:09:12Z</time>
      </trkpt>
      <trkpt lat="42.88077" lon="0.11713">
        <ele>1879.8933750949</ele>
        <time>2015-01-17T11:09:16Z</time>
      </trkpt>
      <trkpt lat="42.88078" lon="0.11713">
        <ele>1879.8933750949</ele>
        <time>2015-01-17T11:09:21Z</time>
      </trkpt>
      <trkpt lat="42.88075" lon="0.11721">
        <ele>1884.7556019177</ele>
        <time>2015-01-17T11:10:57Z</time>
      </trkpt>
      <trkpt lat="42.88075" lon="0.1172">
        <ele>1884.7556019177</ele>
        <time>2015-01-17T11:11:01Z</time>
      </trkpt>
      <trkpt lat="42.88074" lon="0.11721">
        <ele>1884.7556019177</ele>
        <time>2015-01-17T11:11:21Z</time>
      </trkpt>
      <trkpt lat="42.88074" lon="0.11722">
        <ele>1884.7556019177</ele>
        <time>2015-01-17T11:11:26Z</time>
      </trkpt>
      <trkpt lat="42.88075" lon="0.11729">
        <ele>1884.7556019177</ele>
        <time>2015-01-17T11:11:32Z</time>
      </trkpt>
      <trkpt lat="42.88075" lon="0.11732">
        <ele>1889.233687345</ele>
        <time>2015-01-17T11:11:36Z</time>
      </trkpt>
      <trkpt lat="42.88074" lon="0.11735">
        <ele>1889.233687345</ele>
        <time>2015-01-17T11:11:41Z</time>
      </trkpt>
      <trkpt lat="42.88074" lon="0.11739">
        <ele>1889.233687345</ele>
        <time>2015-01-17T11:11:47Z</time>
      </trkpt>
      <trkpt lat="42.88073" lon="0.11742">
        <ele>1889.233687345</ele>
        <time>2015-01-17T11:11:52Z</time>
      </trkpt>
      <trkpt lat="42.88073" lon="0.11743">
        <ele>1889.233687345</ele>
        <time>2015-01-17T11:11:57Z</time>
      </trkpt>
      <trkpt lat="42.88074" lon="0.11747">
        <ele>1893.3216194571</ele>
        <time>2015-01-17T11:12:01Z</time>
      </trkpt>
      <trkpt lat="42.88074" lon="0.11749">
        <ele>1893.3216194571</ele>
        <time>2015-01-17T11:12:07Z</time>
      </trkpt>
      <trkpt lat="42.88064" lon="0.11745">
        <ele>1897.3176296248</ele>
        <time>2015-01-17T11:13:27Z</time>
      </trkpt>
      <trkpt lat="42.88064" lon="0.11745">
        <ele>1897.3176296248</ele>
        <time>2015-01-17T11:13:32Z</time>
      </trkpt>
      <trkpt lat="42.88063" lon="0.11745">
        <ele>1897.3176296248</ele>
        <time>2015-01-17T11:13:41Z</time>
      </trkpt>
      <trkpt lat="42.88063" lon="0.11745">
        <ele>1897.3176296248</ele>
        <time>2015-01-17T11:13:47Z</time>
      </trkpt>
      <trkpt lat="42.88061" lon="0.11742">
        <ele>1897.3176296248</ele>
        <time>2015-01-17T11:13:52Z</time>
      </trkpt>
      <trkpt lat="42.8806" lon="0.1174">
        <ele>1897.3176296248</ele>
        <time>2015-01-17T11:13:57Z</time>
      </trkpt>
      <trkpt lat="42.88059" lon="0.11739">
        <ele>1897.3176296248</ele>
        <time>2015-01-17T11:14:00Z</time>
      </trkpt>
      <trkpt lat="42.88058" lon="0.11733">
        <ele>1901.2678037111</ele>
        <time>2015-01-17T11:14:07Z</time>
      </trkpt>
      <trkpt lat="42.88057" lon="0.11731">
        <ele>1901.2678037111</ele>
        <time>2015-01-17T11:14:11Z</time>
      </trkpt>
      <trkpt lat="42.88056" lon="0.11729">
        <ele>1901.2678037111</ele>
        <time>2015-01-17T11:14:17Z</time>
      </trkpt>
      <trkpt lat="42.88056" lon="0.11726">
        <ele>1901.2678037111</ele>
        <time>2015-01-17T11:14:21Z</time>
      </trkpt>
      <trkpt lat="42.88055" lon="0.11725">
        <ele>1901.2678037111</ele>
        <time>2015-01-17T11:14:26Z</time>
      </trkpt>
      <trkpt lat="42.88052" lon="0.1172">
        <ele>1905.0277144828</ele>
        <time>2015-01-17T11:14:33Z</time>
      </trkpt>
      <trkpt lat="42.88051" lon="0.11718">
        <ele>1905.0277144828</ele>
        <time>2015-01-17T11:14:36Z</time>
      </trkpt>
      <trkpt lat="42.88049" lon="0.11713">
        <ele>1905.0277144828</ele>
        <time>2015-01-17T11:14:41Z</time>
      </trkpt>
      <trkpt lat="42.8805" lon="0.1171">
        <ele>1905.0277144828</ele>
        <time>2015-01-17T11:14:47Z</time>
      </trkpt>
      <trkpt lat="42.88049" lon="0.11718">
        <ele>1908.6947480802</ele>
        <time>2015-01-17T11:15:21Z</time>
      </trkpt>
      <trkpt lat="42.88045" lon="0.1173">
        <ele>1911.9848024301</ele>
        <time>2015-01-17T11:15:41Z</time>
      </trkpt>
      <trkpt lat="42.88044" lon="0.11731">
        <ele>1911.9848024301</ele>
        <time>2015-01-17T11:15:47Z</time>
      </trkpt>
      <trkpt lat="42.88045" lon="0.11738">
        <ele>1911.9848024301</ele>
        <time>2015-01-17T11:16:01Z</time>
      </trkpt>
      <trkpt lat="42.88045" lon="0.11738">
        <ele>1911.9848024301</ele>
        <time>2015-01-17T11:16:05Z</time>
      </trkpt>
      <trkpt lat="42.88049" lon="0.1175">
        <ele>1915.3707646882</ele>
        <time>2015-01-17T11:17:32Z</time>
      </trkpt>
      <trkpt lat="42.88048" lon="0.1175">
        <ele>1915.3707646882</ele>
        <time>2015-01-17T11:17:46Z</time>
      </trkpt>
      <trkpt lat="42.88043" lon="0.11751">
        <ele>1915.3707646882</ele>
        <time>2015-01-17T11:17:52Z</time>
      </trkpt>
      <trkpt lat="42.88039" lon="0.11755">
        <ele>1918.6421084194</ele>
        <time>2015-01-17T11:18:02Z</time>
      </trkpt>
      <trkpt lat="42.88038" lon="0.11756">
        <ele>1918.6421084194</ele>
        <time>2015-01-17T11:18:06Z</time>
      </trkpt>
      <trkpt lat="42.88038" lon="0.11756">
        <ele>1918.6421084194</ele>
        <time>2015-01-17T11:18:11Z</time>
      </trkpt>
      <trkpt lat="42.88035" lon="0.11748">
        <ele>1918.6421084194</ele>
        <time>2015-01-17T11:19:12Z</time>
      </trkpt>
      <trkpt lat="42.88035" lon="0.11746">
        <ele>1922.1662194979</ele>
        <time>2015-01-17T11:19:15Z</time>
      </trkpt>
      <trkpt lat="42.88035" lon="0.11746">
        <ele>1922.1662194979</ele>
        <time>2015-01-17T11:19:22Z</time>
      </trkpt>
      <trkpt lat="42.88032" lon="0.11737">
        <ele>1922.1662194979</ele>
        <time>2015-01-17T11:20:32Z</time>
      </trkpt>
      <trkpt lat="42.88031" lon="0.11738">
        <ele>1922.1662194979</ele>
        <time>2015-01-17T11:20:37Z</time>
      </trkpt>
      <trkpt lat="42.88028" lon="0.11733">
        <ele>1926.9602015052</ele>
        <time>2015-01-17T11:24:18Z</time>
      </trkpt>
      <trkpt lat="42.88025" lon="0.11732">
        <ele>1926.9602015052</ele>
        <time>2015-01-17T11:24:21Z</time>
      </trkpt>
      <trkpt lat="42.88024" lon="0.11728">
        <ele>1926.9602015052</ele>
        <time>2015-01-17T11:24:26Z</time>
      </trkpt>
      <trkpt lat="42.88023" lon="0.11727">
        <ele>1926.9602015052</ele>
        <time>2015-01-17T11:24:32Z</time>
      </trkpt>
      <trkpt lat="42.88022" lon="0.11724">
        <ele>1931.3401501623</ele>
        <time>2015-01-17T11:24:37Z</time>
      </trkpt>
      <trkpt lat="42.88022" lon="0.11722">
        <ele>1931.3401501623</ele>
        <time>2015-01-17T11:24:42Z</time>
      </trkpt>
      <trkpt lat="42.88029" lon="0.11711">
        <ele>1935.3755737645</ele>
        <time>2015-01-17T11:25:22Z</time>
      </trkpt>
      <trkpt lat="42.88029" lon="0.11711">
        <ele>1935.3755737645</ele>
        <time>2015-01-17T11:25:26Z</time>
      </trkpt>
      <trkpt lat="42.88036" lon="0.11715">
        <ele>1935.3755737645</ele>
        <time>2015-01-17T11:27:22Z</time>
      </trkpt>
      <trkpt lat="42.88035" lon="0.11716">
        <ele>1935.3755737645</ele>
        <time>2015-01-17T11:27:26Z</time>
      </trkpt>
      <trkpt lat="42.88032" lon="0.1171">
        <ele>1939.8380865973</ele>
        <time>2015-01-17T11:28:42Z</time>
      </trkpt>
      <trkpt lat="42.88034" lon="0.11708">
        <ele>1939.8380865973</ele>
        <time>2015-01-17T11:28:46Z</time>
      </trkpt>
      <trkpt lat="42.88033" lon="0.117">
        <ele>1939.8380865973</ele>
        <time>2015-01-17T11:29:22Z</time>
      </trkpt>
      <trkpt lat="42.88033" lon="0.11697">
        <ele>1943.9571823513</ele>
        <time>2015-01-17T11:29:26Z</time>
      </trkpt>
      <trkpt lat="42.88032" lon="0.11695">
        <ele>1943.9571823513</ele>
        <time>2015-01-17T11:29:31Z</time>
      </trkpt>
      <trkpt lat="42.8803" lon="0.11687">
        <ele>1943.9571823513</ele>
        <time>2015-01-17T11:29:37Z</time>
      </trkpt>
      <trkpt lat="42.88029" lon="0.11685">
        <ele>1947.6829371779</ele>
        <time>2015-01-17T11:29:42Z</time>
      </trkpt>
      <trkpt lat="42.88029" lon="0.11685">
        <ele>1947.6829371779</ele>
        <time>2015-01-17T11:29:46Z</time>
      </trkpt>
      <trkpt lat="42.88025" lon="0.11681">
        <ele>1947.6829371779</ele>
        <time>2015-01-17T11:29:56Z</time>
      </trkpt>
      <trkpt lat="42.88022" lon="0.11678">
        <ele>1947.6829371779</ele>
        <time>2015-01-17T11:30:01Z</time>
      </trkpt>
      <trkpt lat="42.8802" lon="0.11677">
        <ele>1951.1144160507</ele>
        <time>2015-01-17T11:30:06Z</time>
      </trkpt>
      <trkpt lat="42.88018" lon="0.11679">
        <ele>1951.1144160507</ele>
        <time>2015-01-17T11:30:11Z</time>
      </trkpt>
      <trkpt lat="42.88017" lon="0.11681">
        <ele>1951.1144160507</ele>
        <time>2015-01-17T11:30:17Z</time>
      </trkpt>
      <trkpt lat="42.88017" lon="0.11681">
        <ele>1951.1144160507</ele>
        <time>2015-01-17T11:30:22Z</time>
      </trkpt>
      <trkpt lat="42.88016" lon="0.11687">
        <ele>1951.1144160507</ele>
        <time>2015-01-17T11:30:26Z</time>
      </trkpt>
      <trkpt lat="42.88015" lon="0.11692">
        <ele>1954.4019817137</ele>
        <time>2015-01-17T11:30:46Z</time>
      </trkpt>
      <trkpt lat="42.88014" lon="0.11695">
        <ele>1954.4019817137</ele>
        <time>2015-01-17T11:30:52Z</time>
      </trkpt>
      <trkpt lat="42.88014" lon="0.11695">
        <ele>1954.4019817137</ele>
        <time>2015-01-17T11:30:57Z</time>
      </trkpt>
      <trkpt lat="42.88011" lon="0.1169">
        <ele>1954.4019817137</ele>
        <time>2015-01-17T11:31:22Z</time>
      </trkpt>
      <trkpt lat="42.88011" lon="0.11687">
        <ele>1957.5701669162</ele>
        <time>2015-01-17T11:31:26Z</time>
      </trkpt>
      <trkpt lat="42.88009" lon="0.11684">
        <ele>1957.5701669162</ele>
        <time>2015-01-17T11:31:32Z</time>
      </trkpt>
      <trkpt lat="42.88008" lon="0.1168">
        <ele>1957.5701669162</ele>
        <time>2015-01-17T11:31:37Z</time>
      </trkpt>
      <trkpt lat="42.88009" lon="0.11677">
        <ele>1957.5701669162</ele>
        <time>2015-01-17T11:31:41Z</time>
      </trkpt>
      <trkpt lat="42.88006" lon="0.11673">
        <ele>1960.4836093866</ele>
        <time>2015-01-17T11:31:46Z</time>
      </trkpt>
      <trkpt lat="42.88003" lon="0.11671">
        <ele>1960.4836093866</ele>
        <time>2015-01-17T11:31:52Z</time>
      </trkpt>
      <trkpt lat="42.88001" lon="0.11668">
        <ele>1960.4836093866</ele>
        <time>2015-01-17T11:31:57Z</time>
      </trkpt>
      <trkpt lat="42.87999" lon="0.11668">
        <ele>1960.4836093866</ele>
        <time>2015-01-17T11:32:02Z</time>
      </trkpt>
      <trkpt lat="42.87998" lon="0.11667">
        <ele>1963.1906253485</ele>
        <time>2015-01-17T11:32:06Z</time>
      </trkpt>
      <trkpt lat="42.87998" lon="0.11666">
        <ele>1963.1906253485</ele>
        <time>2015-01-17T11:32:12Z</time>
      </trkpt>
      <trkpt lat="42.87998" lon="0.11667">
        <ele>1963.1906253485</ele>
        <time>2015-01-17T11:32:17Z</time>
      </trkpt>
      <trkpt lat="42.87995" lon="0.11671">
        <ele>1963.1906253485</ele>
        <time>2015-01-17T11:32:37Z</time>
      </trkpt>
      <trkpt lat="42.87993" lon="0.11673">
        <ele>1963.1906253485</ele>
        <time>2015-01-17T11:34:57Z</time>
      </trkpt>
      <trkpt lat="42.87994" lon="0.11676">
        <ele>1966.572485</ele>
        <time>2015-01-17T11:35:03Z</time>
      </trkpt>
      <trkpt lat="42.87994" lon="0.11681">
        <ele>1966.572485</ele>
        <time>2015-01-17T11:35:06Z</time>
      </trkpt>
      <trkpt lat="42.87993" lon="0.11686">
        <ele>1966.572485</ele>
        <time>2015-01-17T11:35:12Z</time>
      </trkpt>
      <trkpt lat="42.87992" lon="0.1169">
        <ele>1969.5560429487</ele>
        <time>2015-01-17T11:35:17Z</time>
      </trkpt>
      <trkpt lat="42.8799" lon="0.11691">
        <ele>1969.5560429487</ele>
        <time>2015-01-17T11:35:21Z</time>
      </trkpt>
      <trkpt lat="42.87992" lon="0.11692">
        <ele>1969.5560429487</ele>
        <time>2015-01-17T11:35:26Z</time>
      </trkpt>
      <trkpt lat="42.87991" lon="0.11689">
        <ele>1969.5560429487</ele>
        <time>2015-01-17T11:35:42Z</time>
      </trkpt>
      <trkpt lat="42.8799" lon="0.11687">
        <ele>1969.5560429487</ele>
        <time>2015-01-17T11:35:47Z</time>
      </trkpt>
      <trkpt lat="42.87988" lon="0.11684">
        <ele>1972.5892794571</ele>
        <time>2015-01-17T11:35:52Z</time>
      </trkpt>
      <trkpt lat="42.87986" lon="0.11679">
        <ele>1972.5892794571</ele>
        <time>2015-01-17T11:35:57Z</time>
      </trkpt>
      <trkpt lat="42.87983" lon="0.11675">
        <ele>1972.5892794571</ele>
        <time>2015-01-17T11:36:02Z</time>
      </trkpt>
      <trkpt lat="42.87982" lon="0.11672">
        <ele>1975.3810392022</ele>
        <time>2015-01-17T11:36:07Z</time>
      </trkpt>
      <trkpt lat="42.87981" lon="0.11669">
        <ele>1975.3810392022</ele>
        <time>2015-01-17T11:36:12Z</time>
      </trkpt>
      <trkpt lat="42.87981" lon="0.11667">
        <ele>1975.3810392022</ele>
        <time>2015-01-17T11:36:17Z</time>
      </trkpt>
      <trkpt lat="42.87981" lon="0.11668">
        <ele>1975.3810392022</ele>
        <time>2015-01-17T11:36:22Z</time>
      </trkpt>
      <trkpt lat="42.87977" lon="0.11673">
        <ele>1975.3810392022</ele>
        <time>2015-01-17T11:36:32Z</time>
      </trkpt>
      <trkpt lat="42.87978" lon="0.11674">
        <ele>1977.9793265902</ele>
        <time>2015-01-17T11:36:37Z</time>
      </trkpt>
      <trkpt lat="42.87978" lon="0.11681">
        <ele>1977.9793265902</ele>
        <time>2015-01-17T11:36:47Z</time>
      </trkpt>
      <trkpt lat="42.8798" lon="0.11683">
        <ele>1977.9793265902</ele>
        <time>2015-01-17T11:36:52Z</time>
      </trkpt>
      <trkpt lat="42.87976" lon="0.11675">
        <ele>1980.8038934675</ele>
        <time>2015-01-17T11:37:21Z</time>
      </trkpt>
      <trkpt lat="42.87977" lon="0.11672">
        <ele>1980.8038934675</ele>
        <time>2015-01-17T11:37:27Z</time>
      </trkpt>
      <trkpt lat="42.87976" lon="0.11671">
        <ele>1980.8038934675</ele>
        <time>2015-01-17T11:37:31Z</time>
      </trkpt>
      <trkpt lat="42.87973" lon="0.11679">
        <ele>1983.4504448168</ele>
        <time>2015-01-17T11:37:46Z</time>
      </trkpt>
      <trkpt lat="42.87973" lon="0.11679">
        <ele>1983.4504448168</ele>
        <time>2015-01-17T11:37:52Z</time>
      </trkpt>
      <trkpt lat="42.87972" lon="0.11672">
        <ele>1983.4504448168</ele>
        <time>2015-01-17T11:38:12Z</time>
      </trkpt>
      <trkpt lat="42.87972" lon="0.1167">
        <ele>1983.4504448168</ele>
        <time>2015-01-17T11:38:16Z</time>
      </trkpt>
      <trkpt lat="42.87972" lon="0.1167">
        <ele>1983.4504448168</ele>
        <time>2015-01-17T11:38:22Z</time>
      </trkpt>
      <trkpt lat="42.8797" lon="0.11676">
        <ele>1986.1934107941</ele>
        <time>2015-01-17T11:38:26Z</time>
      </trkpt>
      <trkpt lat="42.87969" lon="0.11679">
        <ele>1986.1934107941</ele>
        <time>2015-01-17T11:38:32Z</time>
      </trkpt>
      <trkpt lat="42.87968" lon="0.11679">
        <ele>1986.1934107941</ele>
        <time>2015-01-17T11:38:37Z</time>
      </trkpt>
      <trkpt lat="42.87969" lon="0.11687">
        <ele>1986.1934107941</ele>
        <time>2015-01-17T11:38:52Z</time>
      </trkpt>
      <trkpt lat="42.87968" lon="0.11689">
        <ele>1988.7680100501</ele>
        <time>2015-01-17T11:38:56Z</time>
      </trkpt>
      <trkpt lat="42.87966" lon="0.11694">
        <ele>1988.7680100501</ele>
        <time>2015-01-17T11:39:02Z</time>
      </trkpt>
      <trkpt lat="42.87967" lon="0.11697">
        <ele>1988.7680100501</ele>
        <time>2015-01-17T11:39:06Z</time>
      </trkpt>
      <trkpt lat="42.87966" lon="0.11701">
        <ele>1991.1023286921</ele>
        <time>2015-01-17T11:39:12Z</time>
      </trkpt>
      <trkpt lat="42.87965" lon="0.11701">
        <ele>1991.1023286921</ele>
        <time>2015-01-17T11:39:17Z</time>
      </trkpt>
      <trkpt lat="42.8796" lon="0.11705">
        <ele>1991.1023286921</ele>
        <time>2015-01-17T11:40:16Z</time>
      </trkpt>
      <trkpt lat="42.87959" lon="0.11708">
        <ele>1993.2601126753</ele>
        <time>2015-01-17T11:40:22Z</time>
      </trkpt>
      <trkpt lat="42.87958" lon="0.11712">
        <ele>1993.2601126753</ele>
        <time>2015-01-17T11:40:27Z</time>
      </trkpt>
      <trkpt lat="42.87957" lon="0.11715">
        <ele>1993.2601126753</ele>
        <time>2015-01-17T11:40:32Z</time>
      </trkpt>
      <trkpt lat="42.87956" lon="0.11717">
        <ele>1993.2601126753</ele>
        <time>2015-01-17T11:40:37Z</time>
      </trkpt>
      <trkpt lat="42.87954" lon="0.11719">
        <ele>1995.3441482582</ele>
        <time>2015-01-17T11:40:42Z</time>
      </trkpt>
      <trkpt lat="42.87954" lon="0.11723">
        <ele>1995.3441482582</ele>
        <time>2015-01-17T11:40:47Z</time>
      </trkpt>
      <trkpt lat="42.87953" lon="0.11725">
        <ele>1995.3441482582</ele>
        <time>2015-01-17T11:40:52Z</time>
      </trkpt>
      <trkpt lat="42.87951" lon="0.11726">
        <ele>1995.3441482582</ele>
        <time>2015-01-17T11:40:57Z</time>
      </trkpt>
      <trkpt lat="42.87949" lon="0.11725">
        <ele>1995.3441482582</ele>
        <time>2015-01-17T11:41:02Z</time>
      </trkpt>
      <trkpt lat="42.87949" lon="0.11725">
        <ele>1995.3441482582</ele>
        <time>2015-01-17T11:41:07Z</time>
      </trkpt>
      <trkpt lat="42.87947" lon="0.11722">
        <ele>1997.6372082803</ele>
        <time>2015-01-17T11:41:21Z</time>
      </trkpt>
      <trkpt lat="42.87946" lon="0.11718">
        <ele>1997.6372082803</ele>
        <time>2015-01-17T11:41:27Z</time>
      </trkpt>
      <trkpt lat="42.87943" lon="0.11715">
        <ele>1997.6372082803</ele>
        <time>2015-01-17T11:41:31Z</time>
      </trkpt>
      <trkpt lat="42.87941" lon="0.11711">
        <ele>1999.7810058892</ele>
        <time>2015-01-17T11:41:37Z</time>
      </trkpt>
      <trkpt lat="42.87941" lon="0.11712">
        <ele>1999.7810058892</ele>
        <time>2015-01-17T11:41:42Z</time>
      </trkpt>
      <trkpt lat="42.87941" lon="0.11713">
        <ele>1999.7810058892</ele>
        <time>2015-01-17T11:42:22Z</time>
      </trkpt>
      <trkpt lat="42.87934" lon="0.11708">
        <ele>1999.7810058892</ele>
        <time>2015-01-17T11:50:45Z</time>
      </trkpt>
      <trkpt lat="42.87928" lon="0.11705">
        <ele>2005.118801635</ele>
        <time>2015-01-17T11:50:50Z</time>
      </trkpt>
      <trkpt lat="42.87925" lon="0.11704">
        <ele>2005.118801635</ele>
        <time>2015-01-17T11:50:55Z</time>
      </trkpt>
      <trkpt lat="42.87923" lon="0.11704">
        <ele>2005.118801635</ele>
        <time>2015-01-17T11:51:00Z</time>
      </trkpt>
      <trkpt lat="42.87922" lon="0.11705">
        <ele>2005.118801635</ele>
        <time>2015-01-17T11:51:05Z</time>
      </trkpt>
      <trkpt lat="42.87918" lon="0.11704">
        <ele>2009.9228192289</ele>
        <time>2015-01-17T11:51:10Z</time>
      </trkpt>
      <trkpt lat="42.87915" lon="0.11704">
        <ele>2009.9228192289</ele>
        <time>2015-01-17T11:51:15Z</time>
      </trkpt>
      <trkpt lat="42.87911" lon="0.11705">
        <ele>2009.9228192289</ele>
        <time>2015-01-17T11:51:20Z</time>
      </trkpt>
      <trkpt lat="42.87906" lon="0.11705">
        <ele>2014.2569139339</ele>
        <time>2015-01-17T11:51:25Z</time>
      </trkpt>
      <trkpt lat="42.87903" lon="0.11705">
        <ele>2014.2569139339</ele>
        <time>2015-01-17T11:51:30Z</time>
      </trkpt>
      <trkpt lat="42.879" lon="0.11702">
        <ele>2014.2569139339</ele>
        <time>2015-01-17T11:51:35Z</time>
      </trkpt>
      <trkpt lat="42.87898" lon="0.117">
        <ele>2014.2569139339</ele>
        <time>2015-01-17T11:51:40Z</time>
      </trkpt>
      <trkpt lat="42.87896" lon="0.11698">
        <ele>2018.4121375623</ele>
        <time>2015-01-17T11:51:45Z</time>
      </trkpt>
      <trkpt lat="42.87892" lon="0.11696">
        <ele>2018.4121375623</ele>
        <time>2015-01-17T11:51:50Z</time>
      </trkpt>
      <trkpt lat="42.87889" lon="0.11694">
        <ele>2018.4121375623</ele>
        <time>2015-01-17T11:51:55Z</time>
      </trkpt>
      <trkpt lat="42.87887" lon="0.11692">
        <ele>2022.226331408</ele>
        <time>2015-01-17T11:52:00Z</time>
      </trkpt>
      <trkpt lat="42.87885" lon="0.11689">
        <ele>2022.226331408</ele>
        <time>2015-01-17T11:52:05Z</time>
      </trkpt>
      <trkpt lat="42.87883" lon="0.11689">
        <ele>2022.226331408</ele>
        <time>2015-01-17T11:52:10Z</time>
      </trkpt>
      <trkpt lat="42.87881" lon="0.11689">
        <ele>2022.226331408</ele>
        <time>2015-01-17T11:52:15Z</time>
      </trkpt>
      <trkpt lat="42.8788" lon="0.11691">
        <ele>2022.226331408</ele>
        <time>2015-01-17T11:52:20Z</time>
      </trkpt>
      <trkpt lat="42.87883" lon="0.11694">
        <ele>2025.9825478417</ele>
        <time>2015-01-17T11:52:25Z</time>
      </trkpt>
      <trkpt lat="42.87883" lon="0.11695">
        <ele>2025.9825478417</ele>
        <time>2015-01-17T11:52:30Z</time>
      </trkpt>
      <trkpt lat="42.87883" lon="0.11699">
        <ele>2025.9825478417</ele>
        <time>2015-01-17T11:52:45Z</time>
      </trkpt>
      <trkpt lat="42.87884" lon="0.11704">
        <ele>2025.9825478417</ele>
        <time>2015-01-17T11:52:50Z</time>
      </trkpt>
      <trkpt lat="42.87885" lon="0.11708">
        <ele>2029.1938435802</ele>
        <time>2015-01-17T11:52:55Z</time>
      </trkpt>
      <trkpt lat="42.87887" lon="0.11712">
        <ele>2029.1938435802</ele>
        <time>2015-01-17T11:53:00Z</time>
      </trkpt>
      <trkpt lat="42.87887" lon="0.11713">
        <ele>2029.1938435802</ele>
        <time>2015-01-17T11:53:05Z</time>
      </trkpt>
      <trkpt lat="42.87884" lon="0.11712">
        <ele>2029.1938435802</ele>
        <time>2015-01-17T11:53:20Z</time>
      </trkpt>
      <trkpt lat="42.87881" lon="0.11711">
        <ele>2031.9582105763</ele>
        <time>2015-01-17T11:53:25Z</time>
      </trkpt>
      <trkpt lat="42.87879" lon="0.1171">
        <ele>2031.9582105763</ele>
        <time>2015-01-17T11:53:30Z</time>
      </trkpt>
      <trkpt lat="42.87877" lon="0.11709">
        <ele>2031.9582105763</ele>
        <time>2015-01-17T11:53:35Z</time>
      </trkpt>
      <trkpt lat="42.87875" lon="0.11708">
        <ele>2031.9582105763</ele>
        <time>2015-01-17T11:53:40Z</time>
      </trkpt>
      <trkpt lat="42.87873" lon="0.11708">
        <ele>2031.9582105763</ele>
        <time>2015-01-17T11:53:45Z</time>
      </trkpt>
      <trkpt lat="42.87871" lon="0.11707">
        <ele>2034.7279861487</ele>
        <time>2015-01-17T11:53:50Z</time>
      </trkpt>
      <trkpt lat="42.8787" lon="0.11708">
        <ele>2034.7279861487</ele>
        <time>2015-01-17T11:53:55Z</time>
      </trkpt>
      <trkpt lat="42.8787" lon="0.11712">
        <ele>2034.7279861487</ele>
        <time>2015-01-17T11:54:00Z</time>
      </trkpt>
      <trkpt lat="42.8787" lon="0.11715">
        <ele>2034.7279861487</ele>
        <time>2015-01-17T11:54:05Z</time>
      </trkpt>
      <trkpt lat="42.8787" lon="0.11715">
        <ele>2034.7279861487</ele>
        <time>2015-01-17T11:54:10Z</time>
      </trkpt>
      <trkpt lat="42.87869" lon="0.11715">
        <ele>2034.7279861487</ele>
        <time>2015-01-17T11:54:45Z</time>
      </trkpt>
      <trkpt lat="42.87868" lon="0.11719">
        <ele>2037.6628728491</ele>
        <time>2015-01-17T11:54:50Z</time>
      </trkpt>
      <trkpt lat="42.87867" lon="0.11721">
        <ele>2037.6628728491</ele>
        <time>2015-01-17T11:54:55Z</time>
      </trkpt>
      <trkpt lat="42.87865" lon="0.11721">
        <ele>2037.6628728491</ele>
        <time>2015-01-17T11:55:00Z</time>
      </trkpt>
      <trkpt lat="42.87861" lon="0.11719">
        <ele>2037.6628728491</ele>
        <time>2015-01-17T11:55:05Z</time>
      </trkpt>
      <trkpt lat="42.8786" lon="0.11718">
        <ele>2040.7806832373</ele>
        <time>2015-01-17T11:55:10Z</time>
      </trkpt>
      <trkpt lat="42.87857" lon="0.11719">
        <ele>2040.7806832373</ele>
        <time>2015-01-17T11:55:15Z</time>
      </trkpt>
      <trkpt lat="42.87856" lon="0.1172">
        <ele>2040.7806832373</ele>
        <time>2015-01-17T11:55:20Z</time>
      </trkpt>
      <trkpt lat="42.87856" lon="0.11723">
        <ele>2040.7806832373</ele>
        <time>2015-01-17T11:55:35Z</time>
      </trkpt>
      <trkpt lat="42.87856" lon="0.11726">
        <ele>2040.7806832373</ele>
        <time>2015-01-17T11:55:40Z</time>
      </trkpt>
      <trkpt lat="42.87856" lon="0.1173">
        <ele>2044.0541762797</ele>
        <time>2015-01-17T11:55:45Z</time>
      </trkpt>
      <trkpt lat="42.87855" lon="0.11734">
        <ele>2044.0541762797</ele>
        <time>2015-01-17T11:55:50Z</time>
      </trkpt>
      <trkpt lat="42.87855" lon="0.11738">
        <ele>2044.0541762797</ele>
        <time>2015-01-17T11:55:55Z</time>
      </trkpt>
      <trkpt lat="42.87855" lon="0.11743">
        <ele>2047.1694518167</ele>
        <time>2015-01-17T11:56:00Z</time>
      </trkpt>
      <trkpt lat="42.87856" lon="0.11748">
        <ele>2047.1694518167</ele>
        <time>2015-01-17T11:56:05Z</time>
      </trkpt>
      <trkpt lat="42.87856" lon="0.11752">
        <ele>2047.1694518167</ele>
        <time>2015-01-17T11:56:10Z</time>
      </trkpt>
      <trkpt lat="42.87857" lon="0.11756">
        <ele>2050.023453669</ele>
        <time>2015-01-17T11:56:15Z</time>
      </trkpt>
      <trkpt lat="42.87857" lon="0.11761">
        <ele>2050.023453669</ele>
        <time>2015-01-17T11:56:20Z</time>
      </trkpt>
      <trkpt lat="42.87855" lon="0.11763">
        <ele>2050.023453669</ele>
        <time>2015-01-17T11:56:25Z</time>
      </trkpt>
      <trkpt lat="42.87855" lon="0.11767">
        <ele>2050.023453669</ele>
        <time>2015-01-17T11:56:30Z</time>
      </trkpt>
      <trkpt lat="42.87853" lon="0.1177">
        <ele>2052.838468168</ele>
        <time>2015-01-17T11:56:35Z</time>
      </trkpt>
      <trkpt lat="42.87853" lon="0.1177">
        <ele>2052.838468168</ele>
        <time>2015-01-17T11:56:40Z</time>
      </trkpt>
      <trkpt lat="42.87852" lon="0.11766">
        <ele>2052.838468168</ele>
        <time>2015-01-17T11:56:50Z</time>
      </trkpt>
      <trkpt lat="42.87852" lon="0.11766">
        <ele>2052.838468168</ele>
        <time>2015-01-17T11:56:55Z</time>
      </trkpt>
      <trkpt lat="42.87851" lon="0.11762">
        <ele>2052.838468168</ele>
        <time>2015-01-17T11:57:10Z</time>
      </trkpt>
      <trkpt lat="42.87849" lon="0.11758">
        <ele>2055.5467424765</ele>
        <time>2015-01-17T11:57:15Z</time>
      </trkpt>
      <trkpt lat="42.87847" lon="0.11756">
        <ele>2055.5467424765</ele>
        <time>2015-01-17T11:57:20Z</time>
      </trkpt>
      <trkpt lat="42.87845" lon="0.11753">
        <ele>2055.5467424765</ele>
        <time>2015-01-17T11:57:25Z</time>
      </trkpt>
      <trkpt lat="42.87843" lon="0.11752">
        <ele>2055.5467424765</ele>
        <time>2015-01-17T11:57:30Z</time>
      </trkpt>
      <trkpt lat="42.87844" lon="0.11752">
        <ele>2055.5467424765</ele>
        <time>2015-01-17T11:57:35Z</time>
      </trkpt>
      <trkpt lat="42.87842" lon="0.11751">
        <ele>2057.8984432786</ele>
        <time>2015-01-17T11:57:40Z</time>
      </trkpt>
      <trkpt lat="42.87839" lon="0.11748">
        <ele>2057.8984432786</ele>
        <time>2015-01-17T11:57:45Z</time>
      </trkpt>
      <trkpt lat="42.87837" lon="0.11745">
        <ele>2057.8984432786</ele>
        <time>2015-01-17T11:57:50Z</time>
      </trkpt>
      <trkpt lat="42.87834" lon="0.11742">
        <ele>2060.1674616578</ele>
        <time>2015-01-17T11:57:55Z</time>
      </trkpt>
      <trkpt lat="42.87831" lon="0.11741">
        <ele>2060.1674616578</ele>
        <time>2015-01-17T11:58:00Z</time>
      </trkpt>
      <trkpt lat="42.87831" lon="0.1174">
        <ele>2060.1674616578</ele>
        <time>2015-01-17T11:58:05Z</time>
      </trkpt>
      <trkpt lat="42.8783" lon="0.11741">
        <ele>2060.1674616578</ele>
        <time>2015-01-17T11:58:15Z</time>
      </trkpt>
      <trkpt lat="42.8783" lon="0.11742">
        <ele>2060.1674616578</ele>
        <time>2015-01-17T11:58:20Z</time>
      </trkpt>
      <trkpt lat="42.87828" lon="0.11748">
        <ele>2062.9968785371</ele>
        <time>2015-01-17T12:06:50Z</time>
      </trkpt>
      <trkpt lat="42.87829" lon="0.11751">
        <ele>2062.9968785371</ele>
        <time>2015-01-17T12:06:55Z</time>
      </trkpt>
      <trkpt lat="42.87831" lon="0.11756">
        <ele>2062.9968785371</ele>
        <time>2015-01-17T12:07:00Z</time>
      </trkpt>
      <trkpt lat="42.87833" lon="0.11761">
        <ele>2065.3957118122</ele>
        <time>2015-01-17T12:07:05Z</time>
      </trkpt>
      <trkpt lat="42.87837" lon="0.11764">
        <ele>2065.3957118122</ele>
        <time>2015-01-17T12:07:10Z</time>
      </trkpt>
      <trkpt lat="42.87839" lon="0.11769">
        <ele>2067.4269068191</ele>
        <time>2015-01-17T12:07:15Z</time>
      </trkpt>
      <trkpt lat="42.87839" lon="0.11774">
        <ele>2067.4269068191</ele>
        <time>2015-01-17T12:07:20Z</time>
      </trkpt>
      <trkpt lat="42.87839" lon="0.11779">
        <ele>2067.4269068191</ele>
        <time>2015-01-17T12:07:25Z</time>
      </trkpt>
      <trkpt lat="42.87839" lon="0.11783">
        <ele>2069.0921323792</ele>
        <time>2015-01-17T12:07:30Z</time>
      </trkpt>
      <trkpt lat="42.87838" lon="0.11786">
        <ele>2069.0921323792</ele>
        <time>2015-01-17T12:07:35Z</time>
      </trkpt>
      <trkpt lat="42.87837" lon="0.11784">
        <ele>2069.0921323792</ele>
        <time>2015-01-17T12:07:40Z</time>
      </trkpt>
      <trkpt lat="42.8783" lon="0.11775">
        <ele>2070.4515590092</ele>
        <time>2015-01-17T12:08:25Z</time>
      </trkpt>
      <trkpt lat="42.87831" lon="0.11775">
        <ele>2070.4515590092</ele>
        <time>2015-01-17T12:08:30Z</time>
      </trkpt>
      <trkpt lat="42.87825" lon="0.11768">
        <ele>2070.4515590092</ele>
        <time>2015-01-17T12:08:50Z</time>
      </trkpt>
      <trkpt lat="42.87823" lon="0.11769">
        <ele>2071.4896828621</ele>
        <time>2015-01-17T12:08:55Z</time>
      </trkpt>
      <trkpt lat="42.8782" lon="0.11778">
        <ele>2071.4896828621</ele>
        <time>2015-01-17T12:10:00Z</time>
      </trkpt>
      <trkpt lat="42.8782" lon="0.11781">
        <ele>2072.4811949582</ele>
        <time>2015-01-17T12:10:05Z</time>
      </trkpt>
      <trkpt lat="42.87819" lon="0.11784">
        <ele>2072.4811949582</ele>
        <time>2015-01-17T12:10:10Z</time>
      </trkpt>
      <trkpt lat="42.87818" lon="0.11786">
        <ele>2072.4811949582</ele>
        <time>2015-01-17T12:10:15Z</time>
      </trkpt>
      <trkpt lat="42.87818" lon="0.11789">
        <ele>2072.4811949582</ele>
        <time>2015-01-17T12:10:20Z</time>
      </trkpt>
      <trkpt lat="42.87811" lon="0.11788">
        <ele>2073.450080868</ele>
        <time>2015-01-17T12:10:40Z</time>
      </trkpt>
      <trkpt lat="42.87807" lon="0.11787">
        <ele>2073.450080868</ele>
        <time>2015-01-17T12:10:45Z</time>
      </trkpt>
      <trkpt lat="42.87804" lon="0.11785">
        <ele>2073.450080868</ele>
        <time>2015-01-17T12:10:50Z</time>
      </trkpt>
      <trkpt lat="42.87801" lon="0.11784">
        <ele>2074.2600133955</ele>
        <time>2015-01-17T12:10:55Z</time>
      </trkpt>
      <trkpt lat="42.87801" lon="0.11783">
        <ele>2074.2600133955</ele>
        <time>2015-01-17T12:11:00Z</time>
      </trkpt>
      <trkpt lat="42.87801" lon="0.11783">
        <ele>2074.2600133955</ele>
        <time>2015-01-17T12:11:05Z</time>
      </trkpt>
      <trkpt lat="42.878" lon="0.11787">
        <ele>2074.2600133955</ele>
        <time>2015-01-17T12:11:10Z</time>
      </trkpt>
      <trkpt lat="42.878" lon="0.11789">
        <ele>2074.2600133955</ele>
        <time>2015-01-17T12:11:15Z</time>
      </trkpt>
      <trkpt lat="42.878" lon="0.11789">
        <ele>2074.2600133955</ele>
        <time>2015-01-17T12:11:20Z</time>
      </trkpt>
      <trkpt lat="42.87804" lon="0.11802">
        <ele>2075.1308888252</ele>
        <time>2015-01-17T12:11:50Z</time>
      </trkpt>
      <trkpt lat="42.87804" lon="0.11803">
        <ele>2075.1308888252</ele>
        <time>2015-01-17T12:11:55Z</time>
      </trkpt>
      <trkpt lat="42.87793" lon="0.11807">
        <ele>2076.1941091326</ele>
        <time>2015-01-17T12:12:40Z</time>
      </trkpt>
      <trkpt lat="42.87791" lon="0.11808">
        <ele>2076.1941091326</ele>
        <time>2015-01-17T12:12:45Z</time>
      </trkpt>
      <trkpt lat="42.8779" lon="0.11807">
        <ele>2076.1941091326</ele>
        <time>2015-01-17T12:12:50Z</time>
      </trkpt>
      <trkpt lat="42.87785" lon="0.11811">
        <ele>2076.1941091326</ele>
        <time>2015-01-17T12:12:55Z</time>
      </trkpt>
      <trkpt lat="42.87784" lon="0.11814">
        <ele>2077.1528377445</ele>
        <time>2015-01-17T12:13:00Z</time>
      </trkpt>
      <trkpt lat="42.87784" lon="0.11818">
        <ele>2077.1528377445</ele>
        <time>2015-01-17T12:13:05Z</time>
      </trkpt>
      <trkpt lat="42.87782" lon="0.1182">
        <ele>2077.1528377445</ele>
        <time>2015-01-17T12:13:10Z</time>
      </trkpt>
      <trkpt lat="42.87782" lon="0.11823">
        <ele>2077.1528377445</ele>
        <time>2015-01-17T12:13:15Z</time>
      </trkpt>
      <trkpt lat="42.8778" lon="0.11822">
        <ele>2078.0924823771</ele>
        <time>2015-01-17T12:13:20Z</time>
      </trkpt>
      <trkpt lat="42.87778" lon="0.11823">
        <ele>2078.0924823771</ele>
        <time>2015-01-17T12:13:25Z</time>
      </trkpt>
      <trkpt lat="42.87777" lon="0.11823">
        <ele>2078.0924823771</ele>
        <time>2015-01-17T12:13:30Z</time>
      </trkpt>
      <trkpt lat="42.87776" lon="0.11823">
        <ele>2078.0924823771</ele>
        <time>2015-01-17T12:13:35Z</time>
      </trkpt>
      <trkpt lat="42.87773" lon="0.11824">
        <ele>2078.0924823771</ele>
        <time>2015-01-17T12:13:40Z</time>
      </trkpt>
      <trkpt lat="42.87771" lon="0.11825">
        <ele>2079.0488576976</ele>
        <time>2015-01-17T12:13:45Z</time>
      </trkpt>
      <trkpt lat="42.87768" lon="0.11825">
        <ele>2079.0488576976</ele>
        <time>2015-01-17T12:13:50Z</time>
      </trkpt>
      <trkpt lat="42.87768" lon="0.11825">
        <ele>2079.0488576976</ele>
        <time>2015-01-17T12:13:55Z</time>
      </trkpt>
      <trkpt lat="42.87765" lon="0.11832">
        <ele>2080.3431781565</ele>
        <time>2015-01-17T12:14:35Z</time>
      </trkpt>
      <trkpt lat="42.87768" lon="0.11837">
        <ele>2080.3431781565</ele>
        <time>2015-01-17T12:14:40Z</time>
      </trkpt>
      <trkpt lat="42.87771" lon="0.11837">
        <ele>2080.3431781565</ele>
        <time>2015-01-17T12:14:45Z</time>
      </trkpt>
      <trkpt lat="42.87772" lon="0.11839">
        <ele>2081.5225866938</ele>
        <time>2015-01-17T12:14:50Z</time>
      </trkpt>
      <trkpt lat="42.87774" lon="0.11843">
        <ele>2081.5225866938</ele>
        <time>2015-01-17T12:14:55Z</time>
      </trkpt>
      <trkpt lat="42.87779" lon="0.11845">
        <ele>2081.5225866938</ele>
        <time>2015-01-17T12:15:00Z</time>
      </trkpt>
      <trkpt lat="42.8778" lon="0.11848">
        <ele>2082.5999962112</ele>
        <time>2015-01-17T12:15:05Z</time>
      </trkpt>
      <trkpt lat="42.87779" lon="0.11849">
        <ele>2082.5999962112</ele>
        <time>2015-01-17T12:15:10Z</time>
      </trkpt>
      <trkpt lat="42.87768" lon="0.11853">
        <ele>2084.4089372912</ele>
        <time>2015-01-17T12:16:10Z</time>
      </trkpt>
      <trkpt lat="42.87766" lon="0.11852">
        <ele>2084.4089372912</ele>
        <time>2015-01-17T12:16:15Z</time>
      </trkpt>
      <trkpt lat="42.87765" lon="0.11854">
        <ele>2084.4089372912</ele>
        <time>2015-01-17T12:16:20Z</time>
      </trkpt>
      <trkpt lat="42.87764" lon="0.11857">
        <ele>2084.4089372912</ele>
        <time>2015-01-17T12:16:25Z</time>
      </trkpt>
      <trkpt lat="42.87763" lon="0.11862">
        <ele>2086.1054594223</ele>
        <time>2015-01-17T12:16:30Z</time>
      </trkpt>
      <trkpt lat="42.87761" lon="0.11864">
        <ele>2086.1054594223</ele>
        <time>2015-01-17T12:16:35Z</time>
      </trkpt>
      <trkpt lat="42.87759" lon="0.11867">
        <ele>2086.1054594223</ele>
        <time>2015-01-17T12:16:40Z</time>
      </trkpt>
      <trkpt lat="42.87759" lon="0.11869">
        <ele>2086.1054594223</ele>
        <time>2015-01-17T12:16:45Z</time>
      </trkpt>
      <trkpt lat="42.87754" lon="0.11879">
        <ele>2087.9165504966</ele>
        <time>2015-01-17T12:17:15Z</time>
      </trkpt>
      <trkpt lat="42.87754" lon="0.11882">
        <ele>2087.9165504966</ele>
        <time>2015-01-17T12:17:20Z</time>
      </trkpt>
      <trkpt lat="42.87756" lon="0.11885">
        <ele>2087.9165504966</ele>
        <time>2015-01-17T12:17:25Z</time>
      </trkpt>
      <trkpt lat="42.87757" lon="0.11889">
        <ele>2087.9165504966</ele>
        <time>2015-01-17T12:17:30Z</time>
      </trkpt>
      <trkpt lat="42.87759" lon="0.11892">
        <ele>2089.6773657632</ele>
        <time>2015-01-17T12:17:35Z</time>
      </trkpt>
      <trkpt lat="42.87761" lon="0.11897">
        <ele>2089.6773657632</ele>
        <time>2015-01-17T12:17:40Z</time>
      </trkpt>
      <trkpt lat="42.87761" lon="0.11899">
        <ele>2089.6773657632</ele>
        <time>2015-01-17T12:17:45Z</time>
      </trkpt>
      <trkpt lat="42.8776" lon="0.11902">
        <ele>2089.6773657632</ele>
        <time>2015-01-17T12:17:50Z</time>
      </trkpt>
      <trkpt lat="42.87759" lon="0.11904">
        <ele>2091.3936898499</ele>
        <time>2015-01-17T12:17:55Z</time>
      </trkpt>
      <trkpt lat="42.87757" lon="0.11904">
        <ele>2091.3936898499</ele>
        <time>2015-01-17T12:18:00Z</time>
      </trkpt>
      <trkpt lat="42.87755" lon="0.11911">
        <ele>2091.3936898499</ele>
        <time>2015-01-17T12:18:10Z</time>
      </trkpt>
      <trkpt lat="42.87756" lon="0.11915">
        <ele>2093.1429240363</ele>
        <time>2015-01-17T12:18:15Z</time>
      </trkpt>
      <trkpt lat="42.87757" lon="0.11917">
        <ele>2093.1429240363</ele>
        <time>2015-01-17T12:18:20Z</time>
      </trkpt>
      <trkpt lat="42.87759" lon="0.11918">
        <ele>2093.1429240363</ele>
        <time>2015-01-17T12:18:50Z</time>
      </trkpt>
      <trkpt lat="42.87763" lon="0.11921">
        <ele>2093.1429240363</ele>
        <time>2015-01-17T12:18:55Z</time>
      </trkpt>
      <trkpt lat="42.87762" lon="0.11926">
        <ele>2095.2703691106</ele>
        <time>2015-01-17T12:19:00Z</time>
      </trkpt>
      <trkpt lat="42.87761" lon="0.11928">
        <ele>2095.2703691106</ele>
        <time>2015-01-17T12:19:05Z</time>
      </trkpt>
      <trkpt lat="42.87761" lon="0.1193">
        <ele>2095.2703691106</ele>
        <time>2015-01-17T12:19:10Z</time>
      </trkpt>
      <trkpt lat="42.87759" lon="0.11933">
        <ele>2095.2703691106</ele>
        <time>2015-01-17T12:19:15Z</time>
      </trkpt>
      <trkpt lat="42.87756" lon="0.11934">
        <ele>2097.330982138</ele>
        <time>2015-01-17T12:19:20Z</time>
      </trkpt>
      <trkpt lat="42.87754" lon="0.11938">
        <ele>2097.330982138</ele>
        <time>2015-01-17T12:19:25Z</time>
      </trkpt>
      <trkpt lat="42.87752" lon="0.11939">
        <ele>2097.330982138</ele>
        <time>2015-01-17T12:19:30Z</time>
      </trkpt>
      <trkpt lat="42.87752" lon="0.11941">
        <ele>2097.330982138</ele>
        <time>2015-01-17T12:19:35Z</time>
      </trkpt>
      <trkpt lat="42.87745" lon="0.11949">
        <ele>2099.7627350667</ele>
        <time>2015-01-17T12:20:20Z</time>
      </trkpt>
      <trkpt lat="42.87745" lon="0.11949">
        <ele>2099.7627350667</ele>
        <time>2015-01-17T12:20:25Z</time>
      </trkpt>
      <trkpt lat="42.87743" lon="0.11954">
        <ele>2099.7627350667</ele>
        <time>2015-01-17T12:20:30Z</time>
      </trkpt>
      <trkpt lat="42.87743" lon="0.11958">
        <ele>2099.7627350667</ele>
        <time>2015-01-17T12:20:35Z</time>
      </trkpt>
      <trkpt lat="42.87744" lon="0.11963">
        <ele>2102.1200163181</ele>
        <time>2015-01-17T12:20:40Z</time>
      </trkpt>
      <trkpt lat="42.87745" lon="0.11967">
        <ele>2102.1200163181</ele>
        <time>2015-01-17T12:20:45Z</time>
      </trkpt>
      <trkpt lat="42.87745" lon="0.1197">
        <ele>2102.1200163181</ele>
        <time>2015-01-17T12:20:50Z</time>
      </trkpt>
      <trkpt lat="42.87745" lon="0.11974">
        <ele>2102.1200163181</ele>
        <time>2015-01-17T12:20:55Z</time>
      </trkpt>
      <trkpt lat="42.87743" lon="0.11975">
        <ele>2104.4367973605</ele>
        <time>2015-01-17T12:21:00Z</time>
      </trkpt>
      <trkpt lat="42.87749" lon="0.1198">
        <ele>2104.4367973605</ele>
        <time>2015-01-17T12:22:00Z</time>
      </trkpt>
      <trkpt lat="42.87747" lon="0.11983">
        <ele>2107.6812956875</ele>
        <time>2015-01-17T12:22:05Z</time>
      </trkpt>
      <trkpt lat="42.87746" lon="0.11986">
        <ele>2107.6812956875</ele>
        <time>2015-01-17T12:22:10Z</time>
      </trkpt>
      <trkpt lat="42.87744" lon="0.11986">
        <ele>2107.6812956875</ele>
        <time>2015-01-17T12:22:15Z</time>
      </trkpt>
      <trkpt lat="42.87743" lon="0.11987">
        <ele>2107.6812956875</ele>
        <time>2015-01-17T12:22:20Z</time>
      </trkpt>
      <trkpt lat="42.87744" lon="0.11988">
        <ele>2107.6812956875</ele>
        <time>2015-01-17T12:22:25Z</time>
      </trkpt>
      <trkpt lat="42.87745" lon="0.11989">
        <ele>2107.6812956875</ele>
        <time>2015-01-17T12:22:30Z</time>
      </trkpt>
      <trkpt lat="42.87747" lon="0.11991">
        <ele>2111.1338734607</ele>
        <time>2015-01-17T12:22:35Z</time>
      </trkpt>
      <trkpt lat="42.87749" lon="0.11992">
        <ele>2111.1338734607</ele>
        <time>2015-01-17T12:22:40Z</time>
      </trkpt>
      <trkpt lat="42.87749" lon="0.11995">
        <ele>2111.1338734607</ele>
        <time>2015-01-17T12:22:45Z</time>
      </trkpt>
      <trkpt lat="42.87745" lon="0.11998">
        <ele>2114.6026700707</ele>
        <time>2015-01-17T12:22:50Z</time>
      </trkpt>
      <trkpt lat="42.87741" lon="0.12">
        <ele>2114.6026700707</ele>
        <time>2015-01-17T12:22:55Z</time>
      </trkpt>
      <trkpt lat="42.8774" lon="0.12001">
        <ele>2114.6026700707</ele>
        <time>2015-01-17T12:23:00Z</time>
      </trkpt>
      <trkpt lat="42.87739" lon="0.12004">
        <ele>2114.6026700707</ele>
        <time>2015-01-17T12:23:10Z</time>
      </trkpt>
      <trkpt lat="42.87739" lon="0.11999">
        <ele>2119.0050642539</ele>
        <time>2015-01-17T12:23:30Z</time>
      </trkpt>
      <trkpt lat="42.8774" lon="0.12001">
        <ele>2119.0050642539</ele>
        <time>2015-01-17T12:23:35Z</time>
      </trkpt>
      <trkpt lat="42.87737" lon="0.12003">
        <ele>2119.0050642539</ele>
        <time>2015-01-17T12:23:40Z</time>
      </trkpt>
      <trkpt lat="42.87736" lon="0.12007">
        <ele>2119.0050642539</ele>
        <time>2015-01-17T12:23:45Z</time>
      </trkpt>
      <trkpt lat="42.87734" lon="0.12009">
        <ele>2123.0555437394</ele>
        <time>2015-01-17T12:23:50Z</time>
      </trkpt>
      <trkpt lat="42.87732" lon="0.12012">
        <ele>2123.0555437394</ele>
        <time>2015-01-17T12:23:55Z</time>
      </trkpt>
      <trkpt lat="42.87731" lon="0.12015">
        <ele>2123.0555437394</ele>
        <time>2015-01-17T12:24:00Z</time>
      </trkpt>
      <trkpt lat="42.87727" lon="0.12016">
        <ele>2126.9330535301</ele>
        <time>2015-01-17T12:24:05Z</time>
      </trkpt>
      <trkpt lat="42.87725" lon="0.1202">
        <ele>2126.9330535301</ele>
        <time>2015-01-17T12:24:10Z</time>
      </trkpt>
      <trkpt lat="42.87723" lon="0.12022">
        <ele>2126.9330535301</ele>
        <time>2015-01-17T12:24:15Z</time>
      </trkpt>
      <trkpt lat="42.87722" lon="0.12022">
        <ele>2126.9330535301</ele>
        <time>2015-01-17T12:24:20Z</time>
      </trkpt>
      <trkpt lat="42.87717" lon="0.12024">
        <ele>2130.5877097759</ele>
        <time>2015-01-17T12:24:25Z</time>
      </trkpt>
      <trkpt lat="42.87716" lon="0.12025">
        <ele>2130.5877097759</ele>
        <time>2015-01-17T12:24:30Z</time>
      </trkpt>
      <trkpt lat="42.87716" lon="0.12026">
        <ele>2130.5877097759</ele>
        <time>2015-01-17T12:24:35Z</time>
      </trkpt>
      <trkpt lat="42.87714" lon="0.1203">
        <ele>2130.5877097759</ele>
        <time>2015-01-17T12:24:40Z</time>
      </trkpt>
      <trkpt lat="42.87716" lon="0.12032">
        <ele>2130.5877097759</ele>
        <time>2015-01-17T12:24:45Z</time>
      </trkpt>
      <trkpt lat="42.87717" lon="0.12034">
        <ele>2134.1612759716</ele>
        <time>2015-01-17T12:24:50Z</time>
      </trkpt>
      <trkpt lat="42.87713" lon="0.12036">
        <ele>2134.1612759716</ele>
        <time>2015-01-17T12:25:10Z</time>
      </trkpt>
      <trkpt lat="42.8771" lon="0.12038">
        <ele>2134.1612759716</ele>
        <time>2015-01-17T12:25:15Z</time>
      </trkpt>
      <trkpt lat="42.87707" lon="0.1204">
        <ele>2137.8429998644</ele>
        <time>2015-01-17T12:25:20Z</time>
      </trkpt>
      <trkpt lat="42.87706" lon="0.12044">
        <ele>2137.8429998644</ele>
        <time>2015-01-17T12:25:25Z</time>
      </trkpt>
      <trkpt lat="42.87706" lon="0.12049">
        <ele>2137.8429998644</ele>
        <time>2015-01-17T12:25:30Z</time>
      </trkpt>
      <trkpt lat="42.87707" lon="0.12052">
        <ele>2137.8429998644</ele>
        <time>2015-01-17T12:25:35Z</time>
      </trkpt>
      <trkpt lat="42.87707" lon="0.12054">
        <ele>2141.5917944718</ele>
        <time>2015-01-17T12:25:40Z</time>
      </trkpt>
      <trkpt lat="42.87706" lon="0.12056">
        <ele>2141.5917944718</ele>
        <time>2015-01-17T12:25:45Z</time>
      </trkpt>
      <trkpt lat="42.87704" lon="0.12058">
        <ele>2141.5917944718</ele>
        <time>2015-01-17T12:25:50Z</time>
      </trkpt>
      <trkpt lat="42.87701" lon="0.12061">
        <ele>2141.5917944718</ele>
        <time>2015-01-17T12:25:55Z</time>
      </trkpt>
      <trkpt lat="42.877" lon="0.12064">
        <ele>2145.2109280075</ele>
        <time>2015-01-17T12:26:00Z</time>
      </trkpt>
      <trkpt lat="42.877" lon="0.12064">
        <ele>2145.2109280075</ele>
        <time>2015-01-17T12:26:05Z</time>
      </trkpt>
      <trkpt lat="42.87693" lon="0.12069">
        <ele>2145.2109280075</ele>
        <time>2015-01-17T12:26:25Z</time>
      </trkpt>
      <trkpt lat="42.87692" lon="0.12071">
        <ele>2148.8211741766</ele>
        <time>2015-01-17T12:26:30Z</time>
      </trkpt>
      <trkpt lat="42.8769" lon="0.12072">
        <ele>2148.8211741766</ele>
        <time>2015-01-17T12:26:35Z</time>
      </trkpt>
      <trkpt lat="42.87689" lon="0.12076">
        <ele>2148.8211741766</ele>
        <time>2015-01-17T12:26:40Z</time>
      </trkpt>
      <trkpt lat="42.87689" lon="0.12079">
        <ele>2148.8211741766</ele>
        <time>2015-01-17T12:26:45Z</time>
      </trkpt>
      <trkpt lat="42.87689" lon="0.12082">
        <ele>2152.2030683069</ele>
        <time>2015-01-17T12:26:50Z</time>
      </trkpt>
      <trkpt lat="42.87689" lon="0.12085">
        <ele>2152.2030683069</ele>
        <time>2015-01-17T12:26:55Z</time>
      </trkpt>
      <trkpt lat="42.87687" lon="0.12088">
        <ele>2152.2030683069</ele>
        <time>2015-01-17T12:27:00Z</time>
      </trkpt>
      <trkpt lat="42.87686" lon="0.12092">
        <ele>2152.2030683069</ele>
        <time>2015-01-17T12:27:05Z</time>
      </trkpt>
      <trkpt lat="42.87686" lon="0.12096">
        <ele>2155.3845564765</ele>
        <time>2015-01-17T12:27:10Z</time>
      </trkpt>
      <trkpt lat="42.87683" lon="0.12108">
        <ele>2158.7380362851</ele>
        <time>2015-01-17T12:28:10Z</time>
      </trkpt>
      <trkpt lat="42.87682" lon="0.12111">
        <ele>2158.7380362851</ele>
        <time>2015-01-17T12:28:15Z</time>
      </trkpt>
      <trkpt lat="42.87688" lon="0.12118">
        <ele>2161.8731784692</ele>
        <time>2015-01-17T12:28:30Z</time>
      </trkpt>
      <trkpt lat="42.87691" lon="0.12118">
        <ele>2161.8731784692</ele>
        <time>2015-01-17T12:28:35Z</time>
      </trkpt>
      <trkpt lat="42.87693" lon="0.12117">
        <ele>2161.8731784692</ele>
        <time>2015-01-17T12:28:40Z</time>
      </trkpt>
      <trkpt lat="42.87694" lon="0.12119">
        <ele>2161.8731784692</ele>
        <time>2015-01-17T12:28:45Z</time>
      </trkpt>
      <trkpt lat="42.87697" lon="0.1212">
        <ele>2165.0342873703</ele>
        <time>2015-01-17T12:28:55Z</time>
      </trkpt>
      <trkpt lat="42.87696" lon="0.12121">
        <ele>2165.0342873703</ele>
        <time>2015-01-17T12:29:00Z</time>
      </trkpt>
      <trkpt lat="42.87693" lon="0.12124">
        <ele>2165.0342873703</ele>
        <time>2015-01-17T12:29:05Z</time>
      </trkpt>
      <trkpt lat="42.87694" lon="0.12126">
        <ele>2165.0342873703</ele>
        <time>2015-01-17T12:29:10Z</time>
      </trkpt>
      <trkpt lat="42.87693" lon="0.12131">
        <ele>2167.8568739189</ele>
        <time>2015-01-17T12:29:15Z</time>
      </trkpt>
      <trkpt lat="42.87694" lon="0.1213">
        <ele>2167.8568739189</ele>
        <time>2015-01-17T12:29:20Z</time>
      </trkpt>
      <trkpt lat="42.87691" lon="0.12137">
        <ele>2167.8568739189</ele>
        <time>2015-01-17T12:29:45Z</time>
      </trkpt>
      <trkpt lat="42.87689" lon="0.12139">
        <ele>2167.8568739189</ele>
        <time>2015-01-17T12:29:50Z</time>
      </trkpt>
      <trkpt lat="42.87688" lon="0.12144">
        <ele>2170.695989061</ele>
        <time>2015-01-17T12:29:55Z</time>
      </trkpt>
      <trkpt lat="42.87686" lon="0.12148">
        <ele>2170.695989061</ele>
        <time>2015-01-17T12:30:00Z</time>
      </trkpt>
      <trkpt lat="42.87685" lon="0.12151">
        <ele>2170.695989061</ele>
        <time>2015-01-17T12:30:05Z</time>
      </trkpt>
      <trkpt lat="42.87683" lon="0.12156">
        <ele>2173.39065771</ele>
        <time>2015-01-17T12:30:10Z</time>
      </trkpt>
      <trkpt lat="42.87681" lon="0.12156">
        <ele>2173.39065771</ele>
        <time>2015-01-17T12:30:15Z</time>
      </trkpt>
      <trkpt lat="42.8768" lon="0.12156">
        <ele>2173.39065771</ele>
        <time>2015-01-17T12:30:20Z</time>
      </trkpt>
      <trkpt lat="42.87676" lon="0.12164">
        <ele>2176.0372017615</ele>
        <time>2015-01-17T12:30:40Z</time>
      </trkpt>
      <trkpt lat="42.87675" lon="0.12166">
        <ele>2176.0372017615</ele>
        <time>2015-01-17T12:30:45Z</time>
      </trkpt>
      <trkpt lat="42.87673" lon="0.12173">
        <ele>2176.0372017615</ele>
        <time>2015-01-17T12:30:55Z</time>
      </trkpt>
      <trkpt lat="42.87672" lon="0.12174">
        <ele>2176.0372017615</ele>
        <time>2015-01-17T12:31:00Z</time>
      </trkpt>
      <trkpt lat="42.87673" lon="0.12185">
        <ele>2178.9556550319</ele>
        <time>2015-01-17T12:31:30Z</time>
      </trkpt>
      <trkpt lat="42.87675" lon="0.12185">
        <ele>2178.9556550319</ele>
        <time>2015-01-17T12:31:35Z</time>
      </trkpt>
      <trkpt lat="42.87677" lon="0.12182">
        <ele>2178.9556550319</ele>
        <time>2015-01-17T12:31:40Z</time>
      </trkpt>
      <trkpt lat="42.87679" lon="0.12185">
        <ele>2178.9556550319</ele>
        <time>2015-01-17T12:32:00Z</time>
      </trkpt>
      <trkpt lat="42.87673" lon="0.12194">
        <ele>2182.2545071455</ele>
        <time>2015-01-17T12:32:55Z</time>
      </trkpt>
      <trkpt lat="42.87673" lon="0.12196">
        <ele>2182.2545071455</ele>
        <time>2015-01-17T12:33:00Z</time>
      </trkpt>
      <trkpt lat="42.87667" lon="0.12208">
        <ele>2185.3415481799</ele>
        <time>2015-01-17T12:33:20Z</time>
      </trkpt>
      <trkpt lat="42.87669" lon="0.12209">
        <ele>2185.3415481799</ele>
        <time>2015-01-17T12:33:25Z</time>
      </trkpt>
      <trkpt lat="42.87672" lon="0.1221">
        <ele>2185.3415481799</ele>
        <time>2015-01-17T12:33:35Z</time>
      </trkpt>
      <trkpt lat="42.8767" lon="0.12217">
        <ele>2188.850447927</ele>
        <time>2015-01-17T12:33:55Z</time>
      </trkpt>
      <trkpt lat="42.87669" lon="0.12219">
        <ele>2188.850447927</ele>
        <time>2015-01-17T12:34:00Z</time>
      </trkpt>
      <trkpt lat="42.87669" lon="0.12222">
        <ele>2188.850447927</ele>
        <time>2015-01-17T12:34:05Z</time>
      </trkpt>
      <trkpt lat="42.87668" lon="0.12226">
        <ele>2188.850447927</ele>
        <time>2015-01-17T12:34:10Z</time>
      </trkpt>
      <trkpt lat="42.87669" lon="0.1223">
        <ele>2192.171092141</ele>
        <time>2015-01-17T12:34:15Z</time>
      </trkpt>
      <trkpt lat="42.87669" lon="0.12232">
        <ele>2192.171092141</ele>
        <time>2015-01-17T12:34:20Z</time>
      </trkpt>
      <trkpt lat="42.87669" lon="0.12237">
        <ele>2192.171092141</ele>
        <time>2015-01-17T12:34:25Z</time>
      </trkpt>
      <trkpt lat="42.87667" lon="0.12242">
        <ele>2192.171092141</ele>
        <time>2015-01-17T12:34:30Z</time>
      </trkpt>
      <trkpt lat="42.87667" lon="0.12242">
        <ele>2195.2864074737</ele>
        <time>2015-01-17T12:34:35Z</time>
      </trkpt>
      <trkpt lat="42.87661" lon="0.12246">
        <ele>2195.2864074737</ele>
        <time>2015-01-17T12:35:00Z</time>
      </trkpt>
      <trkpt lat="42.87661" lon="0.12249">
        <ele>2195.2864074737</ele>
        <time>2015-01-17T12:35:15Z</time>
      </trkpt>
      <trkpt lat="42.87662" lon="0.1225">
        <ele>2198.5991454801</ele>
        <time>2015-01-17T12:35:20Z</time>
      </trkpt>
      <trkpt lat="42.87662" lon="0.12251">
        <ele>2198.5991454801</ele>
        <time>2015-01-17T12:35:25Z</time>
      </trkpt>
      <trkpt lat="42.87666" lon="0.12255">
        <ele>2198.5991454801</ele>
        <time>2015-01-17T12:35:40Z</time>
      </trkpt>
      <trkpt lat="42.87669" lon="0.12256">
        <ele>2198.5991454801</ele>
        <time>2015-01-17T12:35:45Z</time>
      </trkpt>
      <trkpt lat="42.87671" lon="0.12257">
        <ele>2201.9631905688</ele>
        <time>2015-01-17T12:35:50Z</time>
      </trkpt>
      <trkpt lat="42.87674" lon="0.12256">
        <ele>2201.9631905688</ele>
        <time>2015-01-17T12:35:55Z</time>
      </trkpt>
      <trkpt lat="42.87675" lon="0.12255">
        <ele>2201.9631905688</ele>
        <time>2015-01-17T12:36:00Z</time>
      </trkpt>
      <trkpt lat="42.87676" lon="0.12255">
        <ele>2201.9631905688</ele>
        <time>2015-01-17T12:36:05Z</time>
      </trkpt>
      <trkpt lat="42.87678" lon="0.12257">
        <ele>2201.9631905688</ele>
        <time>2015-01-17T12:36:10Z</time>
      </trkpt>
      <trkpt lat="42.87678" lon="0.12257">
        <ele>2201.9631905688</ele>
        <time>2015-01-17T12:36:15Z</time>
      </trkpt>
      <trkpt lat="42.8768" lon="0.12252">
        <ele>2205.2575005673</ele>
        <time>2015-01-17T12:36:25Z</time>
      </trkpt>
      <trkpt lat="42.8768" lon="0.12247">
        <ele>2205.2575005673</ele>
        <time>2015-01-17T12:36:45Z</time>
      </trkpt>
      <trkpt lat="42.8768" lon="0.12252">
        <ele>2205.2575005673</ele>
        <time>2015-01-17T12:36:50Z</time>
      </trkpt>
      <trkpt lat="42.8768" lon="0.12255">
        <ele>2205.2575005673</ele>
        <time>2015-01-17T12:36:55Z</time>
      </trkpt>
      <trkpt lat="42.8768" lon="0.12258">
        <ele>2208.6440044705</ele>
        <time>2015-01-17T12:37:00Z</time>
      </trkpt>
      <trkpt lat="42.87679" lon="0.1226">
        <ele>2208.6440044705</ele>
        <time>2015-01-17T12:37:05Z</time>
      </trkpt>
      <trkpt lat="42.87679" lon="0.12261">
        <ele>2208.6440044705</ele>
        <time>2015-01-17T12:37:10Z</time>
      </trkpt>
      <trkpt lat="42.87677" lon="0.12271">
        <ele>2211.7969829172</ele>
        <time>2015-01-17T12:37:30Z</time>
      </trkpt>
      <trkpt lat="42.87677" lon="0.12275">
        <ele>2211.7969829172</ele>
        <time>2015-01-17T12:37:35Z</time>
      </trkpt>
      <trkpt lat="42.87676" lon="0.12276">
        <ele>2211.7969829172</ele>
        <time>2015-01-17T12:37:40Z</time>
      </trkpt>
      <trkpt lat="42.8768" lon="0.12284">
        <ele>2214.9485817607</ele>
        <time>2015-01-17T12:38:25Z</time>
      </trkpt>
      <trkpt lat="42.87682" lon="0.12283">
        <ele>2214.9485817607</ele>
        <time>2015-01-17T12:38:30Z</time>
      </trkpt>
      <trkpt lat="42.87683" lon="0.12283">
        <ele>2214.9485817607</ele>
        <time>2015-01-17T12:38:35Z</time>
      </trkpt>
      <trkpt lat="42.87686" lon="0.1228">
        <ele>2214.9485817607</ele>
        <time>2015-01-17T12:38:50Z</time>
      </trkpt>
      <trkpt lat="42.87689" lon="0.12277">
        <ele>2217.6942890909</ele>
        <time>2015-01-17T12:39:00Z</time>
      </trkpt>
      <trkpt lat="42.87691" lon="0.12276">
        <ele>2217.6942890909</ele>
        <time>2015-01-17T12:39:05Z</time>
      </trkpt>
      <trkpt lat="42.87691" lon="0.12274">
        <ele>2217.6942890909</ele>
        <time>2015-01-17T12:39:10Z</time>
      </trkpt>
      <trkpt lat="42.87693" lon="0.12274">
        <ele>2217.6942890909</ele>
        <time>2015-01-17T12:39:15Z</time>
      </trkpt>
      <trkpt lat="42.87696" lon="0.12277">
        <ele>2220.8422258883</ele>
        <time>2015-01-17T12:40:15Z</time>
      </trkpt>
      <trkpt lat="42.87697" lon="0.1228">
        <ele>2220.8422258883</ele>
        <time>2015-01-17T12:40:20Z</time>
      </trkpt>
      <trkpt lat="42.87697" lon="0.12283">
        <ele>2220.8422258883</ele>
        <time>2015-01-17T12:40:25Z</time>
      </trkpt>
      <trkpt lat="42.87696" lon="0.12284">
        <ele>2220.8422258883</ele>
        <time>2015-01-17T12:40:30Z</time>
      </trkpt>
      <trkpt lat="42.87695" lon="0.12296">
        <ele>2224.1168962209</ele>
        <time>2015-01-17T12:41:20Z</time>
      </trkpt>
      <trkpt lat="42.87693" lon="0.12299">
        <ele>2224.1168962209</ele>
        <time>2015-01-17T12:41:25Z</time>
      </trkpt>
      <trkpt lat="42.87692" lon="0.12303">
        <ele>2224.1168962209</ele>
        <time>2015-01-17T12:41:30Z</time>
      </trkpt>
      <trkpt lat="42.87691" lon="0.12306">
        <ele>2224.1168962209</ele>
        <time>2015-01-17T12:41:35Z</time>
      </trkpt>
      <trkpt lat="42.87688" lon="0.12309">
        <ele>2227.0754037219</ele>
        <time>2015-01-17T12:41:40Z</time>
      </trkpt>
      <trkpt lat="42.87688" lon="0.12311">
        <ele>2227.0754037219</ele>
        <time>2015-01-17T12:41:45Z</time>
      </trkpt>
      <trkpt lat="42.87692" lon="0.12317">
        <ele>2227.0754037219</ele>
        <time>2015-01-17T12:42:25Z</time>
      </trkpt>
      <trkpt lat="42.87694" lon="0.12317">
        <ele>2227.0754037219</ele>
        <time>2015-01-17T12:42:30Z</time>
      </trkpt>
      <trkpt lat="42.87694" lon="0.12317">
        <ele>2230.1441777881</ele>
        <time>2015-01-17T12:42:35Z</time>
      </trkpt>
      <trkpt lat="42.87694" lon="0.12317">
        <ele>2230.1441777881</ele>
        <time>2015-01-17T12:42:40Z</time>
      </trkpt>
      <trkpt lat="42.87698" lon="0.12315">
        <ele>2230.1441777881</ele>
        <time>2015-01-17T12:43:05Z</time>
      </trkpt>
      <trkpt lat="42.87699" lon="0.12316">
        <ele>2230.1441777881</ele>
        <time>2015-01-17T12:43:10Z</time>
      </trkpt>
      <trkpt lat="42.87701" lon="0.12315">
        <ele>2230.1441777881</ele>
        <time>2015-01-17T12:43:15Z</time>
      </trkpt>
      <trkpt lat="42.87702" lon="0.12314">
        <ele>2230.1441777881</ele>
        <time>2015-01-17T12:43:20Z</time>
      </trkpt>
      <trkpt lat="42.87705" lon="0.12311">
        <ele>2233.0551583987</ele>
        <time>2015-01-17T12:43:25Z</time>
      </trkpt>
      <trkpt lat="42.87705" lon="0.12309">
        <ele>2233.0551583987</ele>
        <time>2015-01-17T12:43:30Z</time>
      </trkpt>
      <trkpt lat="42.87705" lon="0.12309">
        <ele>2233.0551583987</ele>
        <time>2015-01-17T12:43:35Z</time>
      </trkpt>
      <trkpt lat="42.8771" lon="0.12309">
        <ele>2233.0551583987</ele>
        <time>2015-01-17T12:43:45Z</time>
      </trkpt>
      <trkpt lat="42.87712" lon="0.12308">
        <ele>2233.0551583987</ele>
        <time>2015-01-17T12:43:50Z</time>
      </trkpt>
      <trkpt lat="42.87713" lon="0.12307">
        <ele>2235.7622284893</ele>
        <time>2015-01-17T12:43:55Z</time>
      </trkpt>
      <trkpt lat="42.87715" lon="0.12304">
        <ele>2235.7622284893</ele>
        <time>2015-01-17T12:44:00Z</time>
      </trkpt>
      <trkpt lat="42.87717" lon="0.12302">
        <ele>2235.7622284893</ele>
        <time>2015-01-17T12:44:05Z</time>
      </trkpt>
      <trkpt lat="42.87719" lon="0.12302">
        <ele>2235.7622284893</ele>
        <time>2015-01-17T12:44:10Z</time>
      </trkpt>
      <trkpt lat="42.8772" lon="0.12302">
        <ele>2235.7622284893</ele>
        <time>2015-01-17T12:44:15Z</time>
      </trkpt>
      <trkpt lat="42.87723" lon="0.12299">
        <ele>2238.2088682146</ele>
        <time>2015-01-17T12:44:20Z</time>
      </trkpt>
      <trkpt lat="42.87723" lon="0.12298">
        <ele>2238.2088682146</ele>
        <time>2015-01-17T12:44:25Z</time>
      </trkpt>
      <trkpt lat="42.87731" lon="0.12298">
        <ele>2238.2088682146</ele>
        <time>2015-01-17T12:45:15Z</time>
      </trkpt>
      <trkpt lat="42.87733" lon="0.12297">
        <ele>2240.5740612345</ele>
        <time>2015-01-17T12:45:20Z</time>
      </trkpt>
      <trkpt lat="42.87735" lon="0.12295">
        <ele>2240.5740612345</ele>
        <time>2015-01-17T12:45:25Z</time>
      </trkpt>
      <trkpt lat="42.87737" lon="0.1229">
        <ele>2240.5740612345</ele>
        <time>2015-01-17T12:45:30Z</time>
      </trkpt>
      <trkpt lat="42.87739" lon="0.12284">
        <ele>2242.9662639608</ele>
        <time>2015-01-17T12:45:35Z</time>
      </trkpt>
      <trkpt lat="42.87747" lon="0.12286">
        <ele>2242.9662639608</ele>
        <time>2015-01-17T12:46:20Z</time>
      </trkpt>
      <trkpt lat="42.87746" lon="0.1229">
        <ele>2245.6012090943</ele>
        <time>2015-01-17T12:46:25Z</time>
      </trkpt>
      <trkpt lat="42.87745" lon="0.12293">
        <ele>2245.6012090943</ele>
        <time>2015-01-17T12:46:30Z</time>
      </trkpt>
      <trkpt lat="42.87746" lon="0.12299">
        <ele>2245.6012090943</ele>
        <time>2015-01-17T12:46:35Z</time>
      </trkpt>
      <trkpt lat="42.87748" lon="0.12305">
        <ele>2247.8999239297</ele>
        <time>2015-01-17T12:46:40Z</time>
      </trkpt>
      <trkpt lat="42.87743" lon="0.12304">
        <ele>2247.8999239297</ele>
        <time>2015-01-17T12:46:45Z</time>
      </trkpt>
      <trkpt lat="42.87743" lon="0.12301">
        <ele>2247.8999239297</ele>
        <time>2015-01-17T12:46:50Z</time>
      </trkpt>
      <trkpt lat="42.87744" lon="0.12301">
        <ele>2247.8999239297</ele>
        <time>2015-01-17T12:46:55Z</time>
      </trkpt>
      <trkpt lat="42.87738" lon="0.123">
        <ele>2250.4942280233</ele>
        <time>2015-01-17T12:47:10Z</time>
      </trkpt>
      <trkpt lat="42.87739" lon="0.12304">
        <ele>2250.4942280233</ele>
        <time>2015-01-17T12:47:15Z</time>
      </trkpt>
      <trkpt lat="42.8774" lon="0.12308">
        <ele>2250.4942280233</ele>
        <time>2015-01-17T12:47:35Z</time>
      </trkpt>
      <trkpt lat="42.8774" lon="0.1231">
        <ele>2250.4942280233</ele>
        <time>2015-01-17T12:47:40Z</time>
      </trkpt>
      <trkpt lat="42.87739" lon="0.12312">
        <ele>2253.3346222686</ele>
        <time>2015-01-17T12:47:45Z</time>
      </trkpt>
      <trkpt lat="42.87738" lon="0.12314">
        <ele>2253.3346222686</ele>
        <time>2015-01-17T12:47:50Z</time>
      </trkpt>
      <trkpt lat="42.87737" lon="0.12318">
        <ele>2253.3346222686</ele>
        <time>2015-01-17T12:47:55Z</time>
      </trkpt>
      <trkpt lat="42.87736" lon="0.1232">
        <ele>2253.3346222686</ele>
        <time>2015-01-17T12:48:00Z</time>
      </trkpt>
      <trkpt lat="42.87735" lon="0.12322">
        <ele>2253.3346222686</ele>
        <time>2015-01-17T12:48:05Z</time>
      </trkpt>
      <trkpt lat="42.87733" lon="0.12325">
        <ele>2256.2160400573</ele>
        <time>2015-01-17T12:48:10Z</time>
      </trkpt>
      <trkpt lat="42.87731" lon="0.12327">
        <ele>2256.2160400573</ele>
        <time>2015-01-17T12:48:15Z</time>
      </trkpt>
      <trkpt lat="42.87729" lon="0.1233">
        <ele>2256.2160400573</ele>
        <time>2015-01-17T12:48:20Z</time>
      </trkpt>
      <trkpt lat="42.87731" lon="0.12339">
        <ele>2259.1501255972</ele>
        <time>2015-01-17T12:48:35Z</time>
      </trkpt>
      <trkpt lat="42.87734" lon="0.12345">
        <ele>2259.1501255972</ele>
        <time>2015-01-17T12:49:15Z</time>
      </trkpt>
      <trkpt lat="42.87734" lon="0.12346">
        <ele>2259.1501255972</ele>
        <time>2015-01-17T12:49:20Z</time>
      </trkpt>
      <trkpt lat="42.87735" lon="0.12348">
        <ele>2259.1501255972</ele>
        <time>2015-01-17T12:49:25Z</time>
      </trkpt>
      <trkpt lat="42.87735" lon="0.12352">
        <ele>2262.5222144306</ele>
        <time>2015-01-17T12:49:30Z</time>
      </trkpt>
      <trkpt lat="42.87734" lon="0.12356">
        <ele>2262.5222144306</ele>
        <time>2015-01-17T12:49:35Z</time>
      </trkpt>
      <trkpt lat="42.87733" lon="0.12358">
        <ele>2262.5222144306</ele>
        <time>2015-01-17T12:49:40Z</time>
      </trkpt>
      <trkpt lat="42.87731" lon="0.12361">
        <ele>2262.5222144306</ele>
        <time>2015-01-17T12:49:45Z</time>
      </trkpt>
      <trkpt lat="42.87728" lon="0.12364">
        <ele>2265.6361006988</ele>
        <time>2015-01-17T12:49:50Z</time>
      </trkpt>
      <trkpt lat="42.87726" lon="0.12367">
        <ele>2265.6361006988</ele>
        <time>2015-01-17T12:49:55Z</time>
      </trkpt>
      <trkpt lat="42.87726" lon="0.12368">
        <ele>2265.6361006988</ele>
        <time>2015-01-17T12:50:00Z</time>
      </trkpt>
      <trkpt lat="42.87719" lon="0.12374">
        <ele>2268.5680072744</ele>
        <time>2015-01-17T12:50:25Z</time>
      </trkpt>
      <trkpt lat="42.87716" lon="0.12374">
        <ele>2268.5680072744</ele>
        <time>2015-01-17T12:50:30Z</time>
      </trkpt>
      <trkpt lat="42.87713" lon="0.12376">
        <ele>2268.5680072744</ele>
        <time>2015-01-17T12:50:35Z</time>
      </trkpt>
      <trkpt lat="42.87713" lon="0.12378">
        <ele>2268.5680072744</ele>
        <time>2015-01-17T12:50:40Z</time>
      </trkpt>
      <trkpt lat="42.87711" lon="0.12381">
        <ele>2271.3890742008</ele>
        <time>2015-01-17T12:50:45Z</time>
      </trkpt>
      <trkpt lat="42.87711" lon="0.1238">
        <ele>2271.3890742008</ele>
        <time>2015-01-17T12:50:50Z</time>
      </trkpt>
      <trkpt lat="42.87711" lon="0.12381">
        <ele>2271.3890742008</ele>
        <time>2015-01-17T12:51:15Z</time>
      </trkpt>
      <trkpt lat="42.8771" lon="0.12381">
        <ele>2271.3890742008</ele>
        <time>2015-01-17T12:51:20Z</time>
      </trkpt>
      <trkpt lat="42.87716" lon="0.12381">
        <ele>2271.3890742008</ele>
        <time>2015-01-17T12:51:35Z</time>
      </trkpt>
      <trkpt lat="42.87712" lon="0.12388">
        <ele>2276.0678029129</ele>
        <time>2015-01-17T12:53:25Z</time>
      </trkpt>
      <trkpt lat="42.8771" lon="0.1239">
        <ele>2276.0678029129</ele>
        <time>2015-01-17T12:53:30Z</time>
      </trkpt>
      <trkpt lat="42.87707" lon="0.12391">
        <ele>2276.0678029129</ele>
        <time>2015-01-17T12:53:35Z</time>
      </trkpt>
      <trkpt lat="42.87704" lon="0.12392">
        <ele>2276.0678029129</ele>
        <time>2015-01-17T12:53:40Z</time>
      </trkpt>
      <trkpt lat="42.87702" lon="0.12393">
        <ele>2280.186022593</ele>
        <time>2015-01-17T12:53:45Z</time>
      </trkpt>
      <trkpt lat="42.87701" lon="0.12394">
        <ele>2280.186022593</ele>
        <time>2015-01-17T12:53:50Z</time>
      </trkpt>
      <trkpt lat="42.87697" lon="0.12399">
        <ele>2280.186022593</ele>
        <time>2015-01-17T12:54:00Z</time>
      </trkpt>
      <trkpt lat="42.87693" lon="0.12399">
        <ele>2283.8538013846</ele>
        <time>2015-01-17T12:54:05Z</time>
      </trkpt>
      <trkpt lat="42.87692" lon="0.12399">
        <ele>2283.8538013846</ele>
        <time>2015-01-17T12:54:10Z</time>
      </trkpt>
      <trkpt lat="42.87687" lon="0.12411">
        <ele>2287.5058645416</ele>
        <time>2015-01-17T12:54:50Z</time>
      </trkpt>
      <trkpt lat="42.87687" lon="0.12411">
        <ele>2287.5058645416</ele>
        <time>2015-01-17T12:54:55Z</time>
      </trkpt>
      <trkpt lat="42.87678" lon="0.12413">
        <ele>2290.867753222</ele>
        <time>2015-01-17T12:55:25Z</time>
      </trkpt>
      <trkpt lat="42.87677" lon="0.12414">
        <ele>2290.867753222</ele>
        <time>2015-01-17T12:55:30Z</time>
      </trkpt>
      <trkpt lat="42.87671" lon="0.12416">
        <ele>2290.867753222</ele>
        <time>2015-01-17T12:56:00Z</time>
      </trkpt>
      <trkpt lat="42.87669" lon="0.12416">
        <ele>2294.0462937687</ele>
        <time>2015-01-17T12:56:05Z</time>
      </trkpt>
      <trkpt lat="42.87666" lon="0.12415">
        <ele>2294.0462937687</ele>
        <time>2015-01-17T12:56:10Z</time>
      </trkpt>
      <trkpt lat="42.87666" lon="0.12417">
        <ele>2294.0462937687</ele>
        <time>2015-01-17T12:56:15Z</time>
      </trkpt>
      <trkpt lat="42.87663" lon="0.12418">
        <ele>2294.0462937687</ele>
        <time>2015-01-17T12:56:20Z</time>
      </trkpt>
      <trkpt lat="42.8766" lon="0.12419">
        <ele>2296.8383779157</ele>
        <time>2015-01-17T12:56:25Z</time>
      </trkpt>
      <trkpt lat="42.87657" lon="0.12419">
        <ele>2296.8383779157</ele>
        <time>2015-01-17T12:56:30Z</time>
      </trkpt>
      <trkpt lat="42.87656" lon="0.1242">
        <ele>2296.8383779157</ele>
        <time>2015-01-17T12:56:35Z</time>
      </trkpt>
      <trkpt lat="42.87654" lon="0.12432">
        <ele>2299.4748543708</ele>
        <time>2015-01-17T12:58:05Z</time>
      </trkpt>
      <trkpt lat="42.87652" lon="0.12433">
        <ele>2299.4748543708</ele>
        <time>2015-01-17T12:59:25Z</time>
      </trkpt>
      <trkpt lat="42.87652" lon="0.12434">
        <ele>2299.4748543708</ele>
        <time>2015-01-17T12:59:30Z</time>
      </trkpt>
      <trkpt lat="42.87651" lon="0.12439">
        <ele>2299.4748543708</ele>
        <time>2015-01-17T12:59:35Z</time>
      </trkpt>
      <trkpt lat="42.87649" lon="0.12441">
        <ele>2302.68887844</ele>
        <time>2015-01-17T12:59:40Z</time>
      </trkpt>
      <trkpt lat="42.87648" lon="0.12442">
        <ele>2302.68887844</ele>
        <time>2015-01-17T12:59:45Z</time>
      </trkpt>
      <trkpt lat="42.87648" lon="0.12452">
        <ele>2302.68887844</ele>
        <time>2015-01-17T13:01:40Z</time>
      </trkpt>
      <trkpt lat="42.87646" lon="0.12454">
        <ele>2306.9708104672</ele>
        <time>2015-01-17T13:01:45Z</time>
      </trkpt>
      <trkpt lat="42.87642" lon="0.12455">
        <ele>2306.9708104672</ele>
        <time>2015-01-17T13:01:50Z</time>
      </trkpt>
      <trkpt lat="42.8764" lon="0.12459">
        <ele>2306.9708104672</ele>
        <time>2015-01-17T13:01:55Z</time>
      </trkpt>
      <trkpt lat="42.87638" lon="0.12461">
        <ele>2310.8409307715</ele>
        <time>2015-01-17T13:02:00Z</time>
      </trkpt>
      <trkpt lat="42.87636" lon="0.12464">
        <ele>2310.8409307715</ele>
        <time>2015-01-17T13:02:05Z</time>
      </trkpt>
      <trkpt lat="42.87633" lon="0.12467">
        <ele>2310.8409307715</ele>
        <time>2015-01-17T13:02:10Z</time>
      </trkpt>
      <trkpt lat="42.87632" lon="0.12468">
        <ele>2310.8409307715</ele>
        <time>2015-01-17T13:02:15Z</time>
      </trkpt>
      <trkpt lat="42.87629" lon="0.12471">
        <ele>2314.6299154523</ele>
        <time>2015-01-17T13:02:45Z</time>
      </trkpt>
      <trkpt lat="42.87625" lon="0.12472">
        <ele>2314.6299154523</ele>
        <time>2015-01-17T13:02:50Z</time>
      </trkpt>
      <trkpt lat="42.87623" lon="0.12473">
        <ele>2314.6299154523</ele>
        <time>2015-01-17T13:02:55Z</time>
      </trkpt>
      <trkpt lat="42.87622" lon="0.12474">
        <ele>2314.6299154523</ele>
        <time>2015-01-17T13:03:00Z</time>
      </trkpt>
      <trkpt lat="42.8762" lon="0.12477">
        <ele>2318.1111986399</ele>
        <time>2015-01-17T13:03:05Z</time>
      </trkpt>
      <trkpt lat="42.87619" lon="0.12478">
        <ele>2318.1111986399</ele>
        <time>2015-01-17T13:03:10Z</time>
      </trkpt>
      <trkpt lat="42.87618" lon="0.1248">
        <ele>2318.1111986399</ele>
        <time>2015-01-17T13:03:15Z</time>
      </trkpt>
      <trkpt lat="42.87617" lon="0.12483">
        <ele>2318.1111986399</ele>
        <time>2015-01-17T13:03:20Z</time>
      </trkpt>
      <trkpt lat="42.87617" lon="0.12486">
        <ele>2318.1111986399</ele>
        <time>2015-01-17T13:03:25Z</time>
      </trkpt>
      <trkpt lat="42.87616" lon="0.12487">
        <ele>2321.4360349691</ele>
        <time>2015-01-17T13:03:30Z</time>
      </trkpt>
      <trkpt lat="42.8762" lon="0.12503">
        <ele>2324.8603330722</ele>
        <time>2015-01-17T13:04:20Z</time>
      </trkpt>
      <trkpt lat="42.87622" lon="0.12505">
        <ele>2324.8603330722</ele>
        <time>2015-01-17T13:04:25Z</time>
      </trkpt>
      <trkpt lat="42.87624" lon="0.12509">
        <ele>2324.8603330722</ele>
        <time>2015-01-17T13:04:30Z</time>
      </trkpt>
      <trkpt lat="42.87626" lon="0.12514">
        <ele>2328.0012825578</ele>
        <time>2015-01-17T13:04:35Z</time>
      </trkpt>
      <trkpt lat="42.87628" lon="0.12517">
        <ele>2328.0012825578</ele>
        <time>2015-01-17T13:04:40Z</time>
      </trkpt>
      <trkpt lat="42.8763" lon="0.12519">
        <ele>2328.0012825578</ele>
        <time>2015-01-17T13:04:45Z</time>
      </trkpt>
      <trkpt lat="42.8763" lon="0.12519">
        <ele>2328.0012825578</ele>
        <time>2015-01-17T13:04:50Z</time>
      </trkpt>
      <trkpt lat="42.8763" lon="0.12519">
        <ele>2328.0012825578</ele>
        <time>2015-01-17T13:04:55Z</time>
      </trkpt>
      <trkpt lat="42.8763" lon="0.12517">
        <ele>2328.0012825578</ele>
        <time>2015-01-17T13:05:15Z</time>
      </trkpt>
      <trkpt lat="42.87632" lon="0.12522">
        <ele>2331.5714478836</ele>
        <time>2015-01-17T13:05:25Z</time>
      </trkpt>
      <trkpt lat="42.87632" lon="0.12523">
        <ele>2331.5714478836</ele>
        <time>2015-01-17T13:05:30Z</time>
      </trkpt>
      <trkpt lat="42.87627" lon="0.12526">
        <ele>2331.5714478836</ele>
        <time>2015-01-17T13:05:50Z</time>
      </trkpt>
      <trkpt lat="42.87622" lon="0.12526">
        <ele>2335.2787470357</ele>
        <time>2015-01-17T13:05:55Z</time>
      </trkpt>
      <trkpt lat="42.87619" lon="0.12526">
        <ele>2335.2787470357</ele>
        <time>2015-01-17T13:06:00Z</time>
      </trkpt>
      <trkpt lat="42.87615" lon="0.12526">
        <ele>2335.2787470357</ele>
        <time>2015-01-17T13:06:05Z</time>
      </trkpt>
      <trkpt lat="42.87611" lon="0.12525">
        <ele>2338.6360381044</ele>
        <time>2015-01-17T13:06:10Z</time>
      </trkpt>
      <trkpt lat="42.87608" lon="0.12525">
        <ele>2338.6360381044</ele>
        <time>2015-01-17T13:06:15Z</time>
      </trkpt>
      <trkpt lat="42.87606" lon="0.12524">
        <ele>2338.6360381044</ele>
        <time>2015-01-17T13:06:20Z</time>
      </trkpt>
      <trkpt lat="42.87603" lon="0.12525">
        <ele>2338.6360381044</ele>
        <time>2015-01-17T13:06:25Z</time>
      </trkpt>
      <trkpt lat="42.87601" lon="0.12526">
        <ele>2341.6109030386</ele>
        <time>2015-01-17T13:06:30Z</time>
      </trkpt>
      <trkpt lat="42.87598" lon="0.12528">
        <ele>2341.6109030386</ele>
        <time>2015-01-17T13:06:35Z</time>
      </trkpt>
      <trkpt lat="42.87596" lon="0.12531">
        <ele>2341.6109030386</ele>
        <time>2015-01-17T13:06:40Z</time>
      </trkpt>
      <trkpt lat="42.87593" lon="0.12532">
        <ele>2341.6109030386</ele>
        <time>2015-01-17T13:06:45Z</time>
      </trkpt>
      <trkpt lat="42.8759" lon="0.12533">
        <ele>2344.2032326758</ele>
        <time>2015-01-17T13:06:50Z</time>
      </trkpt>
      <trkpt lat="42.87587" lon="0.12533">
        <ele>2344.2032326758</ele>
        <time>2015-01-17T13:06:55Z</time>
      </trkpt>
      <trkpt lat="42.87586" lon="0.12534">
        <ele>2344.2032326758</ele>
        <time>2015-01-17T13:07:00Z</time>
      </trkpt>
      <trkpt lat="42.87577" lon="0.12542">
        <ele>2346.7454832482</ele>
        <time>2015-01-17T13:08:00Z</time>
      </trkpt>
      <trkpt lat="42.87575" lon="0.12543">
        <ele>2346.7454832482</ele>
        <time>2015-01-17T13:08:05Z</time>
      </trkpt>
      <trkpt lat="42.87573" lon="0.12545">
        <ele>2346.7454832482</ele>
        <time>2015-01-17T13:08:10Z</time>
      </trkpt>
      <trkpt lat="42.87571" lon="0.12545">
        <ele>2346.7454832482</ele>
        <time>2015-01-17T13:08:15Z</time>
      </trkpt>
      <trkpt lat="42.87567" lon="0.12546">
        <ele>2348.9117624757</ele>
        <time>2015-01-17T13:08:20Z</time>
      </trkpt>
      <trkpt lat="42.87564" lon="0.12548">
        <ele>2348.9117624757</ele>
        <time>2015-01-17T13:08:25Z</time>
      </trkpt>
      <trkpt lat="42.87563" lon="0.12551">
        <ele>2348.9117624757</ele>
        <time>2015-01-17T13:08:30Z</time>
      </trkpt>
      <trkpt lat="42.8756" lon="0.12551">
        <ele>2348.9117624757</ele>
        <time>2015-01-17T13:08:35Z</time>
      </trkpt>
      <trkpt lat="42.87552" lon="0.12558">
        <ele>2350.9199868766</ele>
        <time>2015-01-17T13:09:20Z</time>
      </trkpt>
      <trkpt lat="42.8755" lon="0.1256">
        <ele>2350.9199868766</ele>
        <time>2015-01-17T13:09:25Z</time>
      </trkpt>
      <trkpt lat="42.87549" lon="0.12562">
        <ele>2350.9199868766</ele>
        <time>2015-01-17T13:09:30Z</time>
      </trkpt>
      <trkpt lat="42.87546" lon="0.12562">
        <ele>2350.9199868766</ele>
        <time>2015-01-17T13:09:35Z</time>
      </trkpt>
      <trkpt lat="42.87544" lon="0.12563">
        <ele>2352.698701592</ele>
        <time>2015-01-17T13:09:40Z</time>
      </trkpt>
      <trkpt lat="42.87543" lon="0.12563">
        <ele>2352.698701592</ele>
        <time>2015-01-17T13:09:45Z</time>
      </trkpt>
      <trkpt lat="42.87543" lon="0.12569">
        <ele>2352.698701592</ele>
        <time>2015-01-17T13:10:20Z</time>
      </trkpt>
      <trkpt lat="42.87546" lon="0.12573">
        <ele>2354.758783961</ele>
        <time>2015-01-17T13:10:30Z</time>
      </trkpt>
      <trkpt lat="42.87546" lon="0.12573">
        <ele>2354.758783961</ele>
        <time>2015-01-17T13:10:35Z</time>
      </trkpt>
      <trkpt lat="42.87543" lon="0.12577">
        <ele>2354.758783961</ele>
        <time>2015-01-17T13:11:30Z</time>
      </trkpt>
      <trkpt lat="42.87541" lon="0.12578">
        <ele>2354.758783961</ele>
        <time>2015-01-17T13:11:35Z</time>
      </trkpt>
      <trkpt lat="42.87538" lon="0.12577">
        <ele>2356.9675113039</ele>
        <time>2015-01-17T13:11:40Z</time>
      </trkpt>
      <trkpt lat="42.87535" lon="0.12574">
        <ele>2356.9675113039</ele>
        <time>2015-01-17T13:11:45Z</time>
      </trkpt>
      <trkpt lat="42.87532" lon="0.12571">
        <ele>2356.9675113039</ele>
        <time>2015-01-17T13:11:50Z</time>
      </trkpt>
      <trkpt lat="42.87531" lon="0.12571">
        <ele>2356.9675113039</ele>
        <time>2015-01-17T13:11:55Z</time>
      </trkpt>
      <trkpt lat="42.87521" lon="0.1257">
        <ele>2359.9652603649</ele>
        <time>2015-01-17T13:12:25Z</time>
      </trkpt>
      <trkpt lat="42.8752" lon="0.12569">
        <ele>2359.9652603649</ele>
        <time>2015-01-17T13:12:30Z</time>
      </trkpt>
      <trkpt lat="42.87516" lon="0.1257">
        <ele>2359.9652603649</ele>
        <time>2015-01-17T13:12:40Z</time>
      </trkpt>
      <trkpt lat="42.87514" lon="0.12572">
        <ele>2359.9652603649</ele>
        <time>2015-01-17T13:12:45Z</time>
      </trkpt>
      <trkpt lat="42.87513" lon="0.12572">
        <ele>2363.0605358468</ele>
        <time>2015-01-17T13:12:50Z</time>
      </trkpt>
      <trkpt lat="42.87507" lon="0.12579">
        <ele>2363.0605358468</ele>
        <time>2015-01-17T13:13:25Z</time>
      </trkpt>
      <trkpt lat="42.87504" lon="0.1258">
        <ele>2366.4049479007</ele>
        <time>2015-01-17T13:13:30Z</time>
      </trkpt>
      <trkpt lat="42.87502" lon="0.12583">
        <ele>2366.4049479007</ele>
        <time>2015-01-17T13:13:35Z</time>
      </trkpt>
      <trkpt lat="42.87498" lon="0.12586">
        <ele>2366.4049479007</ele>
        <time>2015-01-17T13:13:40Z</time>
      </trkpt>
      <trkpt lat="42.87496" lon="0.12588">
        <ele>2369.5906194933</ele>
        <time>2015-01-17T13:13:45Z</time>
      </trkpt>
      <trkpt lat="42.87496" lon="0.12587">
        <ele>2369.5906194933</ele>
        <time>2015-01-17T13:13:50Z</time>
      </trkpt>
      <trkpt lat="42.87494" lon="0.1259">
        <ele>2369.5906194933</ele>
        <time>2015-01-17T13:14:10Z</time>
      </trkpt>
      <trkpt lat="42.87494" lon="0.12591">
        <ele>2369.5906194933</ele>
        <time>2015-01-17T13:14:15Z</time>
      </trkpt>
      <trkpt lat="42.87493" lon="0.12594">
        <ele>2369.5906194933</ele>
        <time>2015-01-17T13:14:40Z</time>
      </trkpt>
      <trkpt lat="42.87491" lon="0.12596">
        <ele>2373.407356368</ele>
        <time>2015-01-17T13:14:45Z</time>
      </trkpt>
      <trkpt lat="42.87487" lon="0.12601">
        <ele>2373.407356368</ele>
        <time>2015-01-17T13:14:50Z</time>
      </trkpt>
      <trkpt lat="42.87485" lon="0.12603">
        <ele>2373.407356368</ele>
        <time>2015-01-17T13:14:55Z</time>
      </trkpt>
      <trkpt lat="42.87485" lon="0.12603">
        <ele>2373.407356368</ele>
        <time>2015-01-17T13:15:00Z</time>
      </trkpt>
      <trkpt lat="42.87484" lon="0.12605">
        <ele>2373.407356368</ele>
        <time>2015-01-17T13:15:10Z</time>
      </trkpt>
      <trkpt lat="42.87485" lon="0.12608">
        <ele>2376.9999309062</ele>
        <time>2015-01-17T13:15:15Z</time>
      </trkpt>
      <trkpt lat="42.87487" lon="0.12612">
        <ele>2376.9999309062</ele>
        <time>2015-01-17T13:15:20Z</time>
      </trkpt>
      <trkpt lat="42.87487" lon="0.12613">
        <ele>2376.9999309062</ele>
        <time>2015-01-17T13:15:25Z</time>
      </trkpt>
      <trkpt lat="42.8749" lon="0.12619">
        <ele>2380.4123964039</ele>
        <time>2015-01-17T13:15:50Z</time>
      </trkpt>
      <trkpt lat="42.8749" lon="0.12619">
        <ele>2380.4123964039</ele>
        <time>2015-01-17T13:15:55Z</time>
      </trkpt>
      <trkpt lat="42.87491" lon="0.12621">
        <ele>2380.4123964039</ele>
        <time>2015-01-17T13:16:05Z</time>
      </trkpt>
      <trkpt lat="42.87495" lon="0.1262">
        <ele>2380.4123964039</ele>
        <time>2015-01-17T13:16:10Z</time>
      </trkpt>
      <trkpt lat="42.87498" lon="0.1262">
        <ele>2383.6284176593</ele>
        <time>2015-01-17T13:16:15Z</time>
      </trkpt>
      <trkpt lat="42.875" lon="0.12622">
        <ele>2383.6284176593</ele>
        <time>2015-01-17T13:16:20Z</time>
      </trkpt>
      <trkpt lat="42.87504" lon="0.12623">
        <ele>2383.6284176593</ele>
        <time>2015-01-17T13:16:25Z</time>
      </trkpt>
      <trkpt lat="42.87508" lon="0.12623">
        <ele>2386.489289141</ele>
        <time>2015-01-17T13:16:30Z</time>
      </trkpt>
      <trkpt lat="42.87511" lon="0.12623">
        <ele>2386.489289141</ele>
        <time>2015-01-17T13:16:35Z</time>
      </trkpt>
      <trkpt lat="42.87514" lon="0.12625">
        <ele>2386.489289141</ele>
        <time>2015-01-17T13:16:40Z</time>
      </trkpt>
      <trkpt lat="42.87516" lon="0.12624">
        <ele>2386.489289141</ele>
        <time>2015-01-17T13:16:45Z</time>
      </trkpt>
      <trkpt lat="42.87516" lon="0.12625">
        <ele>2389.3101066772</ele>
        <time>2015-01-17T13:16:50Z</time>
      </trkpt>
      <trkpt lat="42.87516" lon="0.12626">
        <ele>2389.3101066772</ele>
        <time>2015-01-17T13:16:55Z</time>
      </trkpt>
      <trkpt lat="42.87523" lon="0.12627">
        <ele>2389.3101066772</ele>
        <time>2015-01-17T13:17:30Z</time>
      </trkpt>
      <trkpt lat="42.87523" lon="0.12629">
        <ele>2389.3101066772</ele>
        <time>2015-01-17T13:17:35Z</time>
      </trkpt>
      <trkpt lat="42.87524" lon="0.12632">
        <ele>2392.1667555814</ele>
        <time>2015-01-17T13:17:40Z</time>
      </trkpt>
      <trkpt lat="42.87523" lon="0.12634">
        <ele>2392.1667555814</ele>
        <time>2015-01-17T13:17:45Z</time>
      </trkpt>
      <trkpt lat="42.87518" lon="0.12633">
        <ele>2392.1667555814</ele>
        <time>2015-01-17T13:17:55Z</time>
      </trkpt>
      <trkpt lat="42.87516" lon="0.12634">
        <ele>2395.0862023019</ele>
        <time>2015-01-17T13:18:00Z</time>
      </trkpt>
      <trkpt lat="42.87514" lon="0.12634">
        <ele>2395.0862023019</ele>
        <time>2015-01-17T13:18:05Z</time>
      </trkpt>
      <trkpt lat="42.87513" lon="0.12636">
        <ele>2395.0862023019</ele>
        <time>2015-01-17T13:18:10Z</time>
      </trkpt>
      <trkpt lat="42.87512" lon="0.12639">
        <ele>2395.0862023019</ele>
        <time>2015-01-17T13:18:15Z</time>
      </trkpt>
      <trkpt lat="42.8751" lon="0.12643">
        <ele>2397.9923664133</ele>
        <time>2015-01-17T13:18:20Z</time>
      </trkpt>
      <trkpt lat="42.8751" lon="0.12643">
        <ele>2397.9923664133</ele>
        <time>2015-01-17T13:18:25Z</time>
      </trkpt>
      <trkpt lat="42.87507" lon="0.12654">
        <ele>2397.9923664133</ele>
        <time>2015-01-17T13:18:55Z</time>
      </trkpt>
      <trkpt lat="42.87506" lon="0.12657">
        <ele>2400.8436025929</ele>
        <time>2015-01-17T13:19:00Z</time>
      </trkpt>
      <trkpt lat="42.87504" lon="0.12658">
        <ele>2400.8436025929</ele>
        <time>2015-01-17T13:19:05Z</time>
      </trkpt>
      <trkpt lat="42.87502" lon="0.12661">
        <ele>2400.8436025929</ele>
        <time>2015-01-17T13:19:10Z</time>
      </trkpt>
      <trkpt lat="42.87502" lon="0.12664">
        <ele>2400.8436025929</ele>
        <time>2015-01-17T13:19:15Z</time>
      </trkpt>
      <trkpt lat="42.87502" lon="0.12664">
        <ele>2400.8436025929</ele>
        <time>2015-01-17T13:19:20Z</time>
      </trkpt>
      <trkpt lat="42.87506" lon="0.12675">
        <ele>2403.3708861475</ele>
        <time>2015-01-17T13:19:40Z</time>
      </trkpt>
      <trkpt lat="42.87506" lon="0.12675">
        <ele>2403.3708861475</ele>
        <time>2015-01-17T13:19:45Z</time>
      </trkpt>
      <trkpt lat="42.87504" lon="0.12679">
        <ele>2403.3708861475</ele>
        <time>2015-01-17T13:20:30Z</time>
      </trkpt>
      <trkpt lat="42.87499" lon="0.12691">
        <ele>2406.5652039816</ele>
        <time>2015-01-17T13:21:20Z</time>
      </trkpt>
      <trkpt lat="42.87499" lon="0.12691">
        <ele>2406.5652039816</ele>
        <time>2015-01-17T13:21:25Z</time>
      </trkpt>
      <trkpt lat="42.87496" lon="0.12697">
        <ele>2406.5652039816</ele>
        <time>2015-01-17T13:21:55Z</time>
      </trkpt>
      <trkpt lat="42.87495" lon="0.12702">
        <ele>2409.8152800032</ele>
        <time>2015-01-17T13:22:00Z</time>
      </trkpt>
      <trkpt lat="42.87493" lon="0.12705">
        <ele>2409.8152800032</ele>
        <time>2015-01-17T13:22:05Z</time>
      </trkpt>
      <trkpt lat="42.87492" lon="0.12706">
        <ele>2409.8152800032</ele>
        <time>2015-01-17T13:22:10Z</time>
      </trkpt>
      <trkpt lat="42.8749" lon="0.12709">
        <ele>2409.8152800032</ele>
        <time>2015-01-17T13:22:15Z</time>
      </trkpt>
      <trkpt lat="42.87489" lon="0.12711">
        <ele>2412.9148475886</ele>
        <time>2015-01-17T13:22:20Z</time>
      </trkpt>
      <trkpt lat="42.87489" lon="0.12712">
        <ele>2412.9148475886</ele>
        <time>2015-01-17T13:22:25Z</time>
      </trkpt>
      <trkpt lat="42.87491" lon="0.12717">
        <ele>2412.9148475886</ele>
        <time>2015-01-17T13:23:00Z</time>
      </trkpt>
      <trkpt lat="42.87495" lon="0.12718">
        <ele>2412.9148475886</ele>
        <time>2015-01-17T13:23:05Z</time>
      </trkpt>
      <trkpt lat="42.87498" lon="0.12719">
        <ele>2416.0334774168</ele>
        <time>2015-01-17T13:23:10Z</time>
      </trkpt>
      <trkpt lat="42.87497" lon="0.12717">
        <ele>2416.0334774168</ele>
        <time>2015-01-17T13:23:15Z</time>
      </trkpt>
      <trkpt lat="42.87494" lon="0.12718">
        <ele>2416.0334774168</ele>
        <time>2015-01-17T13:23:30Z</time>
      </trkpt>
      <trkpt lat="42.87493" lon="0.12727">
        <ele>2419.3426281777</ele>
        <time>2015-01-17T13:24:10Z</time>
      </trkpt>
      <trkpt lat="42.87493" lon="0.12729">
        <ele>2419.3426281777</ele>
        <time>2015-01-17T13:24:15Z</time>
      </trkpt>
      <trkpt lat="42.87491" lon="0.12731">
        <ele>2419.3426281777</ele>
        <time>2015-01-17T13:24:20Z</time>
      </trkpt>
      <trkpt lat="42.8749" lon="0.12735">
        <ele>2419.3426281777</ele>
        <time>2015-01-17T13:24:25Z</time>
      </trkpt>
      <trkpt lat="42.8749" lon="0.12739">
        <ele>2422.4097615167</ele>
        <time>2015-01-17T13:24:30Z</time>
      </trkpt>
      <trkpt lat="42.87488" lon="0.12741">
        <ele>2422.4097615167</ele>
        <time>2015-01-17T13:24:35Z</time>
      </trkpt>
      <trkpt lat="42.87484" lon="0.12752">
        <ele>2425.6273935077</ele>
        <time>2015-01-17T13:25:15Z</time>
      </trkpt>
      <trkpt lat="42.87483" lon="0.12754">
        <ele>2425.6273935077</ele>
        <time>2015-01-17T13:25:20Z</time>
      </trkpt>
      <trkpt lat="42.87481" lon="0.12756">
        <ele>2425.6273935077</ele>
        <time>2015-01-17T13:25:25Z</time>
      </trkpt>
      <trkpt lat="42.87479" lon="0.1276">
        <ele>2425.6273935077</ele>
        <time>2015-01-17T13:25:30Z</time>
      </trkpt>
      <trkpt lat="42.87476" lon="0.12763">
        <ele>2428.6526306766</ele>
        <time>2015-01-17T13:25:35Z</time>
      </trkpt>
      <trkpt lat="42.87474" lon="0.12766">
        <ele>2428.6526306766</ele>
        <time>2015-01-17T13:25:40Z</time>
      </trkpt>
      <trkpt lat="42.87472" lon="0.12769">
        <ele>2428.6526306766</ele>
        <time>2015-01-17T13:25:45Z</time>
      </trkpt>
      <trkpt lat="42.8747" lon="0.12771">
        <ele>2431.4853446663</ele>
        <time>2015-01-17T13:25:50Z</time>
      </trkpt>
      <trkpt lat="42.8747" lon="0.12773">
        <ele>2431.4853446663</ele>
        <time>2015-01-17T13:25:55Z</time>
      </trkpt>
      <trkpt lat="42.87472" lon="0.1278">
        <ele>2431.4853446663</ele>
        <time>2015-01-17T13:26:05Z</time>
      </trkpt>
      <trkpt lat="42.87473" lon="0.12781">
        <ele>2431.4853446663</ele>
        <time>2015-01-17T13:26:10Z</time>
      </trkpt>
      <trkpt lat="42.87473" lon="0.1278">
        <ele>2431.4853446663</ele>
        <time>2015-01-17T13:26:15Z</time>
      </trkpt>
      <trkpt lat="42.8747" lon="0.12785">
        <ele>2434.6591606151</ele>
        <time>2015-01-17T13:27:00Z</time>
      </trkpt>
      <trkpt lat="42.8747" lon="0.12787">
        <ele>2434.6591606151</ele>
        <time>2015-01-17T13:27:05Z</time>
      </trkpt>
      <trkpt lat="42.87466" lon="0.12792">
        <ele>2434.6591606151</ele>
        <time>2015-01-17T13:27:35Z</time>
      </trkpt>
      <trkpt lat="42.87463" lon="0.12796">
        <ele>2437.9613956054</ele>
        <time>2015-01-17T13:27:40Z</time>
      </trkpt>
      <trkpt lat="42.87462" lon="0.12799">
        <ele>2437.9613956054</ele>
        <time>2015-01-17T13:27:45Z</time>
      </trkpt>
      <trkpt lat="42.87461" lon="0.12803">
        <ele>2437.9613956054</ele>
        <time>2015-01-17T13:27:50Z</time>
      </trkpt>
      <trkpt lat="42.87458" lon="0.12806">
        <ele>2440.9640458548</ele>
        <time>2015-01-17T13:27:55Z</time>
      </trkpt>
      <trkpt lat="42.87457" lon="0.12809">
        <ele>2440.9640458548</ele>
        <time>2015-01-17T13:28:00Z</time>
      </trkpt>
      <trkpt lat="42.87455" lon="0.12812">
        <ele>2440.9640458548</ele>
        <time>2015-01-17T13:28:05Z</time>
      </trkpt>
      <trkpt lat="42.87454" lon="0.12815">
        <ele>2440.9640458548</ele>
        <time>2015-01-17T13:28:10Z</time>
      </trkpt>
      <trkpt lat="42.87453" lon="0.12816">
        <ele>2440.9640458548</ele>
        <time>2015-01-17T13:28:15Z</time>
      </trkpt>
      <trkpt lat="42.87451" lon="0.12826">
        <ele>2444.2513396555</ele>
        <time>2015-01-17T13:29:10Z</time>
      </trkpt>
      <trkpt lat="42.87451" lon="0.12829">
        <ele>2444.2513396555</ele>
        <time>2015-01-17T13:29:15Z</time>
      </trkpt>
      <trkpt lat="42.87451" lon="0.12832">
        <ele>2444.2513396555</ele>
        <time>2015-01-17T13:29:20Z</time>
      </trkpt>
      <trkpt lat="42.87451" lon="0.12836">
        <ele>2444.2513396555</ele>
        <time>2015-01-17T13:29:25Z</time>
      </trkpt>
      <trkpt lat="42.87452" lon="0.12839">
        <ele>2447.1676627438</ele>
        <time>2015-01-17T13:29:30Z</time>
      </trkpt>
      <trkpt lat="42.87452" lon="0.1284">
        <ele>2447.1676627438</ele>
        <time>2015-01-17T13:29:35Z</time>
      </trkpt>
      <trkpt lat="42.87452" lon="0.12846">
        <ele>2447.1676627438</ele>
        <time>2015-01-17T13:29:55Z</time>
      </trkpt>
      <trkpt lat="42.87452" lon="0.12849">
        <ele>2447.1676627438</ele>
        <time>2015-01-17T13:30:00Z</time>
      </trkpt>
      <trkpt lat="42.87451" lon="0.12853">
        <ele>2449.8559764483</ele>
        <time>2015-01-17T13:30:05Z</time>
      </trkpt>
      <trkpt lat="42.8745" lon="0.12857">
        <ele>2449.8559764483</ele>
        <time>2015-01-17T13:30:10Z</time>
      </trkpt>
      <trkpt lat="42.8745" lon="0.12863">
        <ele>2449.8559764483</ele>
        <time>2015-01-17T13:30:15Z</time>
      </trkpt>
      <trkpt lat="42.8745" lon="0.12866">
        <ele>2452.1899741666</ele>
        <time>2015-01-17T13:30:20Z</time>
      </trkpt>
      <trkpt lat="42.8745" lon="0.12879">
        <ele>2454.298602058</ele>
        <time>2015-01-17T13:31:15Z</time>
      </trkpt>
      <trkpt lat="42.87451" lon="0.12881">
        <ele>2454.298602058</ele>
        <time>2015-01-17T13:31:20Z</time>
      </trkpt>
      <trkpt lat="42.87449" lon="0.12881">
        <ele>2454.298602058</ele>
        <time>2015-01-17T13:31:25Z</time>
      </trkpt>
      <trkpt lat="42.87445" lon="0.12883">
        <ele>2454.298602058</ele>
        <time>2015-01-17T13:31:30Z</time>
      </trkpt>
      <trkpt lat="42.87441" lon="0.12885">
        <ele>2456.431652987</ele>
        <time>2015-01-17T13:31:35Z</time>
      </trkpt>
      <trkpt lat="42.87437" lon="0.12886">
        <ele>2456.431652987</ele>
        <time>2015-01-17T13:31:40Z</time>
      </trkpt>
      <trkpt lat="42.87434" lon="0.12888">
        <ele>2456.431652987</ele>
        <time>2015-01-17T13:31:45Z</time>
      </trkpt>
      <trkpt lat="42.87431" lon="0.12889">
        <ele>2458.5322602884</ele>
        <time>2015-01-17T13:31:50Z</time>
      </trkpt>
      <trkpt lat="42.87428" lon="0.1289">
        <ele>2458.5322602884</ele>
        <time>2015-01-17T13:31:55Z</time>
      </trkpt>
      <trkpt lat="42.87426" lon="0.12892">
        <ele>2458.5322602884</ele>
        <time>2015-01-17T13:32:00Z</time>
      </trkpt>
      <trkpt lat="42.87426" lon="0.12892">
        <ele>2458.5322602884</ele>
        <time>2015-01-17T13:32:05Z</time>
      </trkpt>
      <trkpt lat="42.87428" lon="0.12894">
        <ele>2458.5322602884</ele>
        <time>2015-01-17T13:33:00Z</time>
      </trkpt>
      <trkpt lat="42.87428" lon="0.12897">
        <ele>2460.965723412</ele>
        <time>2015-01-17T13:33:05Z</time>
      </trkpt>
      <trkpt lat="42.87426" lon="0.12903">
        <ele>2460.965723412</ele>
        <time>2015-01-17T13:33:10Z</time>
      </trkpt>
      <trkpt lat="42.87423" lon="0.12907">
        <ele>2460.965723412</ele>
        <time>2015-01-17T13:33:15Z</time>
      </trkpt>
      <trkpt lat="42.87421" lon="0.1291">
        <ele>2463.2481097794</ele>
        <time>2015-01-17T13:33:20Z</time>
      </trkpt>
      <trkpt lat="42.87417" lon="0.12914">
        <ele>2463.2481097794</ele>
        <time>2015-01-17T13:33:25Z</time>
      </trkpt>
      <trkpt lat="42.87413" lon="0.12919">
        <ele>2465.2484698465</ele>
        <time>2015-01-17T13:33:30Z</time>
      </trkpt>
      <trkpt lat="42.87412" lon="0.12925">
        <ele>2465.2484698465</ele>
        <time>2015-01-17T13:33:35Z</time>
      </trkpt>
      <trkpt lat="42.87411" lon="0.12929">
        <ele>2465.2484698465</ele>
        <time>2015-01-17T13:33:40Z</time>
      </trkpt>
      <trkpt lat="42.87411" lon="0.12932">
        <ele>2466.9326917037</ele>
        <time>2015-01-17T13:33:45Z</time>
      </trkpt>
      <trkpt lat="42.8741" lon="0.12936">
        <ele>2466.9326917037</ele>
        <time>2015-01-17T13:33:50Z</time>
      </trkpt>
      <trkpt lat="42.87409" lon="0.12941">
        <ele>2466.9326917037</ele>
        <time>2015-01-17T13:33:55Z</time>
      </trkpt>
      <trkpt lat="42.87409" lon="0.12946">
        <ele>2468.3852996505</ele>
        <time>2015-01-17T13:34:00Z</time>
      </trkpt>
      <trkpt lat="42.87407" lon="0.12949">
        <ele>2468.3852996505</ele>
        <time>2015-01-17T13:34:05Z</time>
      </trkpt>
      <trkpt lat="42.87407" lon="0.1295">
        <ele>2468.3852996505</ele>
        <time>2015-01-17T13:34:10Z</time>
      </trkpt>
      <trkpt lat="42.87405" lon="0.12962">
        <ele>2469.886962047</ele>
        <time>2015-01-17T13:34:55Z</time>
      </trkpt>
      <trkpt lat="42.87404" lon="0.12964">
        <ele>2469.886962047</ele>
        <time>2015-01-17T13:35:00Z</time>
      </trkpt>
      <trkpt lat="42.87402" lon="0.12966">
        <ele>2469.886962047</ele>
        <time>2015-01-17T13:35:05Z</time>
      </trkpt>
      <trkpt lat="42.87402" lon="0.12969">
        <ele>2469.886962047</ele>
        <time>2015-01-17T13:35:10Z</time>
      </trkpt>
      <trkpt lat="42.87403" lon="0.12971">
        <ele>2469.886962047</ele>
        <time>2015-01-17T13:35:15Z</time>
      </trkpt>
      <trkpt lat="42.87407" lon="0.12972">
        <ele>2471.1499093126</ele>
        <time>2015-01-17T13:35:20Z</time>
      </trkpt>
      <trkpt lat="42.87409" lon="0.12973">
        <ele>2471.1499093126</ele>
        <time>2015-01-17T13:35:25Z</time>
      </trkpt>
      <trkpt lat="42.87413" lon="0.12971">
        <ele>2471.1499093126</ele>
        <time>2015-01-17T13:36:15Z</time>
      </trkpt>
      <trkpt lat="42.87415" lon="0.12973">
        <ele>2472.2828012888</ele>
        <time>2015-01-17T13:36:20Z</time>
      </trkpt>
      <trkpt lat="42.87416" lon="0.12977">
        <ele>2472.2828012888</ele>
        <time>2015-01-17T13:36:25Z</time>
      </trkpt>
      <trkpt lat="42.87416" lon="0.12981">
        <ele>2472.2828012888</ele>
        <time>2015-01-17T13:36:30Z</time>
      </trkpt>
      <trkpt lat="42.87416" lon="0.12982">
        <ele>2472.2828012888</ele>
        <time>2015-01-17T13:36:35Z</time>
      </trkpt>
      <trkpt lat="42.87416" lon="0.12993">
        <ele>2473.444247902</ele>
        <time>2015-01-17T13:37:00Z</time>
      </trkpt>
      <trkpt lat="42.87415" lon="0.12993">
        <ele>2473.444247902</ele>
        <time>2015-01-17T13:37:05Z</time>
      </trkpt>
      <trkpt lat="42.87422" lon="0.13002">
        <ele>2474.7954536577</ele>
        <time>2015-01-17T13:37:50Z</time>
      </trkpt>
      <trkpt lat="42.87423" lon="0.13001">
        <ele>2474.7954536577</ele>
        <time>2015-01-17T13:37:55Z</time>
      </trkpt>
      <trkpt lat="42.87413" lon="0.13003">
        <ele>2477.6236371705</ele>
        <time>2015-01-17T13:41:10Z</time>
      </trkpt>
      <trkpt lat="42.87413" lon="0.13003">
        <ele>2477.6236371705</ele>
        <time>2015-01-17T13:41:15Z</time>
      </trkpt>
      <trkpt lat="42.8741" lon="0.13004">
        <ele>2477.6236371705</ele>
        <time>2015-01-17T13:41:25Z</time>
      </trkpt>
      <trkpt lat="42.87408" lon="0.13013">
        <ele>2480.1485331679</ele>
        <time>2015-01-17T13:41:40Z</time>
      </trkpt>
      <trkpt lat="42.87406" lon="0.13014">
        <ele>2480.1485331679</ele>
        <time>2015-01-17T13:41:45Z</time>
      </trkpt>
      <trkpt lat="42.87412" lon="0.1302">
        <ele>2480.1485331679</ele>
        <time>2015-01-17T13:43:00Z</time>
      </trkpt>
      <trkpt lat="42.8741" lon="0.13022">
        <ele>2482.6957363947</ele>
        <time>2015-01-17T13:43:05Z</time>
      </trkpt>
      <trkpt lat="42.87409" lon="0.13024">
        <ele>2482.6957363947</ele>
        <time>2015-01-17T13:43:10Z</time>
      </trkpt>
      <trkpt lat="42.87408" lon="0.13025">
        <ele>2482.6957363947</ele>
        <time>2015-01-17T13:43:15Z</time>
      </trkpt>
      <trkpt lat="42.87407" lon="0.13028">
        <ele>2482.6957363947</ele>
        <time>2015-01-17T13:43:20Z</time>
      </trkpt>
      <trkpt lat="42.87405" lon="0.1303">
        <ele>2482.6957363947</ele>
        <time>2015-01-17T13:43:25Z</time>
      </trkpt>
      <trkpt lat="42.87403" lon="0.13034">
        <ele>2485.3650185383</ele>
        <time>2015-01-17T13:43:30Z</time>
      </trkpt>
      <trkpt lat="42.87403" lon="0.13035">
        <ele>2485.3650185383</ele>
        <time>2015-01-17T13:43:35Z</time>
      </trkpt>
      <trkpt lat="42.87397" lon="0.13042">
        <ele>2485.3650185383</ele>
        <time>2015-01-17T13:43:50Z</time>
      </trkpt>
      <trkpt lat="42.87397" lon="0.13044">
        <ele>2487.9313537802</ele>
        <time>2015-01-17T13:43:55Z</time>
      </trkpt>
      <trkpt lat="42.87385" lon="0.13047">
        <ele>2490.8781934351</ele>
        <time>2015-01-17T13:44:30Z</time>
      </trkpt>
      <trkpt lat="42.87384" lon="0.1305">
        <ele>2490.8781934351</ele>
        <time>2015-01-17T13:44:35Z</time>
      </trkpt>
      <trkpt lat="42.87382" lon="0.13053">
        <ele>2490.8781934351</ele>
        <time>2015-01-17T13:44:40Z</time>
      </trkpt>
      <trkpt lat="42.87379" lon="0.13057">
        <ele>2493.6291483272</ele>
        <time>2015-01-17T13:44:45Z</time>
      </trkpt>
      <trkpt lat="42.87377" lon="0.1306">
        <ele>2493.6291483272</ele>
        <time>2015-01-17T13:44:50Z</time>
      </trkpt>
      <trkpt lat="42.87375" lon="0.13062">
        <ele>2493.6291483272</ele>
        <time>2015-01-17T13:44:55Z</time>
      </trkpt>
      <trkpt lat="42.87373" lon="0.13064">
        <ele>2493.6291483272</ele>
        <time>2015-01-17T13:45:00Z</time>
      </trkpt>
      <trkpt lat="42.87372" lon="0.13068">
        <ele>2496.255923002</ele>
        <time>2015-01-17T13:45:05Z</time>
      </trkpt>
      <trkpt lat="42.8737" lon="0.13072">
        <ele>2496.255923002</ele>
        <time>2015-01-17T13:45:10Z</time>
      </trkpt>
      <trkpt lat="42.87368" lon="0.13075">
        <ele>2496.255923002</ele>
        <time>2015-01-17T13:45:15Z</time>
      </trkpt>
      <trkpt lat="42.87365" lon="0.13079">
        <ele>2498.7387777682</ele>
        <time>2015-01-17T13:45:20Z</time>
      </trkpt>
      <trkpt lat="42.87364" lon="0.13081">
        <ele>2498.7387777682</ele>
        <time>2015-01-17T13:45:25Z</time>
      </trkpt>
      <trkpt lat="42.87364" lon="0.13081">
        <ele>2498.7387777682</ele>
        <time>2015-01-17T13:45:30Z</time>
      </trkpt>
      <trkpt lat="42.87361" lon="0.13089">
        <ele>2498.7387777682</ele>
        <time>2015-01-17T13:45:40Z</time>
      </trkpt>
      <trkpt lat="42.87359" lon="0.13094">
        <ele>2501.2182953115</ele>
        <time>2015-01-17T13:45:45Z</time>
      </trkpt>
      <trkpt lat="42.87358" lon="0.13097">
        <ele>2501.2182953115</ele>
        <time>2015-01-17T13:45:50Z</time>
      </trkpt>
      <trkpt lat="42.8736" lon="0.131">
        <ele>2501.2182953115</ele>
        <time>2015-01-17T13:45:55Z</time>
      </trkpt>
      <trkpt lat="42.87358" lon="0.1311">
        <ele>2503.305889765</ele>
        <time>2015-01-17T13:50:50Z</time>
      </trkpt>
      <trkpt lat="42.8736" lon="0.1311">
        <ele>2503.305889765</ele>
        <time>2015-01-17T13:50:55Z</time>
      </trkpt>
      <trkpt lat="42.87354" lon="0.13109">
        <ele>2503.305889765</ele>
        <time>2015-01-17T14:13:45Z</time>
      </trkpt>
      <trkpt lat="42.87353" lon="0.13109">
        <ele>2503.305889765</ele>
        <time>2015-01-17T14:13:50Z</time>
      </trkpt>
      <trkpt lat="42.87349" lon="0.13113">
        <ele>2505.2046046809</ele>
        <time>2015-01-17T14:14:55Z</time>
      </trkpt>
      <trkpt lat="42.8734" lon="0.13118">
        <ele>2506.7715933452</ele>
        <time>2015-01-17T14:15:00Z</time>
      </trkpt>
      <trkpt lat="42.87337" lon="0.13118">
        <ele>2506.7715933452</ele>
        <time>2015-01-17T14:15:05Z</time>
      </trkpt>
      <trkpt lat="42.87338" lon="0.13116">
        <ele>2506.7715933452</ele>
        <time>2015-01-17T14:15:10Z</time>
      </trkpt>
      <trkpt lat="42.87332" lon="0.13116">
        <ele>2507.6159811572</ele>
        <time>2015-01-17T14:29:50Z</time>
      </trkpt>
      <trkpt lat="42.87333" lon="0.13116">
        <ele>2507.6159811572</ele>
        <time>2015-01-17T14:29:55Z</time>
      </trkpt>
      <trkpt lat="42.87339" lon="0.13124">
        <ele>2508.3142995443</ele>
        <time>2015-01-17T14:32:20Z</time>
      </trkpt>
      <trkpt lat="42.87327" lon="0.13123">
        <ele>2508.7813952483</ele>
        <time>2015-01-17T14:33:10Z</time>
      </trkpt>
      <trkpt lat="42.8733" lon="0.13112">
        <ele>2508.7813952483</ele>
        <time>2015-01-17T14:33:15Z</time>
      </trkpt>
      <trkpt lat="42.87329" lon="0.13101">
        <ele>2508.9821776606</ele>
        <time>2015-01-17T14:33:20Z</time>
      </trkpt>
      <trkpt lat="42.87331" lon="0.13091">
        <ele>2508.9821776606</ele>
        <time>2015-01-17T14:33:25Z</time>
      </trkpt>
      <trkpt lat="42.87332" lon="0.13085">
        <ele>2508.9424393825</ele>
        <time>2015-01-17T14:33:30Z</time>
      </trkpt>
      <trkpt lat="42.87336" lon="0.13076">
        <ele>2508.9424393825</ele>
        <time>2015-01-17T14:33:35Z</time>
      </trkpt>
      <trkpt lat="42.87339" lon="0.13071">
        <ele>2508.6578324775</ele>
        <time>2015-01-17T14:33:40Z</time>
      </trkpt>
      <trkpt lat="42.87344" lon="0.13066">
        <ele>2508.6578324775</ele>
        <time>2015-01-17T14:33:45Z</time>
      </trkpt>
      <trkpt lat="42.87346" lon="0.13059">
        <ele>2508.1249038918</ele>
        <time>2015-01-17T14:33:50Z</time>
      </trkpt>
      <trkpt lat="42.87346" lon="0.13054">
        <ele>2508.1249038918</ele>
        <time>2015-01-17T14:33:55Z</time>
      </trkpt>
      <trkpt lat="42.87347" lon="0.13051">
        <ele>2508.1249038918</ele>
        <time>2015-01-17T14:34:00Z</time>
      </trkpt>
      <trkpt lat="42.87345" lon="0.13046">
        <ele>2507.2689698026</ele>
        <time>2015-01-17T14:34:05Z</time>
      </trkpt>
      <trkpt lat="42.87344" lon="0.13043">
        <ele>2507.2689698026</ele>
        <time>2015-01-17T14:34:10Z</time>
      </trkpt>
      <trkpt lat="42.87339" lon="0.13041">
        <ele>2507.2689698026</ele>
        <time>2015-01-17T14:34:15Z</time>
      </trkpt>
      <trkpt lat="42.87331" lon="0.13049">
        <ele>2505.9207202801</ele>
        <time>2015-01-17T14:34:20Z</time>
      </trkpt>
      <trkpt lat="42.87327" lon="0.13044">
        <ele>2505.9207202801</ele>
        <time>2015-01-17T14:34:25Z</time>
      </trkpt>
      <trkpt lat="42.87322" lon="0.13038">
        <ele>2504.3424294762</ele>
        <time>2015-01-17T14:34:30Z</time>
      </trkpt>
      <trkpt lat="42.87312" lon="0.13034">
        <ele>2502.6911099949</ele>
        <time>2015-01-17T14:34:35Z</time>
      </trkpt>
      <trkpt lat="42.87309" lon="0.1303">
        <ele>2502.6911099949</ele>
        <time>2015-01-17T14:34:40Z</time>
      </trkpt>
      <trkpt lat="42.87307" lon="0.13017">
        <ele>2500.1322970114</ele>
        <time>2015-01-17T14:35:05Z</time>
      </trkpt>
      <trkpt lat="42.87307" lon="0.13017">
        <ele>2500.1322970114</ele>
        <time>2015-01-17T14:35:10Z</time>
      </trkpt>
      <trkpt lat="42.87305" lon="0.13007">
        <ele>2500.1322970114</ele>
        <time>2015-01-17T14:36:40Z</time>
      </trkpt>
      <trkpt lat="42.87305" lon="0.13009">
        <ele>2496.5292466641</ele>
        <time>2015-01-17T14:36:45Z</time>
      </trkpt>
      <trkpt lat="42.87301" lon="0.1301">
        <ele>2496.5292466641</ele>
        <time>2015-01-17T14:36:50Z</time>
      </trkpt>
      <trkpt lat="42.87297" lon="0.13005">
        <ele>2493.0117212291</ele>
        <time>2015-01-17T14:36:55Z</time>
      </trkpt>
      <trkpt lat="42.87294" lon="0.13002">
        <ele>2493.0117212291</ele>
        <time>2015-01-17T14:37:00Z</time>
      </trkpt>
      <trkpt lat="42.87295" lon="0.12994">
        <ele>2489.5451583917</ele>
        <time>2015-01-17T14:37:05Z</time>
      </trkpt>
      <trkpt lat="42.87303" lon="0.12987">
        <ele>2486.1547529566</ele>
        <time>2015-01-17T14:37:10Z</time>
      </trkpt>
      <trkpt lat="42.87309" lon="0.12974">
        <ele>2482.8777408817</ele>
        <time>2015-01-17T14:37:15Z</time>
      </trkpt>
      <trkpt lat="42.8731" lon="0.1296">
        <ele>2479.6903357874</ele>
        <time>2015-01-17T14:37:20Z</time>
      </trkpt>
      <trkpt lat="42.87313" lon="0.12947">
        <ele>2476.5987293014</ele>
        <time>2015-01-17T14:37:25Z</time>
      </trkpt>
      <trkpt lat="42.87316" lon="0.12938">
        <ele>2476.5987293014</ele>
        <time>2015-01-17T14:37:30Z</time>
      </trkpt>
      <trkpt lat="42.87318" lon="0.12934">
        <ele>2473.435102888</ele>
        <time>2015-01-17T14:37:35Z</time>
      </trkpt>
      <trkpt lat="42.87308" lon="0.12908">
        <ele>2470.4473157776</ele>
        <time>2015-01-17T14:37:40Z</time>
      </trkpt>
      <trkpt lat="42.8731" lon="0.12906">
        <ele>2470.4473157776</ele>
        <time>2015-01-17T14:37:45Z</time>
      </trkpt>
      <trkpt lat="42.87314" lon="0.12901">
        <ele>2470.4473157776</ele>
        <time>2015-01-17T14:37:50Z</time>
      </trkpt>
      <trkpt lat="42.87318" lon="0.12889">
        <ele>2467.2156543403</ele>
        <time>2015-01-17T14:37:55Z</time>
      </trkpt>
      <trkpt lat="42.87323" lon="0.1288">
        <ele>2467.2156543403</ele>
        <time>2015-01-17T14:38:00Z</time>
      </trkpt>
      <trkpt lat="42.87331" lon="0.12868">
        <ele>2463.8415204192</ele>
        <time>2015-01-17T14:38:05Z</time>
      </trkpt>
      <trkpt lat="42.8734" lon="0.12853">
        <ele>2460.6062272353</ele>
        <time>2015-01-17T14:38:10Z</time>
      </trkpt>
      <trkpt lat="42.87354" lon="0.12838">
        <ele>2457.4237786818</ele>
        <time>2015-01-17T14:38:15Z</time>
      </trkpt>
      <trkpt lat="42.87362" lon="0.1282">
        <ele>2454.2427791146</ele>
        <time>2015-01-17T14:38:20Z</time>
      </trkpt>
      <trkpt lat="42.87369" lon="0.128">
        <ele>2451.015212266</ele>
        <time>2015-01-17T14:38:25Z</time>
      </trkpt>
      <trkpt lat="42.87375" lon="0.12787">
        <ele>2447.8980837391</ele>
        <time>2015-01-17T14:38:30Z</time>
      </trkpt>
      <trkpt lat="42.87382" lon="0.12768">
        <ele>2444.8776437157</ele>
        <time>2015-01-17T14:38:35Z</time>
      </trkpt>
      <trkpt lat="42.8739" lon="0.12745">
        <ele>2441.8252055784</ele>
        <time>2015-01-17T14:38:40Z</time>
      </trkpt>
      <trkpt lat="42.874" lon="0.12723">
        <ele>2438.5924208418</ele>
        <time>2015-01-17T14:38:45Z</time>
      </trkpt>
      <trkpt lat="42.87411" lon="0.12704">
        <ele>2435.3013668192</ele>
        <time>2015-01-17T14:38:50Z</time>
      </trkpt>
      <trkpt lat="42.87417" lon="0.12681">
        <ele>2432.0217106258</ele>
        <time>2015-01-17T14:38:55Z</time>
      </trkpt>
      <trkpt lat="42.87419" lon="0.12666">
        <ele>2428.774369277</ele>
        <time>2015-01-17T14:39:00Z</time>
      </trkpt>
      <trkpt lat="42.87422" lon="0.12647">
        <ele>2425.535038087</ele>
        <time>2015-01-17T14:39:05Z</time>
      </trkpt>
      <trkpt lat="42.87428" lon="0.12633">
        <ele>2422.3096430026</ele>
        <time>2015-01-17T14:39:10Z</time>
      </trkpt>
      <trkpt lat="42.87425" lon="0.12615">
        <ele>2418.7430098055</ele>
        <time>2015-01-17T14:39:15Z</time>
      </trkpt>
      <trkpt lat="42.87432" lon="0.12611">
        <ele>2418.7430098055</ele>
        <time>2015-01-17T14:39:25Z</time>
      </trkpt>
      <trkpt lat="42.87437" lon="0.12603">
        <ele>2415.2560496789</ele>
        <time>2015-01-17T14:39:30Z</time>
      </trkpt>
      <trkpt lat="42.87442" lon="0.126">
        <ele>2415.2560496789</ele>
        <time>2015-01-17T14:39:35Z</time>
      </trkpt>
      <trkpt lat="42.87442" lon="0.12595">
        <ele>2415.2560496789</ele>
        <time>2015-01-17T14:39:40Z</time>
      </trkpt>
      <trkpt lat="42.87434" lon="0.12603">
        <ele>2410.9411945984</ele>
        <time>2015-01-17T14:40:10Z</time>
      </trkpt>
      <trkpt lat="42.87431" lon="0.12607">
        <ele>2410.9411945984</ele>
        <time>2015-01-17T14:40:15Z</time>
      </trkpt>
      <trkpt lat="42.87427" lon="0.12614">
        <ele>2406.8762165748</ele>
        <time>2015-01-17T14:40:20Z</time>
      </trkpt>
      <trkpt lat="42.87426" lon="0.12617">
        <ele>2406.8762165748</ele>
        <time>2015-01-17T14:40:25Z</time>
      </trkpt>
      <trkpt lat="42.87427" lon="0.12616">
        <ele>2406.8762165748</ele>
        <time>2015-01-17T14:40:30Z</time>
      </trkpt>
      <trkpt lat="42.87423" lon="0.12617">
        <ele>2406.8762165748</ele>
        <time>2015-01-17T14:41:35Z</time>
      </trkpt>
      <trkpt lat="42.87425" lon="0.12613">
        <ele>2401.4214508797</ele>
        <time>2015-01-17T14:41:40Z</time>
      </trkpt>
      <trkpt lat="42.87431" lon="0.12606">
        <ele>2401.4214508797</ele>
        <time>2015-01-17T14:41:45Z</time>
      </trkpt>
      <trkpt lat="42.87439" lon="0.12594">
        <ele>2396.447864149</ele>
        <time>2015-01-17T14:41:50Z</time>
      </trkpt>
      <trkpt lat="42.87455" lon="0.1258">
        <ele>2392.0156142761</ele>
        <time>2015-01-17T14:41:55Z</time>
      </trkpt>
      <trkpt lat="42.87466" lon="0.12567">
        <ele>2388.0488925865</ele>
        <time>2015-01-17T14:42:00Z</time>
      </trkpt>
      <trkpt lat="42.87476" lon="0.12558">
        <ele>2384.533472101</ele>
        <time>2015-01-17T14:42:05Z</time>
      </trkpt>
      <trkpt lat="42.87483" lon="0.12549">
        <ele>2381.4257648063</ele>
        <time>2015-01-17T14:42:10Z</time>
      </trkpt>
      <trkpt lat="42.87489" lon="0.12548">
        <ele>2381.4257648063</ele>
        <time>2015-01-17T14:42:15Z</time>
      </trkpt>
      <trkpt lat="42.87491" lon="0.12545">
        <ele>2381.4257648063</ele>
        <time>2015-01-17T14:42:20Z</time>
      </trkpt>
      <trkpt lat="42.8749" lon="0.12542">
        <ele>2377.9345555967</ele>
        <time>2015-01-17T14:42:55Z</time>
      </trkpt>
      <trkpt lat="42.87493" lon="0.12539">
        <ele>2377.9345555967</ele>
        <time>2015-01-17T14:43:00Z</time>
      </trkpt>
      <trkpt lat="42.87497" lon="0.12536">
        <ele>2377.9345555967</ele>
        <time>2015-01-17T14:43:05Z</time>
      </trkpt>
      <trkpt lat="42.87506" lon="0.12534">
        <ele>2374.7830561775</ele>
        <time>2015-01-17T14:43:10Z</time>
      </trkpt>
      <trkpt lat="42.87514" lon="0.12539">
        <ele>2371.9772079835</ele>
        <time>2015-01-17T14:43:15Z</time>
      </trkpt>
      <trkpt lat="42.8752" lon="0.12541">
        <ele>2371.9772079835</ele>
        <time>2015-01-17T14:43:20Z</time>
      </trkpt>
      <trkpt lat="42.87523" lon="0.1254">
        <ele>2369.405994067</ele>
        <time>2015-01-17T14:43:25Z</time>
      </trkpt>
      <trkpt lat="42.87527" lon="0.12539">
        <ele>2369.405994067</ele>
        <time>2015-01-17T14:43:30Z</time>
      </trkpt>
      <trkpt lat="42.87537" lon="0.12535">
        <ele>2367.1529928674</ele>
        <time>2015-01-17T14:43:35Z</time>
      </trkpt>
      <trkpt lat="42.87546" lon="0.1253">
        <ele>2365.2801126001</ele>
        <time>2015-01-17T14:43:40Z</time>
      </trkpt>
      <trkpt lat="42.87542" lon="0.12526">
        <ele>2365.2801126001</ele>
        <time>2015-01-17T14:43:45Z</time>
      </trkpt>
      <trkpt lat="42.87542" lon="0.12519">
        <ele>2363.6416860184</ele>
        <time>2015-01-17T14:43:50Z</time>
      </trkpt>
      <trkpt lat="42.87538" lon="0.12516">
        <ele>2363.6416860184</ele>
        <time>2015-01-17T14:43:55Z</time>
      </trkpt>
      <trkpt lat="42.8754" lon="0.12508">
        <ele>2362.0586719363</ele>
        <time>2015-01-17T14:44:00Z</time>
      </trkpt>
      <trkpt lat="42.87543" lon="0.12502">
        <ele>2362.0586719363</ele>
        <time>2015-01-17T14:44:05Z</time>
      </trkpt>
      <trkpt lat="42.87544" lon="0.12498">
        <ele>2362.0586719363</ele>
        <time>2015-01-17T14:44:10Z</time>
      </trkpt>
      <trkpt lat="42.87547" lon="0.12491">
        <ele>2360.2783982658</ele>
        <time>2015-01-17T14:44:45Z</time>
      </trkpt>
      <trkpt lat="42.87547" lon="0.12476">
        <ele>2358.8165471366</ele>
        <time>2015-01-17T14:44:50Z</time>
      </trkpt>
      <trkpt lat="42.87549" lon="0.12469">
        <ele>2358.8165471366</ele>
        <time>2015-01-17T14:44:55Z</time>
      </trkpt>
      <trkpt lat="42.87546" lon="0.12463">
        <ele>2357.458175715</ele>
        <time>2015-01-17T14:45:00Z</time>
      </trkpt>
      <trkpt lat="42.87546" lon="0.12453">
        <ele>2357.458175715</ele>
        <time>2015-01-17T14:45:05Z</time>
      </trkpt>
      <trkpt lat="42.8755" lon="0.12452">
        <ele>2356.291967855</ele>
        <time>2015-01-17T14:45:10Z</time>
      </trkpt>
      <trkpt lat="42.87547" lon="0.12449">
        <ele>2356.291967855</ele>
        <time>2015-01-17T14:45:15Z</time>
      </trkpt>
      <trkpt lat="42.87547" lon="0.12451">
        <ele>2356.291967855</ele>
        <time>2015-01-17T14:45:20Z</time>
      </trkpt>
      <trkpt lat="42.87545" lon="0.12454">
        <ele>2356.291967855</ele>
        <time>2015-01-17T14:45:30Z</time>
      </trkpt>
      <trkpt lat="42.87545" lon="0.12453">
        <ele>2356.291967855</ele>
        <time>2015-01-17T14:45:35Z</time>
      </trkpt>
      <trkpt lat="42.87545" lon="0.12444">
        <ele>2354.1601219808</ele>
        <time>2015-01-17T14:46:10Z</time>
      </trkpt>
      <trkpt lat="42.87549" lon="0.12433">
        <ele>2352.2839069401</ele>
        <time>2015-01-17T14:46:15Z</time>
      </trkpt>
      <trkpt lat="42.87552" lon="0.12425">
        <ele>2352.2839069401</ele>
        <time>2015-01-17T14:46:20Z</time>
      </trkpt>
      <trkpt lat="42.87554" lon="0.12416">
        <ele>2350.5259411406</ele>
        <time>2015-01-17T14:46:25Z</time>
      </trkpt>
      <trkpt lat="42.87554" lon="0.12411">
        <ele>2350.5259411406</ele>
        <time>2015-01-17T14:46:30Z</time>
      </trkpt>
      <trkpt lat="42.87555" lon="0.12411">
        <ele>2350.5259411406</ele>
        <time>2015-01-17T14:46:35Z</time>
      </trkpt>
      <trkpt lat="42.87548" lon="0.1242">
        <ele>2348.4991753089</ele>
        <time>2015-01-17T14:46:55Z</time>
      </trkpt>
      <trkpt lat="42.87548" lon="0.12419">
        <ele>2348.4991753089</ele>
        <time>2015-01-17T14:47:00Z</time>
      </trkpt>
      <trkpt lat="42.87543" lon="0.12408">
        <ele>2345.7016179804</ele>
        <time>2015-01-17T14:47:05Z</time>
      </trkpt>
      <trkpt lat="42.8754" lon="0.12399">
        <ele>2345.7016179804</ele>
        <time>2015-01-17T14:47:10Z</time>
      </trkpt>
      <trkpt lat="42.8754" lon="0.12399">
        <ele>2345.7016179804</ele>
        <time>2015-01-17T14:47:15Z</time>
      </trkpt>
      <trkpt lat="42.8754" lon="0.12399">
        <ele>2345.7016179804</ele>
        <time>2015-01-17T14:47:35Z</time>
      </trkpt>
      <trkpt lat="42.87539" lon="0.12395">
        <ele>2340.5894693008</ele>
        <time>2015-01-17T14:47:40Z</time>
      </trkpt>
      <trkpt lat="42.87546" lon="0.12389">
        <ele>2340.5894693008</ele>
        <time>2015-01-17T14:47:45Z</time>
      </trkpt>
      <trkpt lat="42.87549" lon="0.12383">
        <ele>2335.658639455</ele>
        <time>2015-01-17T14:47:50Z</time>
      </trkpt>
      <trkpt lat="42.87548" lon="0.1238">
        <ele>2335.658639455</ele>
        <time>2015-01-17T14:47:55Z</time>
      </trkpt>
      <trkpt lat="42.87544" lon="0.12374">
        <ele>2335.658639455</ele>
        <time>2015-01-17T14:48:00Z</time>
      </trkpt>
      <trkpt lat="42.87547" lon="0.12369">
        <ele>2330.7136272901</ele>
        <time>2015-01-17T14:48:05Z</time>
      </trkpt>
      <trkpt lat="42.87552" lon="0.12361">
        <ele>2330.7136272901</ele>
        <time>2015-01-17T14:48:10Z</time>
      </trkpt>
      <trkpt lat="42.87547" lon="0.12354">
        <ele>2325.8759345978</ele>
        <time>2015-01-17T14:48:15Z</time>
      </trkpt>
      <trkpt lat="42.8755" lon="0.12347">
        <ele>2325.8759345978</ele>
        <time>2015-01-17T14:48:20Z</time>
      </trkpt>
      <trkpt lat="42.8755" lon="0.12335">
        <ele>2321.2577922484</ele>
        <time>2015-01-17T14:48:25Z</time>
      </trkpt>
      <trkpt lat="42.87541" lon="0.12325">
        <ele>2316.8904603581</ele>
        <time>2015-01-17T14:48:30Z</time>
      </trkpt>
      <trkpt lat="42.87529" lon="0.1232">
        <ele>2312.22569056</ele>
        <time>2015-01-17T14:48:35Z</time>
      </trkpt>
      <trkpt lat="42.87523" lon="0.12309">
        <ele>2307.851516956</ele>
        <time>2015-01-17T14:48:40Z</time>
      </trkpt>
      <trkpt lat="42.87517" lon="0.12292">
        <ele>2303.6633854629</ele>
        <time>2015-01-17T14:48:45Z</time>
      </trkpt>
      <trkpt lat="42.87518" lon="0.12279">
        <ele>2299.5926428662</ele>
        <time>2015-01-17T14:48:50Z</time>
      </trkpt>
      <trkpt lat="42.87516" lon="0.12262">
        <ele>2295.5608562697</ele>
        <time>2015-01-17T14:48:55Z</time>
      </trkpt>
      <trkpt lat="42.8752" lon="0.12248">
        <ele>2291.5960395483</ele>
        <time>2015-01-17T14:49:00Z</time>
      </trkpt>
      <trkpt lat="42.87522" lon="0.12249">
        <ele>2291.5960395483</ele>
        <time>2015-01-17T14:49:05Z</time>
      </trkpt>
      <trkpt lat="42.87522" lon="0.12249">
        <ele>2291.5960395483</ele>
        <time>2015-01-17T14:49:10Z</time>
      </trkpt>
      <trkpt lat="42.87531" lon="0.12256">
        <ele>2285.9657183624</ele>
        <time>2015-01-17T14:49:20Z</time>
      </trkpt>
      <trkpt lat="42.87532" lon="0.12256">
        <ele>2285.9657183624</ele>
        <time>2015-01-17T14:49:25Z</time>
      </trkpt>
      <trkpt lat="42.87531" lon="0.12254">
        <ele>2285.9657183624</ele>
        <time>2015-01-17T14:49:35Z</time>
      </trkpt>
      <trkpt lat="42.8753" lon="0.12239">
        <ele>2279.677677673</ele>
        <time>2015-01-17T14:49:40Z</time>
      </trkpt>
      <trkpt lat="42.87523" lon="0.12221">
        <ele>2273.4944826431</ele>
        <time>2015-01-17T14:49:45Z</time>
      </trkpt>
      <trkpt lat="42.87518" lon="0.12209">
        <ele>2267.7331750076</ele>
        <time>2015-01-17T14:49:50Z</time>
      </trkpt>
      <trkpt lat="42.87517" lon="0.12197">
        <ele>2267.7331750076</ele>
        <time>2015-01-17T14:49:55Z</time>
      </trkpt>
      <trkpt lat="42.87519" lon="0.12189">
        <ele>2262.1529877654</ele>
        <time>2015-01-17T14:50:00Z</time>
      </trkpt>
      <trkpt lat="42.87519" lon="0.12191">
        <ele>2262.1529877654</ele>
        <time>2015-01-17T14:50:05Z</time>
      </trkpt>
      <trkpt lat="42.87521" lon="0.12191">
        <ele>2262.1529877654</ele>
        <time>2015-01-17T14:50:10Z</time>
      </trkpt>
      <trkpt lat="42.87528" lon="0.12199">
        <ele>2253.6623800765</ele>
        <time>2015-01-17T14:50:45Z</time>
      </trkpt>
      <trkpt lat="42.8753" lon="0.122">
        <ele>2253.6623800765</ele>
        <time>2015-01-17T14:50:50Z</time>
      </trkpt>
      <trkpt lat="42.87536" lon="0.12196">
        <ele>2253.6623800765</ele>
        <time>2015-01-17T14:51:10Z</time>
      </trkpt>
      <trkpt lat="42.87533" lon="0.12189">
        <ele>2244.2326439362</ele>
        <time>2015-01-17T14:51:15Z</time>
      </trkpt>
      <trkpt lat="42.87522" lon="0.12182">
        <ele>2235.4909599837</ele>
        <time>2015-01-17T14:51:20Z</time>
      </trkpt>
      <trkpt lat="42.87518" lon="0.12172">
        <ele>2235.4909599837</ele>
        <time>2015-01-17T14:51:25Z</time>
      </trkpt>
      <trkpt lat="42.87526" lon="0.12164">
        <ele>2227.3143853676</ele>
        <time>2015-01-17T14:51:30Z</time>
      </trkpt>
      <trkpt lat="42.87519" lon="0.12155">
        <ele>2219.8610041352</ele>
        <time>2015-01-17T14:51:35Z</time>
      </trkpt>
      <trkpt lat="42.87515" lon="0.12135">
        <ele>2213.1020761654</ele>
        <time>2015-01-17T14:51:40Z</time>
      </trkpt>
      <trkpt lat="42.87521" lon="0.12125">
        <ele>2207.0519975387</ele>
        <time>2015-01-17T14:51:45Z</time>
      </trkpt>
      <trkpt lat="42.87532" lon="0.12113">
        <ele>2201.6642099431</ele>
        <time>2015-01-17T14:51:50Z</time>
      </trkpt>
      <trkpt lat="42.8753" lon="0.12115">
        <ele>2201.6642099431</ele>
        <time>2015-01-17T14:51:55Z</time>
      </trkpt>
      <trkpt lat="42.87534" lon="0.12121">
        <ele>2201.6642099431</ele>
        <time>2015-01-17T14:52:15Z</time>
      </trkpt>
      <trkpt lat="42.87533" lon="0.1212">
        <ele>2195.6829207511</ele>
        <time>2015-01-17T14:52:20Z</time>
      </trkpt>
      <trkpt lat="42.8753" lon="0.12118">
        <ele>2195.6829207511</ele>
        <time>2015-01-17T14:52:25Z</time>
      </trkpt>
      <trkpt lat="42.87534" lon="0.12107">
        <ele>2190.2517737074</ele>
        <time>2015-01-17T14:52:30Z</time>
      </trkpt>
      <trkpt lat="42.87544" lon="0.12097">
        <ele>2185.5062984031</ele>
        <time>2015-01-17T14:52:35Z</time>
      </trkpt>
      <trkpt lat="42.87536" lon="0.12083">
        <ele>2181.3537421728</ele>
        <time>2015-01-17T14:52:40Z</time>
      </trkpt>
      <trkpt lat="42.87544" lon="0.12074">
        <ele>2177.69187047</ele>
        <time>2015-01-17T14:52:45Z</time>
      </trkpt>
      <trkpt lat="42.87547" lon="0.12071">
        <ele>2177.69187047</ele>
        <time>2015-01-17T14:52:50Z</time>
      </trkpt>
      <trkpt lat="42.87548" lon="0.1207">
        <ele>2177.69187047</ele>
        <time>2015-01-17T14:52:55Z</time>
      </trkpt>
      <trkpt lat="42.87549" lon="0.12063">
        <ele>2174.0352797513</ele>
        <time>2015-01-17T14:53:00Z</time>
      </trkpt>
      <trkpt lat="42.8755" lon="0.12064">
        <ele>2174.0352797513</ele>
        <time>2015-01-17T14:53:05Z</time>
      </trkpt>
      <trkpt lat="42.87558" lon="0.12066">
        <ele>2169.7034485656</ele>
        <time>2015-01-17T14:53:20Z</time>
      </trkpt>
      <trkpt lat="42.87558" lon="0.12067">
        <ele>2169.7034485656</ele>
        <time>2015-01-17T14:53:25Z</time>
      </trkpt>
      <trkpt lat="42.87559" lon="0.12063">
        <ele>2169.7034485656</ele>
        <time>2015-01-17T14:53:35Z</time>
      </trkpt>
      <trkpt lat="42.87565" lon="0.12059">
        <ele>2165.4942781652</ele>
        <time>2015-01-17T14:53:40Z</time>
      </trkpt>
      <trkpt lat="42.87571" lon="0.12053">
        <ele>2165.4942781652</ele>
        <time>2015-01-17T14:53:45Z</time>
      </trkpt>
      <trkpt lat="42.87579" lon="0.12046">
        <ele>2161.6998239663</ele>
        <time>2015-01-17T14:53:50Z</time>
      </trkpt>
      <trkpt lat="42.87573" lon="0.12044">
        <ele>2161.6998239663</ele>
        <time>2015-01-17T14:53:55Z</time>
      </trkpt>
      <trkpt lat="42.87574" lon="0.12028">
        <ele>2158.0417752953</ele>
        <time>2015-01-17T14:54:00Z</time>
      </trkpt>
      <trkpt lat="42.8758" lon="0.12019">
        <ele>2158.0417752953</ele>
        <time>2015-01-17T14:54:05Z</time>
      </trkpt>
      <trkpt lat="42.87594" lon="0.12009">
        <ele>2154.8093976151</ele>
        <time>2015-01-17T14:54:10Z</time>
      </trkpt>
      <trkpt lat="42.87607" lon="0.11992">
        <ele>2151.9956129898</ele>
        <time>2015-01-17T14:54:15Z</time>
      </trkpt>
      <trkpt lat="42.87619" lon="0.11971">
        <ele>2149.5349769765</ele>
        <time>2015-01-17T14:54:20Z</time>
      </trkpt>
      <trkpt lat="42.87627" lon="0.11951">
        <ele>2147.3658167997</ele>
        <time>2015-01-17T14:54:25Z</time>
      </trkpt>
      <trkpt lat="42.87626" lon="0.11932">
        <ele>2145.5310291902</ele>
        <time>2015-01-17T14:54:30Z</time>
      </trkpt>
      <trkpt lat="42.87626" lon="0.11927">
        <ele>2145.5310291902</ele>
        <time>2015-01-17T14:54:35Z</time>
      </trkpt>
      <trkpt lat="42.8763" lon="0.11917">
        <ele>2143.781203056</ele>
        <time>2015-01-17T14:54:40Z</time>
      </trkpt>
      <trkpt lat="42.8764" lon="0.11902">
        <ele>2142.1444392797</ele>
        <time>2015-01-17T14:54:45Z</time>
      </trkpt>
      <trkpt lat="42.87655" lon="0.11885">
        <ele>2140.4879879365</ele>
        <time>2015-01-17T14:54:50Z</time>
      </trkpt>
      <trkpt lat="42.87663" lon="0.11866">
        <ele>2139.0492603965</ele>
        <time>2015-01-17T14:54:55Z</time>
      </trkpt>
      <trkpt lat="42.87676" lon="0.1183">
        <ele>2137.8603715497</ele>
        <time>2015-01-17T14:55:00Z</time>
      </trkpt>
      <trkpt lat="42.87684" lon="0.1181">
        <ele>2136.7919744969</ele>
        <time>2015-01-17T14:55:05Z</time>
      </trkpt>
      <trkpt lat="42.87685" lon="0.11802">
        <ele>2136.7919744969</ele>
        <time>2015-01-17T14:55:10Z</time>
      </trkpt>
      <trkpt lat="42.87685" lon="0.11797">
        <ele>2135.608738106</ele>
        <time>2015-01-17T14:55:15Z</time>
      </trkpt>
      <trkpt lat="42.87688" lon="0.11797">
        <ele>2135.608738106</ele>
        <time>2015-01-17T14:55:20Z</time>
      </trkpt>
      <trkpt lat="42.8769" lon="0.1179">
        <ele>2135.608738106</ele>
        <time>2015-01-17T14:55:25Z</time>
      </trkpt>
      <trkpt lat="42.87694" lon="0.11788">
        <ele>2134.1219227271</ele>
        <time>2015-01-17T14:55:30Z</time>
      </trkpt>
      <trkpt lat="42.87695" lon="0.11783">
        <ele>2134.1219227271</ele>
        <time>2015-01-17T14:55:35Z</time>
      </trkpt>
      <trkpt lat="42.87698" lon="0.11773">
        <ele>2132.5035482682</ele>
        <time>2015-01-17T14:55:40Z</time>
      </trkpt>
      <trkpt lat="42.87701" lon="0.11761">
        <ele>2130.9567910739</ele>
        <time>2015-01-17T14:55:45Z</time>
      </trkpt>
      <trkpt lat="42.87701" lon="0.11753">
        <ele>2130.9567910739</ele>
        <time>2015-01-17T14:55:50Z</time>
      </trkpt>
      <trkpt lat="42.87701" lon="0.11747">
        <ele>2129.2231584248</ele>
        <time>2015-01-17T14:55:55Z</time>
      </trkpt>
      <trkpt lat="42.87701" lon="0.11741">
        <ele>2129.2231584248</ele>
        <time>2015-01-17T14:56:00Z</time>
      </trkpt>
      <trkpt lat="42.87702" lon="0.11736">
        <ele>2129.2231584248</ele>
        <time>2015-01-17T14:56:05Z</time>
      </trkpt>
      <trkpt lat="42.87704" lon="0.11731">
        <ele>2127.2800475544</ele>
        <time>2015-01-17T14:56:10Z</time>
      </trkpt>
      <trkpt lat="42.87705" lon="0.11723">
        <ele>2127.2800475544</ele>
        <time>2015-01-17T14:56:15Z</time>
      </trkpt>
      <trkpt lat="42.87706" lon="0.11718">
        <ele>2125.4099541197</ele>
        <time>2015-01-17T14:56:20Z</time>
      </trkpt>
      <trkpt lat="42.87709" lon="0.11711">
        <ele>2125.4099541197</ele>
        <time>2015-01-17T14:56:25Z</time>
      </trkpt>
      <trkpt lat="42.87715" lon="0.11704">
        <ele>2123.6728834405</ele>
        <time>2015-01-17T14:56:30Z</time>
      </trkpt>
      <trkpt lat="42.87717" lon="0.11696">
        <ele>2123.6728834405</ele>
        <time>2015-01-17T14:56:35Z</time>
      </trkpt>
      <trkpt lat="42.8772" lon="0.11682">
        <ele>2122.0378190352</ele>
        <time>2015-01-17T14:56:40Z</time>
      </trkpt>
      <trkpt lat="42.87726" lon="0.11669">
        <ele>2120.6056663551</ele>
        <time>2015-01-17T14:56:45Z</time>
      </trkpt>
      <trkpt lat="42.8773" lon="0.11661">
        <ele>2120.6056663551</ele>
        <time>2015-01-17T14:56:50Z</time>
      </trkpt>
      <trkpt lat="42.8773" lon="0.11656">
        <ele>2119.2245933101</ele>
        <time>2015-01-17T14:56:55Z</time>
      </trkpt>
      <trkpt lat="42.87734" lon="0.11647">
        <ele>2119.2245933101</ele>
        <time>2015-01-17T14:57:00Z</time>
      </trkpt>
      <trkpt lat="42.87738" lon="0.1164">
        <ele>2117.9413592531</ele>
        <time>2015-01-17T14:57:05Z</time>
      </trkpt>
      <trkpt lat="42.87746" lon="0.11633">
        <ele>2116.8280767965</ele>
        <time>2015-01-17T14:57:10Z</time>
      </trkpt>
      <trkpt lat="42.87757" lon="0.11626">
        <ele>2115.7639838981</ele>
        <time>2015-01-17T14:57:15Z</time>
      </trkpt>
      <trkpt lat="42.8776" lon="0.11617">
        <ele>2115.7639838981</ele>
        <time>2015-01-17T14:57:20Z</time>
      </trkpt>
      <trkpt lat="42.87765" lon="0.11613">
        <ele>2114.6949433053</ele>
        <time>2015-01-17T14:57:25Z</time>
      </trkpt>
      <trkpt lat="42.87767" lon="0.1161">
        <ele>2114.6949433053</ele>
        <time>2015-01-17T14:57:30Z</time>
      </trkpt>
      <trkpt lat="42.87768" lon="0.11606">
        <ele>2114.6949433053</ele>
        <time>2015-01-17T14:57:35Z</time>
      </trkpt>
      <trkpt lat="42.87772" lon="0.11606">
        <ele>2113.2972467541</ele>
        <time>2015-01-17T14:57:40Z</time>
      </trkpt>
      <trkpt lat="42.87772" lon="0.116">
        <ele>2113.2972467541</ele>
        <time>2015-01-17T14:57:45Z</time>
      </trkpt>
      <trkpt lat="42.87771" lon="0.11596">
        <ele>2113.2972467541</ele>
        <time>2015-01-17T14:57:50Z</time>
      </trkpt>
      <trkpt lat="42.87769" lon="0.11592">
        <ele>2111.2433146196</ele>
        <time>2015-01-17T14:57:55Z</time>
      </trkpt>
      <trkpt lat="42.87768" lon="0.11585">
        <ele>2111.2433146196</ele>
        <time>2015-01-17T14:58:00Z</time>
      </trkpt>
      <trkpt lat="42.87764" lon="0.11566">
        <ele>2109.2981420993</ele>
        <time>2015-01-17T14:58:05Z</time>
      </trkpt>
      <trkpt lat="42.8776" lon="0.11546">
        <ele>2107.5219661973</ele>
        <time>2015-01-17T14:58:10Z</time>
      </trkpt>
      <trkpt lat="42.87759" lon="0.11529">
        <ele>2105.9847737313</ele>
        <time>2015-01-17T14:58:15Z</time>
      </trkpt>
      <trkpt lat="42.87757" lon="0.11515">
        <ele>2104.7221501061</ele>
        <time>2015-01-17T14:58:20Z</time>
      </trkpt>
      <trkpt lat="42.8776" lon="0.11524">
        <ele>2104.7221501061</ele>
        <time>2015-01-17T14:58:25Z</time>
      </trkpt>
      <trkpt lat="42.8776" lon="0.11529">
        <ele>2103.5503579547</ele>
        <time>2015-01-17T14:58:30Z</time>
      </trkpt>
      <trkpt lat="42.8776" lon="0.1153">
        <ele>2103.5503579547</ele>
        <time>2015-01-17T14:58:35Z</time>
      </trkpt>
      <trkpt lat="42.87761" lon="0.1153">
        <ele>2103.5503579547</ele>
        <time>2015-01-17T14:58:40Z</time>
      </trkpt>
      <trkpt lat="42.8776" lon="0.11529">
        <ele>2103.5503579547</ele>
        <time>2015-01-17T14:58:45Z</time>
      </trkpt>
      <trkpt lat="42.87756" lon="0.11531">
        <ele>2103.5503579547</ele>
        <time>2015-01-17T14:58:50Z</time>
      </trkpt>
      <trkpt lat="42.87755" lon="0.11532">
        <ele>2103.5503579547</ele>
        <time>2015-01-17T14:58:55Z</time>
      </trkpt>
      <trkpt lat="42.87756" lon="0.11533">
        <ele>2103.5503579547</ele>
        <time>2015-01-17T14:59:00Z</time>
      </trkpt>
      <trkpt lat="42.87755" lon="0.11529">
        <ele>2101.5785703184</ele>
        <time>2015-01-17T14:59:05Z</time>
      </trkpt>
      <trkpt lat="42.87755" lon="0.11525">
        <ele>2101.5785703184</ele>
        <time>2015-01-17T14:59:10Z</time>
      </trkpt>
      <trkpt lat="42.87755" lon="0.1152">
        <ele>2101.5785703184</ele>
        <time>2015-01-17T14:59:15Z</time>
      </trkpt>
      <trkpt lat="42.87753" lon="0.11513">
        <ele>2099.6123192423</ele>
        <time>2015-01-17T14:59:20Z</time>
      </trkpt>
      <trkpt lat="42.87752" lon="0.11508">
        <ele>2099.6123192423</ele>
        <time>2015-01-17T14:59:25Z</time>
      </trkpt>
      <trkpt lat="42.87751" lon="0.11505">
        <ele>2099.6123192423</ele>
        <time>2015-01-17T14:59:30Z</time>
      </trkpt>
      <trkpt lat="42.87745" lon="0.11495">
        <ele>2096.7120578171</ele>
        <time>2015-01-17T14:59:45Z</time>
      </trkpt>
      <trkpt lat="42.87745" lon="0.11489">
        <ele>2096.7120578171</ele>
        <time>2015-01-17T14:59:50Z</time>
      </trkpt>
      <trkpt lat="42.87745" lon="0.11484">
        <ele>2096.7120578171</ele>
        <time>2015-01-17T14:59:55Z</time>
      </trkpt>
      <trkpt lat="42.87744" lon="0.11479">
        <ele>2093.8114679962</ele>
        <time>2015-01-17T15:00:00Z</time>
      </trkpt>
      <trkpt lat="42.87743" lon="0.11475">
        <ele>2093.8114679962</ele>
        <time>2015-01-17T15:00:05Z</time>
      </trkpt>
      <trkpt lat="42.87743" lon="0.11471">
        <ele>2093.8114679962</ele>
        <time>2015-01-17T15:00:10Z</time>
      </trkpt>
      <trkpt lat="42.87742" lon="0.11467">
        <ele>2090.8102870888</ele>
        <time>2015-01-17T15:00:15Z</time>
      </trkpt>
      <trkpt lat="42.8774" lon="0.11462">
        <ele>2090.8102870888</ele>
        <time>2015-01-17T15:00:20Z</time>
      </trkpt>
      <trkpt lat="42.8774" lon="0.11457">
        <ele>2090.8102870888</ele>
        <time>2015-01-17T15:00:25Z</time>
      </trkpt>
      <trkpt lat="42.87742" lon="0.11457">
        <ele>2087.6881270951</ele>
        <time>2015-01-17T15:00:30Z</time>
      </trkpt>
      <trkpt lat="42.87744" lon="0.11455">
        <ele>2087.6881270951</ele>
        <time>2015-01-17T15:00:35Z</time>
      </trkpt>
      <trkpt lat="42.87748" lon="0.11452">
        <ele>2087.6881270951</ele>
        <time>2015-01-17T15:00:40Z</time>
      </trkpt>
      <trkpt lat="42.87753" lon="0.11448">
        <ele>2084.6859927889</ele>
        <time>2015-01-17T15:00:45Z</time>
      </trkpt>
      <trkpt lat="42.87756" lon="0.11444">
        <ele>2084.6859927889</ele>
        <time>2015-01-17T15:00:50Z</time>
      </trkpt>
      <trkpt lat="42.87757" lon="0.11439">
        <ele>2084.6859927889</ele>
        <time>2015-01-17T15:00:55Z</time>
      </trkpt>
      <trkpt lat="42.87757" lon="0.11436">
        <ele>2081.781999344</ele>
        <time>2015-01-17T15:01:00Z</time>
      </trkpt>
      <trkpt lat="42.87758" lon="0.11431">
        <ele>2081.781999344</ele>
        <time>2015-01-17T15:01:05Z</time>
      </trkpt>
      <trkpt lat="42.87758" lon="0.11427">
        <ele>2081.781999344</ele>
        <time>2015-01-17T15:01:10Z</time>
      </trkpt>
      <trkpt lat="42.87758" lon="0.11423">
        <ele>2078.8692530218</ele>
        <time>2015-01-17T15:01:15Z</time>
      </trkpt>
      <trkpt lat="42.87758" lon="0.11421">
        <ele>2078.8692530218</ele>
        <time>2015-01-17T15:01:20Z</time>
      </trkpt>
      <trkpt lat="42.87758" lon="0.11417">
        <ele>2078.8692530218</ele>
        <time>2015-01-17T15:01:25Z</time>
      </trkpt>
      <trkpt lat="42.87756" lon="0.1141">
        <ele>2075.8632597027</ele>
        <time>2015-01-17T15:01:30Z</time>
      </trkpt>
      <trkpt lat="42.87756" lon="0.11409">
        <ele>2075.8632597027</ele>
        <time>2015-01-17T15:01:35Z</time>
      </trkpt>
      <trkpt lat="42.87751" lon="0.11398">
        <ele>2072.7437366816</ele>
        <time>2015-01-17T15:01:40Z</time>
      </trkpt>
      <trkpt lat="42.87752" lon="0.11396">
        <ele>2072.7437366816</ele>
        <time>2015-01-17T15:01:45Z</time>
      </trkpt>
      <trkpt lat="42.87753" lon="0.11391">
        <ele>2072.7437366816</ele>
        <time>2015-01-17T15:01:55Z</time>
      </trkpt>
      <trkpt lat="42.87753" lon="0.1139">
        <ele>2072.7437366816</ele>
        <time>2015-01-17T15:02:00Z</time>
      </trkpt>
      <trkpt lat="42.87753" lon="0.11386">
        <ele>2069.6796401334</ele>
        <time>2015-01-17T15:02:05Z</time>
      </trkpt>
      <trkpt lat="42.87753" lon="0.11382">
        <ele>2069.6796401334</ele>
        <time>2015-01-17T15:02:10Z</time>
      </trkpt>
      <trkpt lat="42.87752" lon="0.11377">
        <ele>2069.6796401334</ele>
        <time>2015-01-17T15:02:15Z</time>
      </trkpt>
      <trkpt lat="42.87752" lon="0.11371">
        <ele>2066.8418445464</ele>
        <time>2015-01-17T15:02:20Z</time>
      </trkpt>
      <trkpt lat="42.8775" lon="0.11367">
        <ele>2066.8418445464</ele>
        <time>2015-01-17T15:02:25Z</time>
      </trkpt>
      <trkpt lat="42.87749" lon="0.11363">
        <ele>2066.8418445464</ele>
        <time>2015-01-17T15:02:30Z</time>
      </trkpt>
      <trkpt lat="42.87748" lon="0.11359">
        <ele>2064.1719338003</ele>
        <time>2015-01-17T15:02:35Z</time>
      </trkpt>
      <trkpt lat="42.87747" lon="0.11356">
        <ele>2064.1719338003</ele>
        <time>2015-01-17T15:02:40Z</time>
      </trkpt>
      <trkpt lat="42.87748" lon="0.11354">
        <ele>2064.1719338003</ele>
        <time>2015-01-17T15:02:45Z</time>
      </trkpt>
      <trkpt lat="42.87748" lon="0.11353">
        <ele>2064.1719338003</ele>
        <time>2015-01-17T15:02:50Z</time>
      </trkpt>
      <trkpt lat="42.87745" lon="0.11345">
        <ele>2061.3127320585</ele>
        <time>2015-01-17T15:03:05Z</time>
      </trkpt>
      <trkpt lat="42.87743" lon="0.11342">
        <ele>2061.3127320585</ele>
        <time>2015-01-17T15:03:10Z</time>
      </trkpt>
      <trkpt lat="42.87741" lon="0.11336">
        <ele>2061.3127320585</ele>
        <time>2015-01-17T15:03:15Z</time>
      </trkpt>
      <trkpt lat="42.87738" lon="0.11332">
        <ele>2058.5967889001</ele>
        <time>2015-01-17T15:03:20Z</time>
      </trkpt>
      <trkpt lat="42.87736" lon="0.11325">
        <ele>2058.5967889001</ele>
        <time>2015-01-17T15:03:25Z</time>
      </trkpt>
      <trkpt lat="42.87731" lon="0.11322">
        <ele>2056.1589278812</ele>
        <time>2015-01-17T15:03:30Z</time>
      </trkpt>
      <trkpt lat="42.87728" lon="0.11315">
        <ele>2056.1589278812</ele>
        <time>2015-01-17T15:03:35Z</time>
      </trkpt>
      <trkpt lat="42.87727" lon="0.11311">
        <ele>2053.9936209596</ele>
        <time>2015-01-17T15:03:40Z</time>
      </trkpt>
      <trkpt lat="42.87727" lon="0.11308">
        <ele>2053.9936209596</ele>
        <time>2015-01-17T15:03:45Z</time>
      </trkpt>
      <trkpt lat="42.87725" lon="0.11303">
        <ele>2053.9936209596</ele>
        <time>2015-01-17T15:03:50Z</time>
      </trkpt>
      <trkpt lat="42.87723" lon="0.11297">
        <ele>2052.1382438347</ele>
        <time>2015-01-17T15:03:55Z</time>
      </trkpt>
      <trkpt lat="42.87721" lon="0.11292">
        <ele>2052.1382438347</ele>
        <time>2015-01-17T15:04:00Z</time>
      </trkpt>
      <trkpt lat="42.87721" lon="0.11288">
        <ele>2052.1382438347</ele>
        <time>2015-01-17T15:04:05Z</time>
      </trkpt>
      <trkpt lat="42.87721" lon="0.11283">
        <ele>2050.5833514442</ele>
        <time>2015-01-17T15:04:10Z</time>
      </trkpt>
      <trkpt lat="42.8772" lon="0.11282">
        <ele>2050.5833514442</ele>
        <time>2015-01-17T15:04:15Z</time>
      </trkpt>
      <trkpt lat="42.8772" lon="0.11282">
        <ele>2050.5833514442</ele>
        <time>2015-01-17T15:04:20Z</time>
      </trkpt>
      <trkpt lat="42.87718" lon="0.11275">
        <ele>2050.5833514442</ele>
        <time>2015-01-17T15:05:10Z</time>
      </trkpt>
      <trkpt lat="42.87717" lon="0.11274">
        <ele>2050.5833514442</ele>
        <time>2015-01-17T15:05:15Z</time>
      </trkpt>
      <trkpt lat="42.87715" lon="0.11271">
        <ele>2048.7141104946</ele>
        <time>2015-01-17T15:05:20Z</time>
      </trkpt>
      <trkpt lat="42.87714" lon="0.11269">
        <ele>2048.7141104946</ele>
        <time>2015-01-17T15:05:25Z</time>
      </trkpt>
      <trkpt lat="42.87711" lon="0.11255">
        <ele>2046.0338180329</ele>
        <time>2015-01-17T15:18:50Z</time>
      </trkpt>
      <trkpt lat="42.87706" lon="0.11237">
        <ele>2043.7130173332</ele>
        <time>2015-01-17T15:18:55Z</time>
      </trkpt>
      <trkpt lat="42.87714" lon="0.11231">
        <ele>2041.7112147377</ele>
        <time>2015-01-17T15:19:00Z</time>
      </trkpt>
      <trkpt lat="42.87724" lon="0.11229">
        <ele>2040.0044319488</ele>
        <time>2015-01-17T15:19:05Z</time>
      </trkpt>
      <trkpt lat="42.87731" lon="0.11226">
        <ele>2040.0044319488</ele>
        <time>2015-01-17T15:19:10Z</time>
      </trkpt>
      <trkpt lat="42.87735" lon="0.11218">
        <ele>2038.5120040094</ele>
        <time>2015-01-17T15:19:15Z</time>
      </trkpt>
      <trkpt lat="42.87747" lon="0.11199">
        <ele>2037.2739050915</ele>
        <time>2015-01-17T15:19:20Z</time>
      </trkpt>
      <trkpt lat="42.87751" lon="0.11187">
        <ele>2036.2256113678</ele>
        <time>2015-01-17T15:19:25Z</time>
      </trkpt>
      <trkpt lat="42.87755" lon="0.11176">
        <ele>2036.2256113678</ele>
        <time>2015-01-17T15:19:30Z</time>
      </trkpt>
      <trkpt lat="42.87756" lon="0.11168">
        <ele>2035.3068414854</ele>
        <time>2015-01-17T15:19:35Z</time>
      </trkpt>
      <trkpt lat="42.87755" lon="0.11163">
        <ele>2035.3068414854</ele>
        <time>2015-01-17T15:19:40Z</time>
      </trkpt>
      <trkpt lat="42.87754" lon="0.11152">
        <ele>2034.288486591</ele>
        <time>2015-01-17T15:19:50Z</time>
      </trkpt>
      <trkpt lat="42.87753" lon="0.11148">
        <ele>2034.288486591</ele>
        <time>2015-01-17T15:19:55Z</time>
      </trkpt>
      <trkpt lat="42.87752" lon="0.11142">
        <ele>2034.288486591</ele>
        <time>2015-01-17T15:20:00Z</time>
      </trkpt>
      <trkpt lat="42.87752" lon="0.11135">
        <ele>2033.1315278221</ele>
        <time>2015-01-17T15:20:05Z</time>
      </trkpt>
      <trkpt lat="42.87753" lon="0.11132">
        <ele>2033.1315278221</ele>
        <time>2015-01-17T15:20:10Z</time>
      </trkpt>
      <trkpt lat="42.87763" lon="0.11126">
        <ele>2032.1317099525</ele>
        <time>2015-01-17T15:20:15Z</time>
      </trkpt>
      <trkpt lat="42.87771" lon="0.11123">
        <ele>2032.1317099525</ele>
        <time>2015-01-17T15:20:20Z</time>
      </trkpt>
      <trkpt lat="42.87774" lon="0.11121">
        <ele>2031.2456252531</ele>
        <time>2015-01-17T15:20:25Z</time>
      </trkpt>
      <trkpt lat="42.87774" lon="0.11121">
        <ele>2031.2456252531</ele>
        <time>2015-01-17T15:20:30Z</time>
      </trkpt>
      <trkpt lat="42.87778" lon="0.11118">
        <ele>2031.2456252531</ele>
        <time>2015-01-17T15:20:35Z</time>
      </trkpt>
      <trkpt lat="42.87785" lon="0.11116">
        <ele>2030.4039764025</ele>
        <time>2015-01-17T15:20:40Z</time>
      </trkpt>
      <trkpt lat="42.87792" lon="0.11113">
        <ele>2030.4039764025</ele>
        <time>2015-01-17T15:20:45Z</time>
      </trkpt>
      <trkpt lat="42.878" lon="0.1111">
        <ele>2029.5857330638</ele>
        <time>2015-01-17T15:20:50Z</time>
      </trkpt>
      <trkpt lat="42.87804" lon="0.1111">
        <ele>2029.5857330638</ele>
        <time>2015-01-17T15:20:55Z</time>
      </trkpt>
      <trkpt lat="42.87808" lon="0.1111">
        <ele>2029.5857330638</ele>
        <time>2015-01-17T15:21:00Z</time>
      </trkpt>
      <trkpt lat="42.87814" lon="0.11102">
        <ele>2027.8923369851</ele>
        <time>2015-01-17T15:21:25Z</time>
      </trkpt>
      <trkpt lat="42.87813" lon="0.11101">
        <ele>2027.8923369851</ele>
        <time>2015-01-17T15:21:30Z</time>
      </trkpt>
      <trkpt lat="42.8781" lon="0.11099">
        <ele>2027.8923369851</ele>
        <time>2015-01-17T15:21:40Z</time>
      </trkpt>
      <trkpt lat="42.8781" lon="0.11099">
        <ele>2027.8923369851</ele>
        <time>2015-01-17T15:21:45Z</time>
      </trkpt>
      <trkpt lat="42.87805" lon="0.111">
        <ele>2026.0645768912</ele>
        <time>2015-01-17T15:21:50Z</time>
      </trkpt>
      <trkpt lat="42.87805" lon="0.11098">
        <ele>2026.0645768912</ele>
        <time>2015-01-17T15:21:55Z</time>
      </trkpt>
      <trkpt lat="42.87805" lon="0.11101">
        <ele>2026.0645768912</ele>
        <time>2015-01-17T15:22:15Z</time>
      </trkpt>
      <trkpt lat="42.87804" lon="0.111">
        <ele>2026.0645768912</ele>
        <time>2015-01-17T15:22:20Z</time>
      </trkpt>
      <trkpt lat="42.87809" lon="0.1111">
        <ele>2023.1752256983</ele>
        <time>2015-01-17T15:23:00Z</time>
      </trkpt>
      <trkpt lat="42.87813" lon="0.11114">
        <ele>2023.1752256983</ele>
        <time>2015-01-17T15:23:05Z</time>
      </trkpt>
      <trkpt lat="42.8782" lon="0.1112">
        <ele>2020.3425354126</ele>
        <time>2015-01-17T15:23:10Z</time>
      </trkpt>
      <trkpt lat="42.87817" lon="0.11129">
        <ele>2020.3425354126</ele>
        <time>2015-01-17T15:23:15Z</time>
      </trkpt>
      <trkpt lat="42.87827" lon="0.11134">
        <ele>2017.5360857701</ele>
        <time>2015-01-17T15:23:20Z</time>
      </trkpt>
      <trkpt lat="42.87832" lon="0.11142">
        <ele>2017.5360857701</ele>
        <time>2015-01-17T15:23:25Z</time>
      </trkpt>
      <trkpt lat="42.87844" lon="0.11136">
        <ele>2014.8717737552</ele>
        <time>2015-01-17T15:23:30Z</time>
      </trkpt>
      <trkpt lat="42.87861" lon="0.11142">
        <ele>2012.3701516773</ele>
        <time>2015-01-17T15:23:35Z</time>
      </trkpt>
      <trkpt lat="42.87862" lon="0.1116">
        <ele>2010.006597858</ele>
        <time>2015-01-17T15:23:40Z</time>
      </trkpt>
      <trkpt lat="42.87872" lon="0.11158">
        <ele>2007.8732193139</ele>
        <time>2015-01-17T15:23:45Z</time>
      </trkpt>
      <trkpt lat="42.879" lon="0.11163">
        <ele>2005.4638678244</ele>
        <time>2015-01-17T15:23:50Z</time>
      </trkpt>
      <trkpt lat="42.87924" lon="0.11163">
        <ele>2003.2182587339</ele>
        <time>2015-01-17T15:23:55Z</time>
      </trkpt>
      <trkpt lat="42.87941" lon="0.11175">
        <ele>2001.1398394448</ele>
        <time>2015-01-17T15:24:00Z</time>
      </trkpt>
      <trkpt lat="42.87919" lon="0.11193">
        <ele>1998.7557684409</ele>
        <time>2015-01-17T15:24:05Z</time>
      </trkpt>
      <trkpt lat="42.87921" lon="0.11189">
        <ele>1998.7557684409</ele>
        <time>2015-01-17T15:24:10Z</time>
      </trkpt>
      <trkpt lat="42.87928" lon="0.1119">
        <ele>1995.3693911153</ele>
        <time>2015-01-17T15:24:15Z</time>
      </trkpt>
      <trkpt lat="42.87939" lon="0.11188">
        <ele>1992.1826523646</ele>
        <time>2015-01-17T15:24:20Z</time>
      </trkpt>
      <trkpt lat="42.8794" lon="0.11184">
        <ele>1992.1826523646</ele>
        <time>2015-01-17T15:24:25Z</time>
      </trkpt>
      <trkpt lat="42.87938" lon="0.11181">
        <ele>1992.1826523646</ele>
        <time>2015-01-17T15:24:30Z</time>
      </trkpt>
      <trkpt lat="42.87942" lon="0.11178">
        <ele>1988.8098677617</ele>
        <time>2015-01-17T15:24:35Z</time>
      </trkpt>
      <trkpt lat="42.87939" lon="0.11174">
        <ele>1988.8098677617</ele>
        <time>2015-01-17T15:24:40Z</time>
      </trkpt>
      <trkpt lat="42.87938" lon="0.11156">
        <ele>1984.9085886209</ele>
        <time>2015-01-17T15:24:50Z</time>
      </trkpt>
      <trkpt lat="42.87941" lon="0.11151">
        <ele>1984.9085886209</ele>
        <time>2015-01-17T15:25:00Z</time>
      </trkpt>
      <trkpt lat="42.87941" lon="0.1115">
        <ele>1984.9085886209</ele>
        <time>2015-01-17T15:25:05Z</time>
      </trkpt>
      <trkpt lat="42.87944" lon="0.11149">
        <ele>1984.9085886209</ele>
        <time>2015-01-17T15:25:25Z</time>
      </trkpt>
      <trkpt lat="42.87954" lon="0.11148">
        <ele>1980.7105857692</ele>
        <time>2015-01-17T15:25:30Z</time>
      </trkpt>
      <trkpt lat="42.87974" lon="0.1114">
        <ele>1976.6475494086</ele>
        <time>2015-01-17T15:25:35Z</time>
      </trkpt>
      <trkpt lat="42.87992" lon="0.11142">
        <ele>1972.2111113246</ele>
        <time>2015-01-17T15:25:40Z</time>
      </trkpt>
      <trkpt lat="42.87995" lon="0.11147">
        <ele>1972.2111113246</ele>
        <time>2015-01-17T15:25:45Z</time>
      </trkpt>
      <trkpt lat="42.87994" lon="0.1115">
        <ele>1972.2111113246</ele>
        <time>2015-01-17T15:25:50Z</time>
      </trkpt>
      <trkpt lat="42.87989" lon="0.11151">
        <ele>1966.9168008932</ele>
        <time>2015-01-17T15:26:05Z</time>
      </trkpt>
      <trkpt lat="42.87989" lon="0.11147">
        <ele>1966.9168008932</ele>
        <time>2015-01-17T15:26:10Z</time>
      </trkpt>
      <trkpt lat="42.87987" lon="0.11144">
        <ele>1966.9168008932</ele>
        <time>2015-01-17T15:26:15Z</time>
      </trkpt>
      <trkpt lat="42.87988" lon="0.1114">
        <ele>1966.9168008932</ele>
        <time>2015-01-17T15:26:20Z</time>
      </trkpt>
      <trkpt lat="42.87984" lon="0.11133">
        <ele>1961.3556436044</ele>
        <time>2015-01-17T15:26:25Z</time>
      </trkpt>
      <trkpt lat="42.8798" lon="0.11129">
        <ele>1961.3556436044</ele>
        <time>2015-01-17T15:26:40Z</time>
      </trkpt>
      <trkpt lat="42.87981" lon="0.11129">
        <ele>1961.3556436044</ele>
        <time>2015-01-17T15:26:45Z</time>
      </trkpt>
      <trkpt lat="42.87985" lon="0.11129">
        <ele>1956.234402708</ele>
        <time>2015-01-17T15:26:50Z</time>
      </trkpt>
      <trkpt lat="42.87987" lon="0.11127">
        <ele>1956.234402708</ele>
        <time>2015-01-17T15:26:55Z</time>
      </trkpt>
      <trkpt lat="42.8799" lon="0.11122">
        <ele>1956.234402708</ele>
        <time>2015-01-17T15:27:00Z</time>
      </trkpt>
      <trkpt lat="42.87992" lon="0.11116">
        <ele>1951.442766157</ele>
        <time>2015-01-17T15:27:05Z</time>
      </trkpt>
      <trkpt lat="42.87993" lon="0.11103">
        <ele>1947.1224413785</ele>
        <time>2015-01-17T15:27:10Z</time>
      </trkpt>
      <trkpt lat="42.88002" lon="0.1108">
        <ele>1943.2303115752</ele>
        <time>2015-01-17T15:27:15Z</time>
      </trkpt>
      <trkpt lat="42.8802" lon="0.11088">
        <ele>1939.2783159437</ele>
        <time>2015-01-17T15:27:20Z</time>
      </trkpt>
      <trkpt lat="42.88033" lon="0.11083">
        <ele>1935.5780349824</ele>
        <time>2015-01-17T15:27:25Z</time>
      </trkpt>
      <trkpt lat="42.88043" lon="0.11075">
        <ele>1932.1002413492</ele>
        <time>2015-01-17T15:27:30Z</time>
      </trkpt>
      <trkpt lat="42.88056" lon="0.11082">
        <ele>1928.4423742776</ele>
        <time>2015-01-17T15:27:35Z</time>
      </trkpt>
      <trkpt lat="42.88064" lon="0.11082">
        <ele>1928.4423742776</ele>
        <time>2015-01-17T15:27:40Z</time>
      </trkpt>
      <trkpt lat="42.88074" lon="0.11074">
        <ele>1924.7505852931</ele>
        <time>2015-01-17T15:27:45Z</time>
      </trkpt>
      <trkpt lat="42.88087" lon="0.11068">
        <ele>1921.2755122637</ele>
        <time>2015-01-17T15:27:50Z</time>
      </trkpt>
      <trkpt lat="42.88098" lon="0.11073">
        <ele>1917.8018710245</ele>
        <time>2015-01-17T15:27:55Z</time>
      </trkpt>
      <trkpt lat="42.88111" lon="0.11067">
        <ele>1914.389434612</ele>
        <time>2015-01-17T15:28:00Z</time>
      </trkpt>
      <trkpt lat="42.88125" lon="0.11073">
        <ele>1910.9059201391</ele>
        <time>2015-01-17T15:28:05Z</time>
      </trkpt>
      <trkpt lat="42.88135" lon="0.11072">
        <ele>1907.3729289324</ele>
        <time>2015-01-17T15:28:10Z</time>
      </trkpt>
      <trkpt lat="42.8814" lon="0.11082">
        <ele>1907.3729289324</ele>
        <time>2015-01-17T15:28:15Z</time>
      </trkpt>
      <trkpt lat="42.8814" lon="0.11081">
        <ele>1903.2340298115</ele>
        <time>2015-01-17T15:28:20Z</time>
      </trkpt>
      <trkpt lat="42.88137" lon="0.11082">
        <ele>1903.2340298115</ele>
        <time>2015-01-17T15:28:25Z</time>
      </trkpt>
      <trkpt lat="42.88138" lon="0.11081">
        <ele>1903.2340298115</ele>
        <time>2015-01-17T15:28:30Z</time>
      </trkpt>
      <trkpt lat="42.88136" lon="0.1108">
        <ele>1903.2340298115</ele>
        <time>2015-01-17T15:28:35Z</time>
      </trkpt>
      <trkpt lat="42.88136" lon="0.11076">
        <ele>1903.2340298115</ele>
        <time>2015-01-17T15:28:40Z</time>
      </trkpt>
      <trkpt lat="42.88137" lon="0.11077">
        <ele>1898.6957848778</ele>
        <time>2015-01-17T15:28:45Z</time>
      </trkpt>
      <trkpt lat="42.88136" lon="0.11077">
        <ele>1898.6957848778</ele>
        <time>2015-01-17T15:28:55Z</time>
      </trkpt>
      <trkpt lat="42.88139" lon="0.11071">
        <ele>1898.6957848778</ele>
        <time>2015-01-17T15:29:15Z</time>
      </trkpt>
      <trkpt lat="42.88147" lon="0.11071">
        <ele>1892.8841409927</ele>
        <time>2015-01-17T15:29:20Z</time>
      </trkpt>
      <trkpt lat="42.88157" lon="0.11068">
        <ele>1887.6299162465</ele>
        <time>2015-01-17T15:29:25Z</time>
      </trkpt>
      <trkpt lat="42.88181" lon="0.11076">
        <ele>1882.2210680125</ele>
        <time>2015-01-17T15:29:30Z</time>
      </trkpt>
      <trkpt lat="42.88193" lon="0.11083">
        <ele>1877.1798481294</ele>
        <time>2015-01-17T15:29:35Z</time>
      </trkpt>
      <trkpt lat="42.882" lon="0.11095">
        <ele>1872.5277938532</ele>
        <time>2015-01-17T15:29:40Z</time>
      </trkpt>
      <trkpt lat="42.88198" lon="0.1111">
        <ele>1868.2691914936</ele>
        <time>2015-01-17T15:29:45Z</time>
      </trkpt>
      <trkpt lat="42.88198" lon="0.1111">
        <ele>1868.2691914936</ele>
        <time>2015-01-17T15:29:50Z</time>
      </trkpt>
      <trkpt lat="42.88202" lon="0.11118">
        <ele>1868.2691914936</ele>
        <time>2015-01-17T15:29:55Z</time>
      </trkpt>
      <trkpt lat="42.88212" lon="0.1113">
        <ele>1863.9167644249</ele>
        <time>2015-01-17T15:30:00Z</time>
      </trkpt>
      <trkpt lat="42.88224" lon="0.11139">
        <ele>1859.8982087574</ele>
        <time>2015-01-17T15:30:05Z</time>
      </trkpt>
      <trkpt lat="42.88222" lon="0.11148">
        <ele>1859.8982087574</ele>
        <time>2015-01-17T15:30:10Z</time>
      </trkpt>
      <trkpt lat="42.88223" lon="0.11157">
        <ele>1855.7584505224</ele>
        <time>2015-01-17T15:30:15Z</time>
      </trkpt>
      <trkpt lat="42.88223" lon="0.11165">
        <ele>1855.7584505224</ele>
        <time>2015-01-17T15:30:20Z</time>
      </trkpt>
      <trkpt lat="42.8823" lon="0.11171">
        <ele>1851.4074866358</ele>
        <time>2015-01-17T15:30:25Z</time>
      </trkpt>
      <trkpt lat="42.88228" lon="0.11179">
        <ele>1851.4074866358</ele>
        <time>2015-01-17T15:30:30Z</time>
      </trkpt>
      <trkpt lat="42.88225" lon="0.11183">
        <ele>1846.5029678463</ele>
        <time>2015-01-17T15:30:35Z</time>
      </trkpt>
      <trkpt lat="42.88225" lon="0.11189">
        <ele>1846.5029678463</ele>
        <time>2015-01-17T15:30:40Z</time>
      </trkpt>
      <trkpt lat="42.88226" lon="0.11199">
        <ele>1841.2190770449</ele>
        <time>2015-01-17T15:30:45Z</time>
      </trkpt>
      <trkpt lat="42.8823" lon="0.11212">
        <ele>1835.9919304952</ele>
        <time>2015-01-17T15:30:50Z</time>
      </trkpt>
      <trkpt lat="42.88233" lon="0.11218">
        <ele>1835.9919304952</ele>
        <time>2015-01-17T15:30:55Z</time>
      </trkpt>
      <trkpt lat="42.8824" lon="0.11224">
        <ele>1830.6632670368</ele>
        <time>2015-01-17T15:31:00Z</time>
      </trkpt>
      <trkpt lat="42.88242" lon="0.11227">
        <ele>1830.6632670368</ele>
        <time>2015-01-17T15:31:05Z</time>
      </trkpt>
      <trkpt lat="42.88245" lon="0.1123">
        <ele>1830.6632670368</ele>
        <time>2015-01-17T15:31:10Z</time>
      </trkpt>
      <trkpt lat="42.88248" lon="0.11228">
        <ele>1824.7118959866</ele>
        <time>2015-01-17T15:31:15Z</time>
      </trkpt>
      <trkpt lat="42.88254" lon="0.11222">
        <ele>1824.7118959866</ele>
        <time>2015-01-17T15:31:20Z</time>
      </trkpt>
      <trkpt lat="42.88261" lon="0.11216">
        <ele>1818.6652829082</ele>
        <time>2015-01-17T15:31:25Z</time>
      </trkpt>
      <trkpt lat="42.88268" lon="0.11212">
        <ele>1818.6652829082</ele>
        <time>2015-01-17T15:31:30Z</time>
      </trkpt>
      <trkpt lat="42.88276" lon="0.11209">
        <ele>1812.6375642152</ele>
        <time>2015-01-17T15:31:35Z</time>
      </trkpt>
      <trkpt lat="42.88287" lon="0.1121">
        <ele>1806.5613399229</ele>
        <time>2015-01-17T15:31:40Z</time>
      </trkpt>
      <trkpt lat="42.88289" lon="0.11211">
        <ele>1806.5613399229</ele>
        <time>2015-01-17T15:31:45Z</time>
      </trkpt>
      <trkpt lat="42.88295" lon="0.11209">
        <ele>1800.2588366106</ele>
        <time>2015-01-17T15:31:50Z</time>
      </trkpt>
      <trkpt lat="42.88301" lon="0.11207">
        <ele>1800.2588366106</ele>
        <time>2015-01-17T15:31:55Z</time>
      </trkpt>
      <trkpt lat="42.88312" lon="0.11197">
        <ele>1794.1278312314</ele>
        <time>2015-01-17T15:32:00Z</time>
      </trkpt>
      <trkpt lat="42.8832" lon="0.11189">
        <ele>1788.4065180415</ele>
        <time>2015-01-17T15:32:05Z</time>
      </trkpt>
      <trkpt lat="42.88333" lon="0.11182">
        <ele>1783.05486108</ele>
        <time>2015-01-17T15:32:10Z</time>
      </trkpt>
      <trkpt lat="42.88343" lon="0.11174">
        <ele>1778.1642460328</ele>
        <time>2015-01-17T15:32:15Z</time>
      </trkpt>
      <trkpt lat="42.88357" lon="0.11161">
        <ele>1773.7025851706</ele>
        <time>2015-01-17T15:32:20Z</time>
      </trkpt>
      <trkpt lat="42.8837" lon="0.11147">
        <ele>1769.6964192997</ele>
        <time>2015-01-17T15:32:25Z</time>
      </trkpt>
      <trkpt lat="42.8838" lon="0.11136">
        <ele>1766.1400816212</ele>
        <time>2015-01-17T15:32:30Z</time>
      </trkpt>
      <trkpt lat="42.88388" lon="0.11126">
        <ele>1762.9980947304</ele>
        <time>2015-01-17T15:32:35Z</time>
      </trkpt>
      <trkpt lat="42.88395" lon="0.11118">
        <ele>1760.2218891621</ele>
        <time>2015-01-17T15:32:40Z</time>
      </trkpt>
      <trkpt lat="42.88405" lon="0.1111">
        <ele>1757.7941552286</ele>
        <time>2015-01-17T15:32:45Z</time>
      </trkpt>
      <trkpt lat="42.88414" lon="0.11101">
        <ele>1755.6545620822</ele>
        <time>2015-01-17T15:32:50Z</time>
      </trkpt>
      <trkpt lat="42.88421" lon="0.11094">
        <ele>1753.7895777927</ele>
        <time>2015-01-17T15:32:55Z</time>
      </trkpt>
      <trkpt lat="42.88428" lon="0.11087">
        <ele>1753.7895777927</ele>
        <time>2015-01-17T15:33:00Z</time>
      </trkpt>
      <trkpt lat="42.88434" lon="0.11078">
        <ele>1751.9408715179</ele>
        <time>2015-01-17T15:33:05Z</time>
      </trkpt>
      <trkpt lat="42.88438" lon="0.1107">
        <ele>1751.9408715179</ele>
        <time>2015-01-17T15:33:10Z</time>
      </trkpt>
      <trkpt lat="42.88444" lon="0.11064">
        <ele>1749.9987340934</ele>
        <time>2015-01-17T15:33:15Z</time>
      </trkpt>
      <trkpt lat="42.88451" lon="0.11054">
        <ele>1748.2941251194</ele>
        <time>2015-01-17T15:33:20Z</time>
      </trkpt>
      <trkpt lat="42.88459" lon="0.11044">
        <ele>1746.8016066667</ele>
        <time>2015-01-17T15:33:25Z</time>
      </trkpt>
      <trkpt lat="42.88465" lon="0.11033">
        <ele>1745.5114839123</ele>
        <time>2015-01-17T15:33:30Z</time>
      </trkpt>
      <trkpt lat="42.88472" lon="0.11025">
        <ele>1744.399874879</ele>
        <time>2015-01-17T15:33:35Z</time>
      </trkpt>
      <trkpt lat="42.88478" lon="0.11018">
        <ele>1744.399874879</ele>
        <time>2015-01-17T15:33:40Z</time>
      </trkpt>
      <trkpt lat="42.88483" lon="0.1101">
        <ele>1743.1848512428</ele>
        <time>2015-01-17T15:33:45Z</time>
      </trkpt>
      <trkpt lat="42.88491" lon="0.11004">
        <ele>1743.1848512428</ele>
        <time>2015-01-17T15:33:50Z</time>
      </trkpt>
      <trkpt lat="42.88498" lon="0.10998">
        <ele>1741.90823826</ele>
        <time>2015-01-17T15:33:55Z</time>
      </trkpt>
      <trkpt lat="42.88506" lon="0.10989">
        <ele>1740.7820329337</ele>
        <time>2015-01-17T15:34:00Z</time>
      </trkpt>
      <trkpt lat="42.88512" lon="0.10978">
        <ele>1739.8294586803</ele>
        <time>2015-01-17T15:34:05Z</time>
      </trkpt>
      <trkpt lat="42.8852" lon="0.10963">
        <ele>1739.0284831097</ele>
        <time>2015-01-17T15:34:10Z</time>
      </trkpt>
      <trkpt lat="42.88534" lon="0.10944">
        <ele>1738.3728637635</ele>
        <time>2015-01-17T15:34:15Z</time>
      </trkpt>
      <trkpt lat="42.8855" lon="0.10927">
        <ele>1737.8421980434</ele>
        <time>2015-01-17T15:34:20Z</time>
      </trkpt>
      <trkpt lat="42.88564" lon="0.10913">
        <ele>1737.4030346574</ele>
        <time>2015-01-17T15:34:25Z</time>
      </trkpt>
      <trkpt lat="42.88585" lon="0.10899">
        <ele>1736.9955281233</ele>
        <time>2015-01-17T15:34:30Z</time>
      </trkpt>
      <trkpt lat="42.88603" lon="0.1089">
        <ele>1736.6508468061</ele>
        <time>2015-01-17T15:34:35Z</time>
      </trkpt>
      <trkpt lat="42.88621" lon="0.1089">
        <ele>1736.3258885647</ele>
        <time>2015-01-17T15:34:40Z</time>
      </trkpt>
      <trkpt lat="42.88626" lon="0.10889">
        <ele>1736.3258885647</ele>
        <time>2015-01-17T15:34:45Z</time>
      </trkpt>
      <trkpt lat="42.88632" lon="0.10887">
        <ele>1735.9232784357</ele>
        <time>2015-01-17T15:34:50Z</time>
      </trkpt>
      <trkpt lat="42.88635" lon="0.10884">
        <ele>1735.9232784357</ele>
        <time>2015-01-17T15:34:55Z</time>
      </trkpt>
      <trkpt lat="42.88635" lon="0.10882">
        <ele>1735.9232784357</ele>
        <time>2015-01-17T15:35:00Z</time>
      </trkpt>
      <trkpt lat="42.8864" lon="0.10877">
        <ele>1735.5118037379</ele>
        <time>2015-01-17T15:35:15Z</time>
      </trkpt>
      <trkpt lat="42.88633" lon="0.10879">
        <ele>1735.5118037379</ele>
        <time>2015-01-17T15:35:30Z</time>
      </trkpt>
      <trkpt lat="42.88634" lon="0.10879">
        <ele>1735.5118037379</ele>
        <time>2015-01-17T15:35:35Z</time>
      </trkpt>
      <trkpt lat="42.88634" lon="0.10879">
        <ele>1735.5118037379</ele>
        <time>2015-01-17T15:35:40Z</time>
      </trkpt>
      <trkpt lat="42.88638" lon="0.10879">
        <ele>1734.9969770159</ele>
        <time>2015-01-17T15:36:10Z</time>
      </trkpt>
      <trkpt lat="42.88634" lon="0.10876">
        <ele>1734.9969770159</ele>
        <time>2015-01-17T15:36:25Z</time>
      </trkpt>
      <trkpt lat="42.88633" lon="0.10868">
        <ele>1734.5368115711</ele>
        <time>2015-01-17T15:36:30Z</time>
      </trkpt>
      <trkpt lat="42.88628" lon="0.10857">
        <ele>1734.2490223404</ele>
        <time>2015-01-17T15:36:35Z</time>
      </trkpt>
      <trkpt lat="42.88623" lon="0.1084">
        <ele>1734.0695478784</ele>
        <time>2015-01-17T15:36:40Z</time>
      </trkpt>
      <trkpt lat="42.88618" lon="0.10829">
        <ele>1733.9534303228</ele>
        <time>2015-01-17T15:36:45Z</time>
      </trkpt>
      <trkpt lat="42.88622" lon="0.10816">
        <ele>1733.9023627276</ele>
        <time>2015-01-17T15:36:50Z</time>
      </trkpt>
      <trkpt lat="42.88638" lon="0.10823">
        <ele>1733.831559203</ele>
        <time>2015-01-17T15:36:55Z</time>
      </trkpt>
      <trkpt lat="42.8865" lon="0.10825">
        <ele>1733.7925134955</ele>
        <time>2015-01-17T15:37:00Z</time>
      </trkpt>
      <trkpt lat="42.88665" lon="0.10829">
        <ele>1733.7466772619</ele>
        <time>2015-01-17T15:37:05Z</time>
      </trkpt>
      <trkpt lat="42.88676" lon="0.10835">
        <ele>1733.6298266623</ele>
        <time>2015-01-17T15:37:10Z</time>
      </trkpt>
      <trkpt lat="42.88683" lon="0.10836">
        <ele>1733.6298266623</ele>
        <time>2015-01-17T15:37:15Z</time>
      </trkpt>
      <trkpt lat="42.88691" lon="0.10833">
        <ele>1733.282071262</ele>
        <time>2015-01-17T15:37:20Z</time>
      </trkpt>
      <trkpt lat="42.88692" lon="0.10834">
        <ele>1733.282071262</ele>
        <time>2015-01-17T15:37:25Z</time>
      </trkpt>
      <trkpt lat="42.88697" lon="0.10831">
        <ele>1733.282071262</ele>
        <time>2015-01-17T15:37:30Z</time>
      </trkpt>
      <trkpt lat="42.88699" lon="0.10832">
        <ele>1733.282071262</ele>
        <time>2015-01-17T15:37:35Z</time>
      </trkpt>
      <trkpt lat="42.88705" lon="0.10831">
        <ele>1732.7723715006</ele>
        <time>2015-01-17T15:37:40Z</time>
      </trkpt>
      <trkpt lat="42.88712" lon="0.10831">
        <ele>1732.7723715006</ele>
        <time>2015-01-17T15:37:45Z</time>
      </trkpt>
      <trkpt lat="42.88717" lon="0.1083">
        <ele>1732.0933066343</ele>
        <time>2015-01-17T15:37:50Z</time>
      </trkpt>
      <trkpt lat="42.88725" lon="0.1083">
        <ele>1732.0933066343</ele>
        <time>2015-01-17T15:37:55Z</time>
      </trkpt>
      <trkpt lat="42.88736" lon="0.10833">
        <ele>1731.3828665457</ele>
        <time>2015-01-17T15:38:00Z</time>
      </trkpt>
      <trkpt lat="42.88746" lon="0.10831">
        <ele>1730.7404415444</ele>
        <time>2015-01-17T15:38:05Z</time>
      </trkpt>
      <trkpt lat="42.88755" lon="0.10829">
        <ele>1730.1429037613</ele>
        <time>2015-01-17T15:38:10Z</time>
      </trkpt>
      <trkpt lat="42.88768" lon="0.10826">
        <ele>1729.5545411538</ele>
        <time>2015-01-17T15:38:15Z</time>
      </trkpt>
      <trkpt lat="42.88781" lon="0.10824">
        <ele>1728.9280733438</ele>
        <time>2015-01-17T15:38:20Z</time>
      </trkpt>
      <trkpt lat="42.88795" lon="0.10819">
        <ele>1728.3065031875</ele>
        <time>2015-01-17T15:38:25Z</time>
      </trkpt>
      <trkpt lat="42.88811" lon="0.10811">
        <ele>1727.6578329244</ele>
        <time>2015-01-17T15:38:30Z</time>
      </trkpt>
      <trkpt lat="42.88819" lon="0.10802">
        <ele>1727.0679991726</ele>
        <time>2015-01-17T15:38:35Z</time>
      </trkpt>
      <trkpt lat="42.88835" lon="0.10795">
        <ele>1726.5302041218</ele>
        <time>2015-01-17T15:38:40Z</time>
      </trkpt>
      <trkpt lat="42.88845" lon="0.10789">
        <ele>1726.095849631</ele>
        <time>2015-01-17T15:38:45Z</time>
      </trkpt>
      <trkpt lat="42.88859" lon="0.10786">
        <ele>1725.6539429519</ele>
        <time>2015-01-17T15:38:50Z</time>
      </trkpt>
      <trkpt lat="42.88872" lon="0.10781">
        <ele>1725.2171411301</ele>
        <time>2015-01-17T15:38:55Z</time>
      </trkpt>
      <trkpt lat="42.8888" lon="0.10778">
        <ele>1725.2171411301</ele>
        <time>2015-01-17T15:39:00Z</time>
      </trkpt>
      <trkpt lat="42.8889" lon="0.10773">
        <ele>1724.5235243485</ele>
        <time>2015-01-17T15:39:05Z</time>
      </trkpt>
      <trkpt lat="42.88902" lon="0.10764">
        <ele>1723.7059930634</ele>
        <time>2015-01-17T15:39:10Z</time>
      </trkpt>
      <trkpt lat="42.88909" lon="0.10759">
        <ele>1723.7059930634</ele>
        <time>2015-01-17T15:39:15Z</time>
      </trkpt>
      <trkpt lat="42.88917" lon="0.10752">
        <ele>1722.6864381763</ele>
        <time>2015-01-17T15:39:20Z</time>
      </trkpt>
      <trkpt lat="42.88927" lon="0.10742">
        <ele>1721.7534845911</ele>
        <time>2015-01-17T15:39:25Z</time>
      </trkpt>
      <trkpt lat="42.88942" lon="0.10738">
        <ele>1720.8718198362</ele>
        <time>2015-01-17T15:39:30Z</time>
      </trkpt>
      <trkpt lat="42.88955" lon="0.10736">
        <ele>1720.0519460443</ele>
        <time>2015-01-17T15:39:35Z</time>
      </trkpt>
      <trkpt lat="42.88973" lon="0.10738">
        <ele>1719.2026640908</ele>
        <time>2015-01-17T15:39:40Z</time>
      </trkpt>
      <trkpt lat="42.88992" lon="0.10739">
        <ele>1718.2396689296</ele>
        <time>2015-01-17T15:39:45Z</time>
      </trkpt>
      <trkpt lat="42.89008" lon="0.10737">
        <ele>1717.1429150012</ele>
        <time>2015-01-17T15:39:50Z</time>
      </trkpt>
      <trkpt lat="42.89028" lon="0.10734">
        <ele>1715.8798870022</ele>
        <time>2015-01-17T15:39:55Z</time>
      </trkpt>
      <trkpt lat="42.89042" lon="0.1073">
        <ele>1714.5362972832</ele>
        <time>2015-01-17T15:40:00Z</time>
      </trkpt>
      <trkpt lat="42.89056" lon="0.10719">
        <ele>1713.0765721399</ele>
        <time>2015-01-17T15:40:05Z</time>
      </trkpt>
      <trkpt lat="42.89072" lon="0.10711">
        <ele>1711.5834283004</ele>
        <time>2015-01-17T15:40:10Z</time>
      </trkpt>
      <trkpt lat="42.89098" lon="0.10709">
        <ele>1709.845428828</ele>
        <time>2015-01-17T15:40:15Z</time>
      </trkpt>
      <trkpt lat="42.89118" lon="0.10712">
        <ele>1707.9412066045</ele>
        <time>2015-01-17T15:40:20Z</time>
      </trkpt>
      <trkpt lat="42.89128" lon="0.10712">
        <ele>1705.872056542</ele>
        <time>2015-01-17T15:40:25Z</time>
      </trkpt>
      <trkpt lat="42.8915" lon="0.10708">
        <ele>1703.5531892985</ele>
        <time>2015-01-17T15:40:30Z</time>
      </trkpt>
      <trkpt lat="42.89172" lon="0.10705">
        <ele>1700.7482232574</ele>
        <time>2015-01-17T15:40:35Z</time>
      </trkpt>
      <trkpt lat="42.89188" lon="0.10701">
        <ele>1697.815935604</ele>
        <time>2015-01-17T15:40:40Z</time>
      </trkpt>
      <trkpt lat="42.89195" lon="0.10703">
        <ele>1697.815935604</ele>
        <time>2015-01-17T15:40:45Z</time>
      </trkpt>
      <trkpt lat="42.89197" lon="0.10704">
        <ele>1694.397341135</ele>
        <time>2015-01-17T15:40:50Z</time>
      </trkpt>
      <trkpt lat="42.89205" lon="0.10705">
        <ele>1694.397341135</ele>
        <time>2015-01-17T15:40:55Z</time>
      </trkpt>
      <trkpt lat="42.89199" lon="0.10715">
        <ele>1689.9737957447</ele>
        <time>2015-01-17T15:41:00Z</time>
      </trkpt>
      <trkpt lat="42.8919" lon="0.10705">
        <ele>1683.9666230522</ele>
        <time>2015-01-17T15:41:05Z</time>
      </trkpt>
      <trkpt lat="42.89184" lon="0.10697">
        <ele>1683.9666230522</ele>
        <time>2015-01-17T15:41:10Z</time>
      </trkpt>
      <trkpt lat="42.89187" lon="0.10693">
        <ele>1677.6886211754</ele>
        <time>2015-01-17T15:41:15Z</time>
      </trkpt>
      <trkpt lat="42.89207" lon="0.10686">
        <ele>1672.0541469094</ele>
        <time>2015-01-17T15:41:20Z</time>
      </trkpt>
      <trkpt lat="42.89228" lon="0.10676">
        <ele>1666.7411219301</ele>
        <time>2015-01-17T15:41:25Z</time>
      </trkpt>
      <trkpt lat="42.89267" lon="0.10661">
        <ele>1660.3115553037</ele>
        <time>2015-01-17T15:41:30Z</time>
      </trkpt>
      <trkpt lat="42.89274" lon="0.10659">
        <ele>1660.3115553037</ele>
        <time>2015-01-17T15:41:35Z</time>
      </trkpt>
      <trkpt lat="42.89285" lon="0.10657">
        <ele>1652.5024221912</ele>
        <time>2015-01-17T15:41:55Z</time>
      </trkpt>
      <trkpt lat="42.893" lon="0.10654">
        <ele>1645.2929497108</ele>
        <time>2015-01-17T15:42:00Z</time>
      </trkpt>
      <trkpt lat="42.89318" lon="0.1065">
        <ele>1638.6271529489</ele>
        <time>2015-01-17T15:42:05Z</time>
      </trkpt>
      <trkpt lat="42.89333" lon="0.10647">
        <ele>1632.566615595</ele>
        <time>2015-01-17T15:42:10Z</time>
      </trkpt>
      <trkpt lat="42.89345" lon="0.10651">
        <ele>1626.9646140289</ele>
        <time>2015-01-17T15:42:15Z</time>
      </trkpt>
      <trkpt lat="42.89361" lon="0.10652">
        <ele>1621.75562733</ele>
        <time>2015-01-17T15:42:20Z</time>
      </trkpt>
      <trkpt lat="42.89379" lon="0.10655">
        <ele>1616.8486693446</ele>
        <time>2015-01-17T15:42:25Z</time>
      </trkpt>
      <trkpt lat="42.89393" lon="0.10662">
        <ele>1611.9997105141</ele>
        <time>2015-01-17T15:42:30Z</time>
      </trkpt>
      <trkpt lat="42.89397" lon="0.10666">
        <ele>1611.9997105141</ele>
        <time>2015-01-17T15:42:35Z</time>
      </trkpt>
      <trkpt lat="42.89396" lon="0.10668">
        <ele>1611.9997105141</ele>
        <time>2015-01-17T15:42:40Z</time>
      </trkpt>
      <trkpt lat="42.89384" lon="0.10668">
        <ele>1606.3336250108</ele>
        <time>2015-01-17T15:42:45Z</time>
      </trkpt>
      <trkpt lat="42.89384" lon="0.10655">
        <ele>1601.159940382</ele>
        <time>2015-01-17T15:42:50Z</time>
      </trkpt>
      <trkpt lat="42.89386" lon="0.10643">
        <ele>1596.5229477936</ele>
        <time>2015-01-17T15:42:55Z</time>
      </trkpt>
      <trkpt lat="42.89393" lon="0.10646">
        <ele>1596.5229477936</ele>
        <time>2015-01-17T15:43:00Z</time>
      </trkpt>
      <trkpt lat="42.89399" lon="0.10645">
        <ele>1591.4530457614</ele>
        <time>2015-01-17T15:43:05Z</time>
      </trkpt>
      <trkpt lat="42.89402" lon="0.10645">
        <ele>1591.4530457614</ele>
        <time>2015-01-17T15:43:10Z</time>
      </trkpt>
      <trkpt lat="42.89408" lon="0.10644">
        <ele>1591.4530457614</ele>
        <time>2015-01-17T15:43:15Z</time>
      </trkpt>
      <trkpt lat="42.89413" lon="0.10644">
        <ele>1585.9894436733</ele>
        <time>2015-01-17T15:43:25Z</time>
      </trkpt>
      <trkpt lat="42.89415" lon="0.10645">
        <ele>1585.9894436733</ele>
        <time>2015-01-17T15:43:30Z</time>
      </trkpt>
      <trkpt lat="42.89415" lon="0.10646">
        <ele>1585.9894436733</ele>
        <time>2015-01-17T15:43:35Z</time>
      </trkpt>
      <trkpt lat="42.89417" lon="0.10645">
        <ele>1585.9894436733</ele>
        <time>2015-01-17T15:43:40Z</time>
      </trkpt>
      <trkpt lat="42.89419" lon="0.10641">
        <ele>1585.9894436733</ele>
        <time>2015-01-17T15:43:45Z</time>
      </trkpt>
      <trkpt lat="42.89418" lon="0.10635">
        <ele>1580.6592047276</ele>
        <time>2015-01-17T15:43:50Z</time>
      </trkpt>
      <trkpt lat="42.89421" lon="0.1063">
        <ele>1580.6592047276</ele>
        <time>2015-01-17T15:43:55Z</time>
      </trkpt>
      <trkpt lat="42.8942" lon="0.10622">
        <ele>1575.8202569209</ele>
        <time>2015-01-17T15:44:00Z</time>
      </trkpt>
      <trkpt lat="42.89422" lon="0.10615">
        <ele>1575.8202569209</ele>
        <time>2015-01-17T15:44:05Z</time>
      </trkpt>
      <trkpt lat="42.89426" lon="0.10608">
        <ele>1571.5431196953</ele>
        <time>2015-01-17T15:44:10Z</time>
      </trkpt>
      <trkpt lat="42.89432" lon="0.10603">
        <ele>1571.5431196953</ele>
        <time>2015-01-17T15:44:15Z</time>
      </trkpt>
      <trkpt lat="42.89436" lon="0.10596">
        <ele>1567.7615281454</ele>
        <time>2015-01-17T15:44:20Z</time>
      </trkpt>
      <trkpt lat="42.89441" lon="0.10588">
        <ele>1567.7615281454</ele>
        <time>2015-01-17T15:44:25Z</time>
      </trkpt>
      <trkpt lat="42.89448" lon="0.10582">
        <ele>1564.2682687928</ele>
        <time>2015-01-17T15:44:30Z</time>
      </trkpt>
      <trkpt lat="42.89458" lon="0.10577">
        <ele>1561.1440539684</ele>
        <time>2015-01-17T15:44:35Z</time>
      </trkpt>
      <trkpt lat="42.89465" lon="0.10575">
        <ele>1561.1440539684</ele>
        <time>2015-01-17T15:44:40Z</time>
      </trkpt>
      <trkpt lat="42.89473" lon="0.1057">
        <ele>1558.1885415642</ele>
        <time>2015-01-17T15:44:45Z</time>
      </trkpt>
      <trkpt lat="42.89475" lon="0.10563">
        <ele>1558.1885415642</ele>
        <time>2015-01-17T15:44:50Z</time>
      </trkpt>
      <trkpt lat="42.89477" lon="0.10556">
        <ele>1555.4891870842</ele>
        <time>2015-01-17T15:44:55Z</time>
      </trkpt>
      <trkpt lat="42.89478" lon="0.10549">
        <ele>1555.4891870842</ele>
        <time>2015-01-17T15:45:00Z</time>
      </trkpt>
      <trkpt lat="42.89481" lon="0.10547">
        <ele>1555.4891870842</ele>
        <time>2015-01-17T15:45:05Z</time>
      </trkpt>
      <trkpt lat="42.89494" lon="0.10536">
        <ele>1553.0972464094</ele>
        <time>2015-01-17T15:45:10Z</time>
      </trkpt>
      <trkpt lat="42.89511" lon="0.10522">
        <ele>1551.059137791</ele>
        <time>2015-01-17T15:45:15Z</time>
      </trkpt>
      <trkpt lat="42.89526" lon="0.10507">
        <ele>1549.3302258115</ele>
        <time>2015-01-17T15:45:20Z</time>
      </trkpt>
      <trkpt lat="42.89532" lon="0.10495">
        <ele>1547.8825398799</ele>
        <time>2015-01-17T15:45:25Z</time>
      </trkpt>
      <trkpt lat="42.89531" lon="0.10487">
        <ele>1547.8825398799</ele>
        <time>2015-01-17T15:45:30Z</time>
      </trkpt>
      <trkpt lat="42.89533" lon="0.10482">
        <ele>1546.3577888659</ele>
        <time>2015-01-17T15:45:35Z</time>
      </trkpt>
      <trkpt lat="42.89535" lon="0.10479">
        <ele>1546.3577888659</ele>
        <time>2015-01-17T15:45:40Z</time>
      </trkpt>
      <trkpt lat="42.89538" lon="0.10475">
        <ele>1546.3577888659</ele>
        <time>2015-01-17T15:45:45Z</time>
      </trkpt>
      <trkpt lat="42.89539" lon="0.10469">
        <ele>1544.813214217</ele>
        <time>2015-01-17T15:45:50Z</time>
      </trkpt>
      <trkpt lat="42.89542" lon="0.10462">
        <ele>1544.813214217</ele>
        <time>2015-01-17T15:45:55Z</time>
      </trkpt>
      <trkpt lat="42.89546" lon="0.10458">
        <ele>1543.4891754183</ele>
        <time>2015-01-17T15:46:00Z</time>
      </trkpt>
      <trkpt lat="42.89553" lon="0.10457">
        <ele>1543.4891754183</ele>
        <time>2015-01-17T15:46:05Z</time>
      </trkpt>
      <trkpt lat="42.89561" lon="0.10458">
        <ele>1542.3627159654</ele>
        <time>2015-01-17T15:46:10Z</time>
      </trkpt>
      <trkpt lat="42.89571" lon="0.10458">
        <ele>1541.2822840962</ele>
        <time>2015-01-17T15:46:15Z</time>
      </trkpt>
      <trkpt lat="42.89576" lon="0.10456">
        <ele>1541.2822840962</ele>
        <time>2015-01-17T15:46:20Z</time>
      </trkpt>
      <trkpt lat="42.89582" lon="0.1045">
        <ele>1539.7038158563</ele>
        <time>2015-01-17T15:46:35Z</time>
      </trkpt>
      <trkpt lat="42.89582" lon="0.1045">
        <ele>1539.7038158563</ele>
        <time>2015-01-17T15:46:40Z</time>
      </trkpt>
      <trkpt lat="42.89576" lon="0.10461">
        <ele>1538.0613498232</ele>
        <time>2015-01-17T15:46:50Z</time>
      </trkpt>
      <trkpt lat="42.89577" lon="0.1046">
        <ele>1538.0613498232</ele>
        <time>2015-01-17T15:46:55Z</time>
      </trkpt>
      <trkpt lat="42.89578" lon="0.10461">
        <ele>1538.0613498232</ele>
        <time>2015-01-17T15:47:00Z</time>
      </trkpt>
      <trkpt lat="42.89575" lon="0.1046">
        <ele>1538.0613498232</ele>
        <time>2015-01-17T15:47:15Z</time>
      </trkpt>
      <trkpt lat="42.89578" lon="0.10461">
        <ele>1538.0613498232</ele>
        <time>2015-01-17T15:47:20Z</time>
      </trkpt>
      <trkpt lat="42.89583" lon="0.10464">
        <ele>1536.2096317919</ele>
        <time>2015-01-17T15:47:25Z</time>
      </trkpt>
      <trkpt lat="42.89589" lon="0.10466">
        <ele>1536.2096317919</ele>
        <time>2015-01-17T15:47:30Z</time>
      </trkpt>
      <trkpt lat="42.89593" lon="0.10469">
        <ele>1534.6488041487</ele>
        <time>2015-01-17T15:47:35Z</time>
      </trkpt>
      <trkpt lat="42.89599" lon="0.10471">
        <ele>1534.6488041487</ele>
        <time>2015-01-17T15:47:40Z</time>
      </trkpt>
      <trkpt lat="42.89605" lon="0.10474">
        <ele>1533.322717063</ele>
        <time>2015-01-17T15:47:45Z</time>
      </trkpt>
      <trkpt lat="42.89611" lon="0.10477">
        <ele>1533.322717063</ele>
        <time>2015-01-17T15:47:50Z</time>
      </trkpt>
      <trkpt lat="42.89619" lon="0.10479">
        <ele>1532.3516982918</ele>
        <time>2015-01-17T15:47:55Z</time>
      </trkpt>
      <trkpt lat="42.89626" lon="0.10481">
        <ele>1532.3516982918</ele>
        <time>2015-01-17T15:48:00Z</time>
      </trkpt>
      <trkpt lat="42.89633" lon="0.10483">
        <ele>1531.7310437166</ele>
        <time>2015-01-17T15:48:05Z</time>
      </trkpt>
      <trkpt lat="42.8964" lon="0.10484">
        <ele>1531.7310437166</ele>
        <time>2015-01-17T15:48:10Z</time>
      </trkpt>
      <trkpt lat="42.89645" lon="0.10483">
        <ele>1531.3402307615</ele>
        <time>2015-01-17T15:48:15Z</time>
      </trkpt>
      <trkpt lat="42.89655" lon="0.10484">
        <ele>1530.9950138847</ele>
        <time>2015-01-17T15:48:20Z</time>
      </trkpt>
      <trkpt lat="42.89665" lon="0.10483">
        <ele>1530.5679274815</ele>
        <time>2015-01-17T15:48:25Z</time>
      </trkpt>
      <trkpt lat="42.89678" lon="0.1048">
        <ele>1530.4168217468</ele>
        <time>2015-01-17T15:48:30Z</time>
      </trkpt>
      <trkpt lat="42.8969" lon="0.10477">
        <ele>1530.3106221996</ele>
        <time>2015-01-17T15:48:35Z</time>
      </trkpt>
      <trkpt lat="42.89699" lon="0.10472">
        <ele>1530.2514540493</ele>
        <time>2015-01-17T15:48:40Z</time>
      </trkpt>
      <trkpt lat="42.89708" lon="0.1047">
        <ele>1530.2514540493</ele>
        <time>2015-01-17T15:48:45Z</time>
      </trkpt>
      <trkpt lat="42.89715" lon="0.10466">
        <ele>1530.1116513431</ele>
        <time>2015-01-17T15:48:50Z</time>
      </trkpt>
      <trkpt lat="42.89722" lon="0.10465">
        <ele>1530.1116513431</ele>
        <time>2015-01-17T15:48:55Z</time>
      </trkpt>
      <trkpt lat="42.89734" lon="0.10465">
        <ele>1529.8598275597</ele>
        <time>2015-01-17T15:49:00Z</time>
      </trkpt>
      <trkpt lat="42.89747" lon="0.10463">
        <ele>1529.6403674491</ele>
        <time>2015-01-17T15:49:05Z</time>
      </trkpt>
      <trkpt lat="42.89759" lon="0.1046">
        <ele>1529.241317462</ele>
        <time>2015-01-17T15:49:10Z</time>
      </trkpt>
      <trkpt lat="42.89771" lon="0.10458">
        <ele>1528.7840739546</ele>
        <time>2015-01-17T15:49:15Z</time>
      </trkpt>
      <trkpt lat="42.89777" lon="0.10459">
        <ele>1528.7840739546</ele>
        <time>2015-01-17T15:49:20Z</time>
      </trkpt>
      <trkpt lat="42.89783" lon="0.10462">
        <ele>1528.1797586556</ele>
        <time>2015-01-17T15:49:25Z</time>
      </trkpt>
      <trkpt lat="42.89792" lon="0.1046">
        <ele>1528.1797586556</ele>
        <time>2015-01-17T15:49:30Z</time>
      </trkpt>
      <trkpt lat="42.89814" lon="0.10458">
        <ele>1527.0440381714</ele>
        <time>2015-01-17T15:49:35Z</time>
      </trkpt>
      <trkpt lat="42.89851" lon="0.10452">
        <ele>1525.68544969</ele>
        <time>2015-01-17T15:49:40Z</time>
      </trkpt>
      <trkpt lat="42.89894" lon="0.10443">
        <ele>1523.9007438815</ele>
        <time>2015-01-17T15:49:45Z</time>
      </trkpt>
      <trkpt lat="42.89937" lon="0.10432">
        <ele>1521.4741982059</ele>
        <time>2015-01-17T15:49:50Z</time>
      </trkpt>
      <trkpt lat="42.89972" lon="0.10422">
        <ele>1518.3664705912</ele>
        <time>2015-01-17T15:49:55Z</time>
      </trkpt>
      <trkpt lat="42.9" lon="0.10418">
        <ele>1514.6440920914</ele>
        <time>2015-01-17T15:50:00Z</time>
      </trkpt>
      <trkpt lat="42.90026" lon="0.10414">
        <ele>1510.5147156579</ele>
        <time>2015-01-17T15:50:05Z</time>
      </trkpt>
      <trkpt lat="42.90061" lon="0.10406">
        <ele>1505.8405755226</ele>
        <time>2015-01-17T15:50:10Z</time>
      </trkpt>
      <trkpt lat="42.90097" lon="0.10399">
        <ele>1500.7406650439</ele>
        <time>2015-01-17T15:50:15Z</time>
      </trkpt>
      <trkpt lat="42.9013" lon="0.10391">
        <ele>1494.8797774435</ele>
        <time>2015-01-17T15:50:20Z</time>
      </trkpt>
      <trkpt lat="42.9016" lon="0.10379">
        <ele>1488.9871244284</ele>
        <time>2015-01-17T15:50:25Z</time>
      </trkpt>
      <trkpt lat="42.90191" lon="0.10372">
        <ele>1482.8161536767</ele>
        <time>2015-01-17T15:50:30Z</time>
      </trkpt>
      <trkpt lat="42.90226" lon="0.10363">
        <ele>1477.0470985536</ele>
        <time>2015-01-17T15:50:35Z</time>
      </trkpt>
      <trkpt lat="42.90255" lon="0.10355">
        <ele>1471.6893796629</ele>
        <time>2015-01-17T15:50:40Z</time>
      </trkpt>
      <trkpt lat="42.90274" lon="0.10351">
        <ele>1466.6496292234</ele>
        <time>2015-01-17T15:50:45Z</time>
      </trkpt>
      <trkpt lat="42.90291" lon="0.10348">
        <ele>1461.8980035871</ele>
        <time>2015-01-17T15:50:50Z</time>
      </trkpt>
      <trkpt lat="42.90314" lon="0.10344">
        <ele>1457.5356386941</ele>
        <time>2015-01-17T15:50:55Z</time>
      </trkpt>
      <trkpt lat="42.9033" lon="0.10341">
        <ele>1453.6550320083</ele>
        <time>2015-01-17T15:51:00Z</time>
      </trkpt>
      <trkpt lat="42.90336" lon="0.10338">
        <ele>1453.6550320083</ele>
        <time>2015-01-17T15:51:05Z</time>
      </trkpt>
      <trkpt lat="42.9034" lon="0.10335">
        <ele>1449.9224866412</ele>
        <time>2015-01-17T15:51:10Z</time>
      </trkpt>
      <trkpt lat="42.90347" lon="0.10331">
        <ele>1449.9224866412</ele>
        <time>2015-01-17T15:51:15Z</time>
      </trkpt>
      <trkpt lat="42.90352" lon="0.10327">
        <ele>1446.1003280721</ele>
        <time>2015-01-17T15:51:20Z</time>
      </trkpt>
      <trkpt lat="42.90358" lon="0.10324">
        <ele>1446.1003280721</ele>
        <time>2015-01-17T15:51:25Z</time>
      </trkpt>
      <trkpt lat="42.90372" lon="0.10324">
        <ele>1441.8819913032</ele>
        <time>2015-01-17T15:51:30Z</time>
      </trkpt>
      <trkpt lat="42.90373" lon="0.10326">
        <ele>1441.8819913032</ele>
        <time>2015-01-17T15:51:35Z</time>
      </trkpt>
      <trkpt lat="42.90374" lon="0.10324">
        <ele>1441.8819913032</ele>
        <time>2015-01-17T15:51:40Z</time>
      </trkpt>
      <trkpt lat="42.90375" lon="0.10323">
        <ele>1441.8819913032</ele>
        <time>2015-01-17T15:51:45Z</time>
      </trkpt>
      <trkpt lat="42.90371" lon="0.10325">
        <ele>1439.0163753688</ele>
        <time>2015-01-17T15:52:05Z</time>
      </trkpt>
      <trkpt lat="42.90375" lon="0.10323">
        <ele>1439.0163753688</ele>
        <time>2015-01-17T15:52:10Z</time>
      </trkpt>
      <trkpt lat="42.90375" lon="0.10323">
        <ele>1439.0163753688</ele>
        <time>2015-01-17T15:52:15Z</time>
      </trkpt>
      <trkpt lat="42.90377" lon="0.10324">
        <ele>1439.0163753688</ele>
        <time>2015-01-17T15:52:20Z</time>
      </trkpt>
      <trkpt lat="42.90379" lon="0.10325">
        <ele>1439.0163753688</ele>
        <time>2015-01-17T15:52:25Z</time>
      </trkpt>
      <trkpt lat="42.90383" lon="0.10325">
        <ele>1436.9006670264</ele>
        <time>2015-01-17T15:52:30Z</time>
      </trkpt>
      <trkpt lat="42.9038" lon="0.10326">
        <ele>1436.9006670264</ele>
        <time>2015-01-17T15:52:35Z</time>
      </trkpt>
      <trkpt lat="42.90379" lon="0.10322">
        <ele>1436.9006670264</ele>
        <time>2015-01-17T15:52:50Z</time>
      </trkpt>
      <trkpt lat="42.90384" lon="0.10319">
        <ele>1435.4784950295</ele>
        <time>2015-01-17T15:52:55Z</time>
      </trkpt>
      <trkpt lat="42.90389" lon="0.10316">
        <ele>1435.4784950295</ele>
        <time>2015-01-17T15:53:00Z</time>
      </trkpt>
      <trkpt lat="42.90389" lon="0.10312">
        <ele>1435.4784950295</ele>
        <time>2015-01-17T15:53:05Z</time>
      </trkpt>
      <trkpt lat="42.90389" lon="0.10312">
        <ele>1435.4784950295</ele>
        <time>2015-01-17T15:53:10Z</time>
      </trkpt>
      <trkpt lat="42.90388" lon="0.10312">
        <ele>1434.6811590985</ele>
        <time>2015-01-17T15:53:15Z</time>
      </trkpt>
      <trkpt lat="42.90391" lon="0.10312">
        <ele>1434.6811590985</ele>
        <time>2015-01-17T15:53:30Z</time>
      </trkpt>
      <trkpt lat="42.90383" lon="0.10317">
        <ele>1434.1981683468</ele>
        <time>2015-01-17T15:58:50Z</time>
      </trkpt>
      <trkpt lat="42.90383" lon="0.10316">
        <ele>1434.1981683468</ele>
        <time>2015-01-17T15:58:55Z</time>
      </trkpt>
      <trkpt lat="42.90392" lon="0.10312">
        <ele>1434.6920193952</ele>
        <time>2015-01-17T16:02:15Z</time>
      </trkpt>
      <trkpt lat="42.90392" lon="0.10312">
        <ele>1434.6920193952</ele>
        <time>2015-01-17T16:02:20Z</time>
      </trkpt>
      <trkpt lat="42.90396" lon="0.10308">
        <ele>1434.6920193952</ele>
        <time>2015-01-17T16:08:05Z</time>
      </trkpt>
      <trkpt lat="42.90392" lon="0.10303">
        <ele>1435.0155978143</ele>
        <time>2015-01-17T16:08:10Z</time>
      </trkpt>
      <trkpt lat="42.9039" lon="0.10295">
        <ele>1435.0155978143</ele>
        <time>2015-01-17T16:08:15Z</time>
      </trkpt>
      <trkpt lat="42.90382" lon="0.10284">
        <ele>1435.4179235257</ele>
        <time>2015-01-17T16:08:20Z</time>
      </trkpt>
      <trkpt lat="42.90374" lon="0.10271">
        <ele>1435.9565750043</ele>
        <time>2015-01-17T16:08:25Z</time>
      </trkpt>
      <trkpt lat="42.90367" lon="0.10252">
        <ele>1436.6124952058</ele>
        <time>2015-01-17T16:08:30Z</time>
      </trkpt>
      <trkpt lat="42.90362" lon="0.10229">
        <ele>1437.3389328081</ele>
        <time>2015-01-17T16:08:35Z</time>
      </trkpt>
      <trkpt lat="42.90362" lon="0.10204">
        <ele>1438.1068646701</ele>
        <time>2015-01-17T16:08:40Z</time>
      </trkpt>
      <trkpt lat="42.90364" lon="0.10184">
        <ele>1438.8893859879</ele>
        <time>2015-01-17T16:08:45Z</time>
      </trkpt>
      <trkpt lat="42.90361" lon="0.1017">
        <ele>1439.7048841285</ele>
        <time>2015-01-17T16:08:50Z</time>
      </trkpt>
      <trkpt lat="42.90359" lon="0.10156">
        <ele>1440.5416232902</ele>
        <time>2015-01-17T16:08:55Z</time>
      </trkpt>
      <trkpt lat="42.90358" lon="0.10143">
        <ele>1441.3744186342</ele>
        <time>2015-01-17T16:09:00Z</time>
      </trkpt>
      <trkpt lat="42.90356" lon="0.10127">
        <ele>1442.1945326902</ele>
        <time>2015-01-17T16:09:05Z</time>
      </trkpt>
      <trkpt lat="42.90353" lon="0.10113">
        <ele>1443.0229166945</ele>
        <time>2015-01-17T16:09:10Z</time>
      </trkpt>
      <trkpt lat="42.90355" lon="0.10102">
        <ele>1443.0229166945</ele>
        <time>2015-01-17T16:09:15Z</time>
      </trkpt>
      <trkpt lat="42.90352" lon="0.10087">
        <ele>1443.562115894</ele>
        <time>2015-01-17T16:09:20Z</time>
      </trkpt>
      <trkpt lat="42.9035" lon="0.10066">
        <ele>1443.9554704909</ele>
        <time>2015-01-17T16:09:25Z</time>
      </trkpt>
      <trkpt lat="42.90347" lon="0.10048">
        <ele>1444.2643623487</ele>
        <time>2015-01-17T16:09:30Z</time>
      </trkpt>
      <trkpt lat="42.90347" lon="0.10035">
        <ele>1444.5893574952</ele>
        <time>2015-01-17T16:09:35Z</time>
      </trkpt>
      <trkpt lat="42.9035" lon="0.10029">
        <ele>1444.5893574952</ele>
        <time>2015-01-17T16:09:40Z</time>
      </trkpt>
      <trkpt lat="42.90353" lon="0.10022">
        <ele>1444.8652930916</ele>
        <time>2015-01-17T16:09:45Z</time>
      </trkpt>
      <trkpt lat="42.90357" lon="0.09985">
        <ele>1445.0753919369</ele>
        <time>2015-01-17T16:09:50Z</time>
      </trkpt>
      <trkpt lat="42.90356" lon="0.09936">
        <ele>1445.1901111525</ele>
        <time>2015-01-17T16:09:55Z</time>
      </trkpt>
      <trkpt lat="42.90352" lon="0.09881">
        <ele>1445.2546288315</ele>
        <time>2015-01-17T16:10:00Z</time>
      </trkpt>
      <trkpt lat="42.90348" lon="0.09816">
        <ele>1445.2967598191</ele>
        <time>2015-01-17T16:10:05Z</time>
      </trkpt>
      <trkpt lat="42.9034" lon="0.09744">
        <ele>1445.2416835281</ele>
        <time>2015-01-17T16:10:10Z</time>
      </trkpt>
      <trkpt lat="42.90338" lon="0.09664">
        <ele>1445.0349782364</ele>
        <time>2015-01-17T16:10:15Z</time>
      </trkpt>
      <trkpt lat="42.90343" lon="0.09576">
        <ele>1444.583625438</ele>
        <time>2015-01-17T16:10:20Z</time>
      </trkpt>
      <trkpt lat="42.90344" lon="0.0949">
        <ele>1444.0905552323</ele>
        <time>2015-01-17T16:10:25Z</time>
      </trkpt>
      <trkpt lat="42.90344" lon="0.09473">
        <ele>1443.6576402488</ele>
        <time>2015-01-17T16:10:30Z</time>
      </trkpt>
      <trkpt lat="42.90344" lon="0.0933">
        <ele>1443.278414185</ele>
        <time>2015-01-17T16:10:35Z</time>
      </trkpt>
      <trkpt lat="42.90323" lon="0.09268">
        <ele>1442.9613291428</ele>
        <time>2015-01-17T16:10:40Z</time>
      </trkpt>
      <trkpt lat="42.90319" lon="0.09252">
        <ele>1442.6998059651</ele>
        <time>2015-01-17T16:10:45Z</time>
      </trkpt>
    </trkseg>
  </trk>
</gpx>